<?xml version='1.0' encoding='UTF-8'?>
<gpx version="1.1" creator="https://www.komoot.de" xmlns="http://www.topografix.com/GPX/1/1" xmlns:xsi="http://www.w3.org/2001/XMLSchema-instance" xsi:schemaLocation="http://www.topografix.com/GPX/1/1 http://www.topografix.com/GPX/1/1/gpx.xsd">
  <metadata>
    <name>68_800GuennebRuehrbGrenzz_jas</name>
    <author>
      <link href="https://www.komoot.de">
        <text>komoot</text>
        <type>text/html</type>
      </link>
    </author>
  </metadata>
  <trk>
    <name>68_800GuennebRuehrbGrenzz_jas</name>
    <trkseg>
      <trkpt lat="47.541953" lon="7.871286">
        <ele>342.804493</ele>
        <time>2021-08-16T20:29:44.543Z</time>
      </trkpt>
      <trkpt lat="47.541953" lon="7.871286">
        <ele>342.804493</ele>
        <time>2021-08-16T20:29:44.558Z</time>
      </trkpt>
      <trkpt lat="47.542039" lon="7.871556">
        <ele>342.804493</ele>
        <time>2021-08-16T20:29:49.550Z</time>
      </trkpt>
      <trkpt lat="47.542067" lon="7.871664">
        <ele>342.804493</ele>
        <time>2021-08-16T20:29:51.208Z</time>
      </trkpt>
      <trkpt lat="47.542091" lon="7.871721">
        <ele>342.804493</ele>
        <time>2021-08-16T20:29:51.843Z</time>
      </trkpt>
      <trkpt lat="47.542218" lon="7.871866">
        <ele>342.804493</ele>
        <time>2021-08-16T20:29:55.568Z</time>
      </trkpt>
      <trkpt lat="47.542394" lon="7.872341">
        <ele>342.804493</ele>
        <time>2021-08-16T20:30:05.971Z</time>
      </trkpt>
      <trkpt lat="47.542436" lon="7.872494">
        <ele>343.115333</ele>
        <time>2021-08-16T20:30:11.029Z</time>
      </trkpt>
      <trkpt lat="47.542351" lon="7.872540">
        <ele>343.559922</ele>
        <time>2021-08-16T20:30:12.708Z</time>
      </trkpt>
      <trkpt lat="47.542351" lon="7.872540">
        <ele>343.559922</ele>
        <time>2021-08-16T20:30:12.714Z</time>
      </trkpt>
      <trkpt lat="47.542351" lon="7.872540">
        <ele>343.559922</ele>
        <time>2021-08-16T20:30:12.795Z</time>
      </trkpt>
      <trkpt lat="47.542436" lon="7.872494">
        <ele>344.004512</ele>
        <time>2021-08-16T20:30:15.300Z</time>
      </trkpt>
      <trkpt lat="47.542537" lon="7.872430">
        <ele>344.544204</ele>
        <time>2021-08-16T20:30:18.274Z</time>
      </trkpt>
      <trkpt lat="47.542714" lon="7.872334">
        <ele>345.470237</ele>
        <time>2021-08-16T20:30:24.947Z</time>
      </trkpt>
      <trkpt lat="47.542814" lon="7.872280">
        <ele>345.993150</ele>
        <time>2021-08-16T20:30:28.018Z</time>
      </trkpt>
      <trkpt lat="47.542919" lon="7.872226">
        <ele>346.539206</ele>
        <time>2021-08-16T20:30:32.587Z</time>
      </trkpt>
      <trkpt lat="47.543013" lon="7.872182">
        <ele>347.023523</ele>
        <time>2021-08-16T20:30:35.674Z</time>
      </trkpt>
      <trkpt lat="47.543233" lon="7.872082">
        <ele>348.154096</ele>
        <time>2021-08-16T20:30:43.040Z</time>
      </trkpt>
      <trkpt lat="47.543251" lon="7.872152">
        <ele>348.402515</ele>
        <time>2021-08-16T20:30:46.697Z</time>
      </trkpt>
      <trkpt lat="47.543332" lon="7.872237">
        <ele>348.890186</ele>
        <time>2021-08-16T20:30:49.218Z</time>
      </trkpt>
      <trkpt lat="47.544390" lon="7.872423">
        <ele>355.037522</ele>
        <time>2021-08-16T20:31:29.731Z</time>
      </trkpt>
      <trkpt lat="47.544883" lon="7.872555">
        <ele>358.403692</ele>
        <time>2021-08-16T20:31:52.068Z</time>
      </trkpt>
      <trkpt lat="47.545131" lon="7.872664">
        <ele>360.141809</ele>
        <time>2021-08-16T20:32:03.069Z</time>
      </trkpt>
      <trkpt lat="47.545375" lon="7.872836">
        <ele>361.957395</ele>
        <time>2021-08-16T20:32:14.018Z</time>
      </trkpt>
      <trkpt lat="47.545478" lon="7.872968">
        <ele>362.872471</ele>
        <time>2021-08-16T20:32:20.826Z</time>
      </trkpt>
      <trkpt lat="47.545515" lon="7.873015">
        <ele>363.199952</ele>
        <time>2021-08-16T20:32:22.784Z</time>
      </trkpt>
      <trkpt lat="47.545746" lon="7.873302">
        <ele>365.038184</ele>
        <time>2021-08-16T20:32:35.995Z</time>
      </trkpt>
      <trkpt lat="47.545934" lon="7.873549">
        <ele>366.515480</ele>
        <time>2021-08-16T20:32:46.109Z</time>
      </trkpt>
      <trkpt lat="47.546077" lon="7.873763">
        <ele>367.710467</ele>
        <time>2021-08-16T20:32:55.303Z</time>
      </trkpt>
      <trkpt lat="47.546135" lon="7.873859">
        <ele>368.221746</ele>
        <time>2021-08-16T20:32:58.544Z</time>
      </trkpt>
      <trkpt lat="47.546309" lon="7.874154">
        <ele>369.776390</ele>
        <time>2021-08-16T20:33:09.667Z</time>
      </trkpt>
      <trkpt lat="47.547126" lon="7.875801">
        <ele>375.753462</ele>
        <time>2021-08-16T20:33:55.471Z</time>
      </trkpt>
      <trkpt lat="47.547574" lon="7.876801">
        <ele>377.682635</ele>
        <time>2021-08-16T20:34:14.507Z</time>
      </trkpt>
      <trkpt lat="47.547992" lon="7.877974">
        <ele>377.355447</ele>
        <time>2021-08-16T20:34:27.334Z</time>
      </trkpt>
      <trkpt lat="47.548234" lon="7.878638">
        <ele>376.144969</ele>
        <time>2021-08-16T20:34:32.660Z</time>
      </trkpt>
      <trkpt lat="47.548422" lon="7.878959">
        <ele>375.463236</ele>
        <time>2021-08-16T20:34:35.507Z</time>
      </trkpt>
      <trkpt lat="47.548718" lon="7.879258">
        <ele>374.611829</ele>
        <time>2021-08-16T20:34:39.048Z</time>
      </trkpt>
      <trkpt lat="47.549140" lon="7.879391">
        <ele>373.022123</ele>
        <time>2021-08-16T20:34:43.235Z</time>
      </trkpt>
      <trkpt lat="47.549318" lon="7.879398">
        <ele>372.268520</ele>
        <time>2021-08-16T20:34:44.863Z</time>
      </trkpt>
      <trkpt lat="47.549327" lon="7.879547">
        <ele>371.841190</ele>
        <time>2021-08-16T20:34:45.852Z</time>
      </trkpt>
      <trkpt lat="47.549726" lon="7.880786">
        <ele>367.919706</ele>
        <time>2021-08-16T20:34:54.808Z</time>
      </trkpt>
      <trkpt lat="47.549927" lon="7.881490">
        <ele>365.899047</ele>
        <time>2021-08-16T20:34:59.858Z</time>
      </trkpt>
      <trkpt lat="47.550234" lon="7.883221">
        <ele>361.653178</ele>
        <time>2021-08-16T20:35:12.300Z</time>
      </trkpt>
      <trkpt lat="47.550332" lon="7.884727">
        <ele>357.197445</ele>
        <time>2021-08-16T20:35:22.178Z</time>
      </trkpt>
      <trkpt lat="47.550391" lon="7.885109">
        <ele>355.919268</ele>
        <time>2021-08-16T20:35:24.718Z</time>
      </trkpt>
      <trkpt lat="47.550548" lon="7.885799">
        <ele>353.544250</ele>
        <time>2021-08-16T20:35:29.336Z</time>
      </trkpt>
      <trkpt lat="47.550677" lon="7.886476">
        <ele>351.147843</ele>
        <time>2021-08-16T20:35:33.779Z</time>
      </trkpt>
      <trkpt lat="47.550758" lon="7.887295">
        <ele>347.812782</ele>
        <time>2021-08-16T20:35:38.938Z</time>
      </trkpt>
      <trkpt lat="47.550789" lon="7.887816">
        <ele>345.705488</ele>
        <time>2021-08-16T20:35:42.182Z</time>
      </trkpt>
      <trkpt lat="47.550831" lon="7.888611">
        <ele>342.492572</ele>
        <time>2021-08-16T20:35:47.155Z</time>
      </trkpt>
      <trkpt lat="47.550833" lon="7.889069">
        <ele>340.646083</ele>
        <time>2021-08-16T20:35:49.974Z</time>
      </trkpt>
      <trkpt lat="47.550915" lon="7.890600">
        <ele>334.434727</ele>
        <time>2021-08-16T20:35:59.398Z</time>
      </trkpt>
      <trkpt lat="47.550904" lon="7.891725">
        <ele>330.030906</ele>
        <time>2021-08-16T20:36:06.423Z</time>
      </trkpt>
      <trkpt lat="47.550892" lon="7.893176">
        <ele>327.193566</ele>
        <time>2021-08-16T20:36:16.068Z</time>
      </trkpt>
      <trkpt lat="47.550908" lon="7.894308">
        <ele>324.979692</ele>
        <time>2021-08-16T20:36:25.324Z</time>
      </trkpt>
      <trkpt lat="47.550878" lon="7.895158">
        <ele>324.218932</ele>
        <time>2021-08-16T20:36:32.529Z</time>
      </trkpt>
      <trkpt lat="47.550838" lon="7.895509">
        <ele>323.905905</ele>
        <time>2021-08-16T20:36:35.707Z</time>
      </trkpt>
      <trkpt lat="47.550660" lon="7.896255">
        <ele>323.210107</ele>
        <time>2021-08-16T20:36:42.219Z</time>
      </trkpt>
      <trkpt lat="47.550639" lon="7.896345">
        <ele>323.126368</ele>
        <time>2021-08-16T20:36:43.409Z</time>
      </trkpt>
      <trkpt lat="47.550648" lon="7.896481">
        <ele>323.006199</ele>
        <time>2021-08-16T20:36:44.368Z</time>
      </trkpt>
      <trkpt lat="47.550819" lon="7.898109">
        <ele>319.775101</ele>
        <time>2021-08-16T20:36:56.155Z</time>
      </trkpt>
      <trkpt lat="47.550801" lon="7.900244">
        <ele>314.456921</ele>
        <time>2021-08-16T20:37:10.037Z</time>
      </trkpt>
      <trkpt lat="47.550769" lon="7.901362">
        <ele>311.357562</ele>
        <time>2021-08-16T20:37:17.333Z</time>
      </trkpt>
      <trkpt lat="47.550757" lon="7.901591">
        <ele>310.721381</ele>
        <time>2021-08-16T20:37:19.476Z</time>
      </trkpt>
      <trkpt lat="47.550688" lon="7.902451">
        <ele>308.370456</ele>
        <time>2021-08-16T20:37:27.938Z</time>
      </trkpt>
      <trkpt lat="47.550498" lon="7.903445">
        <ele>305.731989</ele>
        <time>2021-08-16T20:37:38.226Z</time>
      </trkpt>
      <trkpt lat="47.550302" lon="7.904164">
        <ele>303.751575</ele>
        <time>2021-08-16T20:37:45.508Z</time>
      </trkpt>
      <trkpt lat="47.550025" lon="7.904774">
        <ele>301.882919</ele>
        <time>2021-08-16T20:37:52.398Z</time>
      </trkpt>
      <trkpt lat="47.549868" lon="7.905010">
        <ele>301.066442</ele>
        <time>2021-08-16T20:37:55.521Z</time>
      </trkpt>
      <trkpt lat="47.549867" lon="7.905155">
        <ele>300.709147</ele>
        <time>2021-08-16T20:37:56.924Z</time>
      </trkpt>
      <trkpt lat="47.550067" lon="7.905245">
        <ele>299.946091</ele>
        <time>2021-08-16T20:37:59.834Z</time>
      </trkpt>
      <trkpt lat="47.550283" lon="7.905413">
        <ele>299.055511</ele>
        <time>2021-08-16T20:38:03.292Z</time>
      </trkpt>
      <trkpt lat="47.550497" lon="7.905558">
        <ele>298.196462</ele>
        <time>2021-08-16T20:38:06.676Z</time>
      </trkpt>
      <trkpt lat="47.550419" lon="7.905808">
        <ele>297.517845</ele>
        <time>2021-08-16T20:38:08.504Z</time>
      </trkpt>
      <trkpt lat="47.549947" lon="7.907319">
        <ele>294.546275</ele>
        <time>2021-08-16T20:38:19.942Z</time>
      </trkpt>
      <trkpt lat="47.549539" lon="7.908625">
        <ele>292.866381</ele>
        <time>2021-08-16T20:38:31.993Z</time>
      </trkpt>
      <trkpt lat="47.549520" lon="7.908678">
        <ele>292.796328</ele>
        <time>2021-08-16T20:38:32.510Z</time>
      </trkpt>
      <trkpt lat="47.549352" lon="7.909234">
        <ele>292.211850</ele>
        <time>2021-08-16T20:38:37.542Z</time>
      </trkpt>
      <trkpt lat="47.549195" lon="7.909756">
        <ele>291.774039</ele>
        <time>2021-08-16T20:38:42.196Z</time>
      </trkpt>
      <trkpt lat="47.549102" lon="7.910058">
        <ele>291.519734</ele>
        <time>2021-08-16T20:38:44.888Z</time>
      </trkpt>
      <trkpt lat="47.549012" lon="7.910340">
        <ele>291.280759</ele>
        <time>2021-08-16T20:38:47.405Z</time>
      </trkpt>
      <trkpt lat="47.548412" lon="7.912168">
        <ele>289.849772</ele>
        <time>2021-08-16T20:39:03.788Z</time>
      </trkpt>
      <trkpt lat="47.548027" lon="7.913334">
        <ele>289.037672</ele>
        <time>2021-08-16T20:39:14.578Z</time>
      </trkpt>
      <trkpt lat="47.547994" lon="7.913433">
        <ele>288.968593</ele>
        <time>2021-08-16T20:39:15.502Z</time>
      </trkpt>
      <trkpt lat="47.547423" lon="7.915080">
        <ele>288.733383</ele>
        <time>2021-08-16T20:39:32.937Z</time>
      </trkpt>
      <trkpt lat="47.547113" lon="7.915971">
        <ele>288.725644</ele>
        <time>2021-08-16T20:39:43.718Z</time>
      </trkpt>
      <trkpt lat="47.547091" lon="7.916039">
        <ele>288.725062</ele>
        <time>2021-08-16T20:39:44.634Z</time>
      </trkpt>
      <trkpt lat="47.547091" lon="7.916039">
        <ele>288.725062</ele>
        <time>2021-08-16T20:39:44.667Z</time>
      </trkpt>
      <trkpt lat="47.547032" lon="7.916218">
        <ele>288.766421</ele>
        <time>2021-08-16T20:39:46.942Z</time>
      </trkpt>
      <trkpt lat="47.546821" lon="7.916867">
        <ele>289.051525</ele>
        <time>2021-08-16T20:39:55.376Z</time>
      </trkpt>
      <trkpt lat="47.546262" lon="7.919081">
        <ele>289.899833</ele>
        <time>2021-08-16T20:40:23.108Z</time>
      </trkpt>
      <trkpt lat="47.546128" lon="7.919617">
        <ele>290.031208</ele>
        <time>2021-08-16T20:40:28.553Z</time>
      </trkpt>
      <trkpt lat="47.545973" lon="7.920313">
        <ele>290.199661</ele>
        <time>2021-08-16T20:40:35.983Z</time>
      </trkpt>
      <trkpt lat="47.545913" lon="7.920765">
        <ele>290.305541</ele>
        <time>2021-08-16T20:40:40.711Z</time>
      </trkpt>
      <trkpt lat="47.545881" lon="7.921096">
        <ele>290.382396</ele>
        <time>2021-08-16T20:40:44.715Z</time>
      </trkpt>
      <trkpt lat="47.545810" lon="7.921755">
        <ele>291.204742</ele>
        <time>2021-08-16T20:40:53.333Z</time>
      </trkpt>
      <trkpt lat="47.545778" lon="7.921947">
        <ele>291.460869</ele>
        <time>2021-08-16T20:40:56.292Z</time>
      </trkpt>
      <trkpt lat="47.545714" lon="7.922249">
        <ele>291.870812</ele>
        <time>2021-08-16T20:41:00.157Z</time>
      </trkpt>
      <trkpt lat="47.545699" lon="7.922325">
        <ele>291.973361</ele>
        <time>2021-08-16T20:41:01.355Z</time>
      </trkpt>
      <trkpt lat="47.545690" lon="7.922369">
        <ele>292.032905</ele>
        <time>2021-08-16T20:41:02.427Z</time>
      </trkpt>
      <trkpt lat="47.545641" lon="7.922610">
        <ele>292.358876</ele>
        <time>2021-08-16T20:41:05.786Z</time>
      </trkpt>
      <trkpt lat="47.545587" lon="7.922895">
        <ele>292.742247</ele>
        <time>2021-08-16T20:41:10.635Z</time>
      </trkpt>
      <trkpt lat="47.545553" lon="7.923142">
        <ele>293.068721</ele>
        <time>2021-08-16T20:41:14.254Z</time>
      </trkpt>
      <trkpt lat="47.545536" lon="7.923407">
        <ele>293.413471</ele>
        <time>2021-08-16T20:41:19.145Z</time>
      </trkpt>
      <trkpt lat="47.545521" lon="7.923709">
        <ele>293.805650</ele>
        <time>2021-08-16T20:41:24.318Z</time>
      </trkpt>
      <trkpt lat="47.545481" lon="7.924396">
        <ele>295.540513</ele>
        <time>2021-08-16T20:41:38.943Z</time>
      </trkpt>
      <trkpt lat="47.545466" lon="7.924880">
        <ele>296.784917</ele>
        <time>2021-08-16T20:41:50.271Z</time>
      </trkpt>
      <trkpt lat="47.545446" lon="7.925350">
        <ele>297.994451</ele>
        <time>2021-08-16T20:42:00.654Z</time>
      </trkpt>
      <trkpt lat="47.545417" lon="7.925848">
        <ele>299.278254</ele>
        <time>2021-08-16T20:42:11.157Z</time>
      </trkpt>
      <trkpt lat="47.545409" lon="7.926773">
        <ele>300.964157</ele>
        <time>2021-08-16T20:42:28.412Z</time>
      </trkpt>
      <trkpt lat="47.545407" lon="7.927001">
        <ele>301.132310</ele>
        <time>2021-08-16T20:42:32.239Z</time>
      </trkpt>
      <trkpt lat="47.545406" lon="7.927306">
        <ele>301.357235</ele>
        <time>2021-08-16T20:42:36.848Z</time>
      </trkpt>
      <trkpt lat="47.545421" lon="7.927686">
        <ele>301.637945</ele>
        <time>2021-08-16T20:42:42.404Z</time>
      </trkpt>
      <trkpt lat="47.545475" lon="7.928419">
        <ele>302.181705</ele>
        <time>2021-08-16T20:42:51.738Z</time>
      </trkpt>
      <trkpt lat="47.545563" lon="7.929641">
        <ele>301.889290</ele>
        <time>2021-08-16T20:43:01.642Z</time>
      </trkpt>
      <trkpt lat="47.545661" lon="7.930955">
        <ele>300.188321</ele>
        <time>2021-08-16T20:43:11.066Z</time>
      </trkpt>
      <trkpt lat="47.545696" lon="7.931497">
        <ele>299.487764</ele>
        <time>2021-08-16T20:43:15.046Z</time>
      </trkpt>
      <trkpt lat="47.545721" lon="7.931992">
        <ele>299.119485</ele>
        <time>2021-08-16T20:43:18.852Z</time>
      </trkpt>
      <trkpt lat="47.545724" lon="7.932758">
        <ele>298.847105</ele>
        <time>2021-08-16T20:43:25.081Z</time>
      </trkpt>
      <trkpt lat="47.545702" lon="7.933290">
        <ele>298.657581</ele>
        <time>2021-08-16T20:43:29.737Z</time>
      </trkpt>
      <trkpt lat="47.545674" lon="7.933625">
        <ele>298.537551</ele>
        <time>2021-08-16T20:43:32.951Z</time>
      </trkpt>
      <trkpt lat="47.545457" lon="7.935110">
        <ele>298.985391</ele>
        <time>2021-08-16T20:43:51.139Z</time>
      </trkpt>
      <trkpt lat="47.545074" lon="7.936484">
        <ele>300.335801</ele>
        <time>2021-08-16T20:44:12.710Z</time>
      </trkpt>
      <trkpt lat="47.544903" lon="7.936917">
        <ele>300.823559</ele>
        <time>2021-08-16T20:44:20.038Z</time>
      </trkpt>
      <trkpt lat="47.544705" lon="7.937395">
        <ele>301.503627</ele>
        <time>2021-08-16T20:44:28.235Z</time>
      </trkpt>
      <trkpt lat="47.544472" lon="7.937932">
        <ele>302.277730</ele>
        <time>2021-08-16T20:44:37.654Z</time>
      </trkpt>
      <trkpt lat="47.543826" lon="7.939433">
        <ele>304.353118</ele>
        <time>2021-08-16T20:45:04.570Z</time>
      </trkpt>
      <trkpt lat="47.543435" lon="7.940670">
        <ele>305.738734</ele>
        <time>2021-08-16T20:45:24.569Z</time>
      </trkpt>
      <trkpt lat="47.543161" lon="7.942213">
        <ele>306.574321</ele>
        <time>2021-08-16T20:45:45.473Z</time>
      </trkpt>
      <trkpt lat="47.543007" lon="7.943867">
        <ele>306.444625</ele>
        <time>2021-08-16T20:46:01.060Z</time>
      </trkpt>
      <trkpt lat="47.542913" lon="7.945267">
        <ele>304.633225</ele>
        <time>2021-08-16T20:46:11.856Z</time>
      </trkpt>
      <trkpt lat="47.542872" lon="7.945781">
        <ele>303.812677</ele>
        <time>2021-08-16T20:46:15.466Z</time>
      </trkpt>
      <trkpt lat="47.542875" lon="7.946089">
        <ele>303.324334</ele>
        <time>2021-08-16T20:46:17.563Z</time>
      </trkpt>
      <trkpt lat="47.542902" lon="7.946514">
        <ele>302.647576</ele>
        <time>2021-08-16T20:46:20.452Z</time>
      </trkpt>
      <trkpt lat="47.542943" lon="7.946806">
        <ele>302.180713</ele>
        <time>2021-08-16T20:46:22.505Z</time>
      </trkpt>
      <trkpt lat="47.542974" lon="7.946965">
        <ele>301.983425</ele>
        <time>2021-08-16T20:46:23.718Z</time>
      </trkpt>
      <trkpt lat="47.542979" lon="7.946989">
        <ele>301.953484</ele>
        <time>2021-08-16T20:46:23.873Z</time>
      </trkpt>
      <trkpt lat="47.543007" lon="7.947104">
        <ele>301.807750</ele>
        <time>2021-08-16T20:46:24.724Z</time>
      </trkpt>
      <trkpt lat="47.543087" lon="7.947317">
        <ele>301.517181</ele>
        <time>2021-08-16T20:46:26.472Z</time>
      </trkpt>
      <trkpt lat="47.543191" lon="7.947615">
        <ele>301.117275</ele>
        <time>2021-08-16T20:46:28.919Z</time>
      </trkpt>
      <trkpt lat="47.543242" lon="7.947745">
        <ele>300.938035</ele>
        <time>2021-08-16T20:46:30.052Z</time>
      </trkpt>
      <trkpt lat="47.543273" lon="7.947816">
        <ele>300.837237</ele>
        <time>2021-08-16T20:46:30.681Z</time>
      </trkpt>
      <trkpt lat="47.543358" lon="7.947967">
        <ele>300.602860</ele>
        <time>2021-08-16T20:46:32.124Z</time>
      </trkpt>
      <trkpt lat="47.543455" lon="7.948127">
        <ele>300.346499</ele>
        <time>2021-08-16T20:46:33.795Z</time>
      </trkpt>
      <trkpt lat="47.543532" lon="7.948214">
        <ele>300.175485</ele>
        <time>2021-08-16T20:46:34.878Z</time>
      </trkpt>
      <trkpt lat="47.543579" lon="7.948287">
        <ele>300.055229</ele>
        <time>2021-08-16T20:46:35.630Z</time>
      </trkpt>
      <trkpt lat="47.543760" lon="7.948548">
        <ele>299.609171</ele>
        <time>2021-08-16T20:46:38.538Z</time>
      </trkpt>
      <trkpt lat="47.543864" lon="7.948694">
        <ele>299.356148</ele>
        <time>2021-08-16T20:46:40.209Z</time>
      </trkpt>
      <trkpt lat="47.544239" lon="7.949202">
        <ele>299.140723</ele>
        <time>2021-08-16T20:46:47.595Z</time>
      </trkpt>
      <trkpt lat="47.544521" lon="7.949558">
        <ele>299.277926</ele>
        <time>2021-08-16T20:46:53.776Z</time>
      </trkpt>
      <trkpt lat="47.544901" lon="7.950044">
        <ele>299.463832</ele>
        <time>2021-08-16T20:47:02.958Z</time>
      </trkpt>
      <trkpt lat="47.545166" lon="7.950366">
        <ele>299.590753</ele>
        <time>2021-08-16T20:47:09.291Z</time>
      </trkpt>
      <trkpt lat="47.545434" lon="7.950668">
        <ele>299.681047</ele>
        <time>2021-08-16T20:47:15.080Z</time>
      </trkpt>
      <trkpt lat="47.545542" lon="7.950842">
        <ele>299.664479</ele>
        <time>2021-08-16T20:47:17.567Z</time>
      </trkpt>
      <trkpt lat="47.545667" lon="7.950979">
        <ele>299.648334</ele>
        <time>2021-08-16T20:47:20.106Z</time>
      </trkpt>
      <trkpt lat="47.545737" lon="7.951055">
        <ele>299.639323</ele>
        <time>2021-08-16T20:47:21.378Z</time>
      </trkpt>
      <trkpt lat="47.545876" lon="7.951233">
        <ele>299.620246</ele>
        <time>2021-08-16T20:47:24.126Z</time>
      </trkpt>
      <trkpt lat="47.546112" lon="7.951485">
        <ele>299.590039</ele>
        <time>2021-08-16T20:47:28.261Z</time>
      </trkpt>
      <trkpt lat="47.546164" lon="7.951520">
        <ele>299.584109</ele>
        <time>2021-08-16T20:47:29.101Z</time>
      </trkpt>
      <trkpt lat="47.546212" lon="7.951535">
        <ele>299.579015</ele>
        <time>2021-08-16T20:47:29.815Z</time>
      </trkpt>
      <trkpt lat="47.546231" lon="7.951558">
        <ele>299.576467</ele>
        <time>2021-08-16T20:47:30.133Z</time>
      </trkpt>
      <trkpt lat="47.546421" lon="7.951793">
        <ele>299.550767</ele>
        <time>2021-08-16T20:47:33.439Z</time>
      </trkpt>
      <trkpt lat="47.546634" lon="7.952024">
        <ele>299.523358</ele>
        <time>2021-08-16T20:47:36.870Z</time>
      </trkpt>
      <trkpt lat="47.546695" lon="7.952091">
        <ele>299.515474</ele>
        <time>2021-08-16T20:47:37.835Z</time>
      </trkpt>
      <trkpt lat="47.546776" lon="7.952185">
        <ele>299.504790</ele>
        <time>2021-08-16T20:47:39.188Z</time>
      </trkpt>
      <trkpt lat="47.546935" lon="7.952372">
        <ele>299.426829</ele>
        <time>2021-08-16T20:47:41.839Z</time>
      </trkpt>
      <trkpt lat="47.547090" lon="7.952543">
        <ele>299.343735</ele>
        <time>2021-08-16T20:47:44.453Z</time>
      </trkpt>
      <trkpt lat="47.547400" lon="7.952910">
        <ele>299.173114</ele>
        <time>2021-08-16T20:47:49.862Z</time>
      </trkpt>
      <trkpt lat="47.547458" lon="7.952975">
        <ele>299.141844</ele>
        <time>2021-08-16T20:47:50.850Z</time>
      </trkpt>
      <trkpt lat="47.547550" lon="7.953078">
        <ele>299.092262</ele>
        <time>2021-08-16T20:47:52.460Z</time>
      </trkpt>
      <trkpt lat="47.547624" lon="7.953160">
        <ele>299.052529</ele>
        <time>2021-08-16T20:47:53.717Z</time>
      </trkpt>
      <trkpt lat="47.547797" lon="7.953355">
        <ele>298.959062</ele>
        <time>2021-08-16T20:47:56.725Z</time>
      </trkpt>
      <trkpt lat="47.547871" lon="7.953437">
        <ele>298.919329</ele>
        <time>2021-08-16T20:47:58.020Z</time>
      </trkpt>
      <trkpt lat="47.547994" lon="7.953584">
        <ele>298.851380</ele>
        <time>2021-08-16T20:48:00.203Z</time>
      </trkpt>
      <trkpt lat="47.548115" lon="7.953729">
        <ele>298.784464</ele>
        <time>2021-08-16T20:48:02.356Z</time>
      </trkpt>
      <trkpt lat="47.548251" lon="7.953895">
        <ele>298.682676</ele>
        <time>2021-08-16T20:48:04.759Z</time>
      </trkpt>
      <trkpt lat="47.548335" lon="7.953779">
        <ele>298.568255</ele>
        <time>2021-08-16T20:48:06.669Z</time>
      </trkpt>
      <trkpt lat="47.549296" lon="7.953268">
        <ele>297.550885</ele>
        <time>2021-08-16T20:48:25.060Z</time>
      </trkpt>
      <trkpt lat="47.549442" lon="7.953195">
        <ele>297.397345</ele>
        <time>2021-08-16T20:48:27.604Z</time>
      </trkpt>
      <trkpt lat="47.549640" lon="7.953086">
        <ele>297.186874</ele>
        <time>2021-08-16T20:48:31.329Z</time>
      </trkpt>
      <trkpt lat="47.549673" lon="7.953076">
        <ele>297.153311</ele>
        <time>2021-08-16T20:48:31.891Z</time>
      </trkpt>
      <trkpt lat="47.549687" lon="7.953071">
        <ele>297.138962</ele>
        <time>2021-08-16T20:48:32.083Z</time>
      </trkpt>
      <trkpt lat="47.550404" lon="7.953070">
        <ele>295.845555</ele>
        <time>2021-08-16T20:48:43.562Z</time>
      </trkpt>
      <trkpt lat="47.550567" lon="7.953069">
        <ele>295.499370</ele>
        <time>2021-08-16T20:48:46.246Z</time>
      </trkpt>
      <trkpt lat="47.550656" lon="7.953072">
        <ele>295.310301</ele>
        <time>2021-08-16T20:48:47.568Z</time>
      </trkpt>
      <trkpt lat="47.550967" lon="7.953063">
        <ele>294.649668</ele>
        <time>2021-08-16T20:48:52.329Z</time>
      </trkpt>
      <trkpt lat="47.551254" lon="7.952986">
        <ele>294.030220</ele>
        <time>2021-08-16T20:48:56.718Z</time>
      </trkpt>
      <trkpt lat="47.551295" lon="7.952900">
        <ele>293.879293</ele>
        <time>2021-08-16T20:48:57.785Z</time>
      </trkpt>
      <trkpt lat="47.551339" lon="7.952761">
        <ele>293.659221</ele>
        <time>2021-08-16T20:48:59.297Z</time>
      </trkpt>
      <trkpt lat="47.551381" lon="7.952341">
        <ele>293.072712</ele>
        <time>2021-08-16T20:49:08.083Z</time>
      </trkpt>
      <trkpt lat="47.551506" lon="7.950255">
        <ele>291.081663</ele>
        <time>2021-08-16T20:49:53.715Z</time>
      </trkpt>
      <trkpt lat="47.551525" lon="7.950027">
        <ele>290.863248</ele>
        <time>2021-08-16T20:49:59.198Z</time>
      </trkpt>
      <trkpt lat="47.551581" lon="7.949830">
        <ele>290.660018</ele>
        <time>2021-08-16T20:50:04.382Z</time>
      </trkpt>
      <trkpt lat="47.551673" lon="7.949634">
        <ele>290.621326</ele>
        <time>2021-08-16T20:50:10.474Z</time>
      </trkpt>
      <trkpt lat="47.551794" lon="7.949387">
        <ele>290.696517</ele>
        <time>2021-08-16T20:50:18.059Z</time>
      </trkpt>
      <trkpt lat="47.552010" lon="7.949039">
        <ele>290.812994</ele>
        <time>2021-08-16T20:50:30.137Z</time>
      </trkpt>
      <trkpt lat="47.552049" lon="7.948982">
        <ele>290.832991</ele>
        <time>2021-08-16T20:50:32.318Z</time>
      </trkpt>
      <trkpt lat="47.552094" lon="7.948926">
        <ele>290.854442</ele>
        <time>2021-08-16T20:50:34.705Z</time>
      </trkpt>
      <trkpt lat="47.552202" lon="7.949003">
        <ele>290.898191</ele>
        <time>2021-08-16T20:50:39.211Z</time>
      </trkpt>
      <trkpt lat="47.552351" lon="7.949099">
        <ele>290.957499</ele>
        <time>2021-08-16T20:50:45.720Z</time>
      </trkpt>
      <trkpt lat="47.552382" lon="7.949119">
        <ele>290.969841</ele>
        <time>2021-08-16T20:50:47.188Z</time>
      </trkpt>
      <trkpt lat="47.552518" lon="7.949236">
        <ele>291.027246</ele>
        <time>2021-08-16T20:50:53.403Z</time>
      </trkpt>
      <trkpt lat="47.552682" lon="7.949062">
        <ele>291.100875</ele>
        <time>2021-08-16T20:51:01.804Z</time>
      </trkpt>
      <trkpt lat="47.552953" lon="7.948775">
        <ele>291.222467</ele>
        <time>2021-08-16T20:51:15.152Z</time>
      </trkpt>
      <trkpt lat="47.553091" lon="7.948644">
        <ele>291.308874</ele>
        <time>2021-08-16T20:51:21.817Z</time>
      </trkpt>
      <trkpt lat="47.553091" lon="7.948644">
        <ele>291.308874</ele>
        <time>2021-08-16T20:51:21.826Z</time>
      </trkpt>
      <trkpt lat="47.553091" lon="7.948645">
        <ele>291.309272</ele>
        <time>2021-08-16T20:51:21.839Z</time>
      </trkpt>
      <trkpt lat="47.553660" lon="7.948141">
        <ele>291.700264</ele>
        <time>2021-08-16T20:51:34.133Z</time>
      </trkpt>
      <trkpt lat="47.554229" lon="7.947637">
        <ele>292.091255</ele>
        <time>2021-08-16T20:51:46.427Z</time>
      </trkpt>
      <trkpt lat="47.554282" lon="7.947594">
        <ele>292.126894</ele>
        <time>2021-08-16T20:51:48.871Z</time>
      </trkpt>
      <trkpt lat="47.554372" lon="7.947483">
        <ele>292.195959</ele>
        <time>2021-08-16T20:51:53.214Z</time>
      </trkpt>
      <trkpt lat="47.554411" lon="7.947434">
        <ele>292.226117</ele>
        <time>2021-08-16T20:51:55.241Z</time>
      </trkpt>
      <trkpt lat="47.554446" lon="7.947485">
        <ele>292.255070</ele>
        <time>2021-08-16T20:51:56.112Z</time>
      </trkpt>
      <trkpt lat="47.554475" lon="7.947529">
        <ele>292.279551</ele>
        <time>2021-08-16T20:51:56.834Z</time>
      </trkpt>
      <trkpt lat="47.554517" lon="7.947576">
        <ele>292.329538</ele>
        <time>2021-08-16T20:51:57.737Z</time>
      </trkpt>
      <trkpt lat="47.554563" lon="7.947632">
        <ele>292.427259</ele>
        <time>2021-08-16T20:51:58.901Z</time>
      </trkpt>
      <trkpt lat="47.554614" lon="7.947707">
        <ele>292.545203</ele>
        <time>2021-08-16T20:52:00.182Z</time>
      </trkpt>
      <trkpt lat="47.554731" lon="7.947945">
        <ele>292.871382</ele>
        <time>2021-08-16T20:52:03.759Z</time>
      </trkpt>
      <trkpt lat="47.554749" lon="7.947993">
        <ele>292.932213</ele>
        <time>2021-08-16T20:52:04.506Z</time>
      </trkpt>
      <trkpt lat="47.554810" lon="7.947963">
        <ele>293.037711</ele>
        <time>2021-08-16T20:52:06.051Z</time>
      </trkpt>
      <trkpt lat="47.554903" lon="7.947916">
        <ele>293.198998</ele>
        <time>2021-08-16T20:52:08.055Z</time>
      </trkpt>
      <trkpt lat="47.554990" lon="7.947878">
        <ele>293.347877</ele>
        <time>2021-08-16T20:52:09.833Z</time>
      </trkpt>
      <trkpt lat="47.555286" lon="7.947750">
        <ele>293.854005</ele>
        <time>2021-08-16T20:52:16.526Z</time>
      </trkpt>
      <trkpt lat="47.555306" lon="7.947738">
        <ele>293.889423</ele>
        <time>2021-08-16T20:52:16.978Z</time>
      </trkpt>
      <trkpt lat="47.555379" lon="7.947702">
        <ele>294.015709</ele>
        <time>2021-08-16T20:52:18.565Z</time>
      </trkpt>
      <trkpt lat="47.555417" lon="7.947683">
        <ele>294.081539</ele>
        <time>2021-08-16T20:52:19.413Z</time>
      </trkpt>
      <trkpt lat="47.555582" lon="7.947589">
        <ele>294.371701</ele>
        <time>2021-08-16T20:52:23.781Z</time>
      </trkpt>
      <trkpt lat="47.555636" lon="7.947544">
        <ele>294.473394</ele>
        <time>2021-08-16T20:52:25.207Z</time>
      </trkpt>
      <trkpt lat="47.555751" lon="7.947427">
        <ele>294.702369</ele>
        <time>2021-08-16T20:52:28.364Z</time>
      </trkpt>
      <trkpt lat="47.555846" lon="7.947320">
        <ele>294.898239</ele>
        <time>2021-08-16T20:52:31.512Z</time>
      </trkpt>
      <trkpt lat="47.555912" lon="7.947254">
        <ele>295.028935</ele>
        <time>2021-08-16T20:52:33.308Z</time>
      </trkpt>
      <trkpt lat="47.556009" lon="7.947161">
        <ele>295.218576</ele>
        <time>2021-08-16T20:52:35.820Z</time>
      </trkpt>
      <trkpt lat="47.556050" lon="7.947125">
        <ele>295.317113</ele>
        <time>2021-08-16T20:52:36.913Z</time>
      </trkpt>
      <trkpt lat="47.556160" lon="7.947027">
        <ele>295.623951</ele>
        <time>2021-08-16T20:52:40.314Z</time>
      </trkpt>
      <trkpt lat="47.556716" lon="7.946585">
        <ele>297.132334</ele>
        <time>2021-08-16T20:52:55.141Z</time>
      </trkpt>
      <trkpt lat="47.556890" lon="7.946422">
        <ele>297.624454</ele>
        <time>2021-08-16T20:53:00.308Z</time>
      </trkpt>
      <trkpt lat="47.557026" lon="7.946287">
        <ele>298.015786</ele>
        <time>2021-08-16T20:53:04.205Z</time>
      </trkpt>
      <trkpt lat="47.557115" lon="7.946255">
        <ele>298.234724</ele>
        <time>2021-08-16T20:53:06.588Z</time>
      </trkpt>
      <trkpt lat="47.557303" lon="7.946078">
        <ele>298.767203</ele>
        <time>2021-08-16T20:53:11.804Z</time>
      </trkpt>
      <trkpt lat="47.557371" lon="7.946013">
        <ele>298.960653</ele>
        <time>2021-08-16T20:53:13.938Z</time>
      </trkpt>
      <trkpt lat="47.557460" lon="7.945924">
        <ele>299.217333</ele>
        <time>2021-08-16T20:53:16.632Z</time>
      </trkpt>
      <trkpt lat="47.557555" lon="7.945842">
        <ele>299.480162</ele>
        <time>2021-08-16T20:53:19.245Z</time>
      </trkpt>
      <trkpt lat="47.557631" lon="7.945782">
        <ele>299.798244</ele>
        <time>2021-08-16T20:53:21.274Z</time>
      </trkpt>
      <trkpt lat="47.557744" lon="7.945674">
        <ele>300.389162</ele>
        <time>2021-08-16T20:53:24.676Z</time>
      </trkpt>
      <trkpt lat="47.557910" lon="7.945625">
        <ele>301.132992</ele>
        <time>2021-08-16T20:53:29.061Z</time>
      </trkpt>
      <trkpt lat="47.558009" lon="7.945617">
        <ele>301.568700</ele>
        <time>2021-08-16T20:53:31.749Z</time>
      </trkpt>
      <trkpt lat="47.558102" lon="7.945615">
        <ele>301.977437</ele>
        <time>2021-08-16T20:53:34.332Z</time>
      </trkpt>
      <trkpt lat="47.558161" lon="7.945614">
        <ele>302.236734</ele>
        <time>2021-08-16T20:53:36.122Z</time>
      </trkpt>
      <trkpt lat="47.558415" lon="7.945666">
        <ele>303.363555</ele>
        <time>2021-08-16T20:53:43.937Z</time>
      </trkpt>
      <trkpt lat="47.558540" lon="7.945722">
        <ele>303.937431</ele>
        <time>2021-08-16T20:53:47.623Z</time>
      </trkpt>
      <trkpt lat="47.558608" lon="7.945765">
        <ele>304.262332</ele>
        <time>2021-08-16T20:53:50.532Z</time>
      </trkpt>
      <trkpt lat="47.558700" lon="7.945825">
        <ele>304.704056</ele>
        <time>2021-08-16T20:53:53.780Z</time>
      </trkpt>
      <trkpt lat="47.558739" lon="7.945644">
        <ele>305.267527</ele>
        <time>2021-08-16T20:53:58.026Z</time>
      </trkpt>
      <trkpt lat="47.558781" lon="7.945419">
        <ele>305.959844</ele>
        <time>2021-08-16T20:54:03.935Z</time>
      </trkpt>
      <trkpt lat="47.558967" lon="7.945068">
        <ele>307.283341</ele>
        <time>2021-08-16T20:54:15.188Z</time>
      </trkpt>
      <trkpt lat="47.559249" lon="7.944727">
        <ele>310.070828</ele>
        <time>2021-08-16T20:54:30.596Z</time>
      </trkpt>
      <trkpt lat="47.559263" lon="7.944710">
        <ele>310.216614</ele>
        <time>2021-08-16T20:54:32.170Z</time>
      </trkpt>
      <trkpt lat="47.559609" lon="7.944534">
        <ele>313.163070</ele>
        <time>2021-08-16T20:54:49.967Z</time>
      </trkpt>
      <trkpt lat="47.559774" lon="7.944500">
        <ele>314.504841</ele>
        <time>2021-08-16T20:54:57.430Z</time>
      </trkpt>
      <trkpt lat="47.559855" lon="7.944533">
        <ele>315.181459</ele>
        <time>2021-08-16T20:55:01.917Z</time>
      </trkpt>
      <trkpt lat="47.560106" lon="7.944624">
        <ele>317.262752</ele>
        <time>2021-08-16T20:55:14.644Z</time>
      </trkpt>
      <trkpt lat="47.560144" lon="7.944665">
        <ele>317.641353</ele>
        <time>2021-08-16T20:55:17.640Z</time>
      </trkpt>
      <trkpt lat="47.560288" lon="7.944850">
        <ele>319.176381</ele>
        <time>2021-08-16T20:55:27.717Z</time>
      </trkpt>
      <trkpt lat="47.560464" lon="7.945085">
        <ele>321.084520</ele>
        <time>2021-08-16T20:55:39.516Z</time>
      </trkpt>
      <trkpt lat="47.560632" lon="7.945223">
        <ele>322.524338</ele>
        <time>2021-08-16T20:55:48.271Z</time>
      </trkpt>
      <trkpt lat="47.560748" lon="7.945268">
        <ele>323.339534</ele>
        <time>2021-08-16T20:55:54.272Z</time>
      </trkpt>
      <trkpt lat="47.560884" lon="7.945275">
        <ele>324.264683</ele>
        <time>2021-08-16T20:56:00.307Z</time>
      </trkpt>
      <trkpt lat="47.561051" lon="7.945242">
        <ele>325.410076</ele>
        <time>2021-08-16T20:56:07.615Z</time>
      </trkpt>
      <trkpt lat="47.561253" lon="7.945105">
        <ele>326.920355</ele>
        <time>2021-08-16T20:56:17.639Z</time>
      </trkpt>
      <trkpt lat="47.561549" lon="7.944844">
        <ele>329.261983</ele>
        <time>2021-08-16T20:56:31.749Z</time>
      </trkpt>
      <trkpt lat="47.561590" lon="7.944808">
        <ele>329.585973</ele>
        <time>2021-08-16T20:56:33.224Z</time>
      </trkpt>
      <trkpt lat="47.561884" lon="7.944575">
        <ele>331.852591</ele>
        <time>2021-08-16T20:56:47.475Z</time>
      </trkpt>
      <trkpt lat="47.562104" lon="7.944442">
        <ele>333.467919</ele>
        <time>2021-08-16T20:56:56.516Z</time>
      </trkpt>
      <trkpt lat="47.562431" lon="7.944285">
        <ele>334.916684</ele>
        <time>2021-08-16T20:57:09.197Z</time>
      </trkpt>
      <trkpt lat="47.562993" lon="7.944148">
        <ele>336.683317</ele>
        <time>2021-08-16T20:57:27.073Z</time>
      </trkpt>
      <trkpt lat="47.563121" lon="7.944175">
        <ele>337.084347</ele>
        <time>2021-08-16T20:57:29.318Z</time>
      </trkpt>
      <trkpt lat="47.563250" lon="7.944210">
        <ele>337.491129</ele>
        <time>2021-08-16T20:57:33.647Z</time>
      </trkpt>
      <trkpt lat="47.563376" lon="7.944323">
        <ele>337.947946</ele>
        <time>2021-08-16T20:57:35.646Z</time>
      </trkpt>
      <trkpt lat="47.563617" lon="7.944825">
        <ele>339.237422</ele>
        <time>2021-08-16T20:57:43.449Z</time>
      </trkpt>
      <trkpt lat="47.563643" lon="7.944887">
        <ele>339.390207</ele>
        <time>2021-08-16T20:57:45.420Z</time>
      </trkpt>
      <trkpt lat="47.563643" lon="7.944887">
        <ele>339.390207</ele>
        <time>2021-08-16T20:57:45.584Z</time>
      </trkpt>
      <trkpt lat="47.563685" lon="7.944852">
        <ele>339.539665</ele>
        <time>2021-08-16T20:57:46.494Z</time>
      </trkpt>
      <trkpt lat="47.563821" lon="7.944614">
        <ele>340.136058</ele>
        <time>2021-08-16T20:57:49.730Z</time>
      </trkpt>
      <trkpt lat="47.563801" lon="7.944401">
        <ele>340.528753</ele>
        <time>2021-08-16T20:57:53.869Z</time>
      </trkpt>
      <trkpt lat="47.563689" lon="7.944279">
        <ele>340.904911</ele>
        <time>2021-08-16T20:57:57.723Z</time>
      </trkpt>
      <trkpt lat="47.563649" lon="7.944253">
        <ele>341.023112</ele>
        <time>2021-08-16T20:57:58.235Z</time>
      </trkpt>
      <trkpt lat="47.563594" lon="7.944220">
        <ele>341.183688</ele>
        <time>2021-08-16T20:57:58.922Z</time>
      </trkpt>
      <trkpt lat="47.563429" lon="7.944021">
        <ele>341.759386</ele>
        <time>2021-08-16T20:58:05.195Z</time>
      </trkpt>
      <trkpt lat="47.563413" lon="7.943822">
        <ele>342.125342</ele>
        <time>2021-08-16T20:58:07.512Z</time>
      </trkpt>
      <trkpt lat="47.563464" lon="7.943662">
        <ele>342.448469</ele>
        <time>2021-08-16T20:58:10.860Z</time>
      </trkpt>
      <trkpt lat="47.563511" lon="7.943574">
        <ele>342.653407</ele>
        <time>2021-08-16T20:58:11.707Z</time>
      </trkpt>
      <trkpt lat="47.563601" lon="7.943496">
        <ele>342.935553</ele>
        <time>2021-08-16T20:58:14.436Z</time>
      </trkpt>
      <trkpt lat="47.563719" lon="7.943365">
        <ele>343.334543</ele>
        <time>2021-08-16T20:58:18.204Z</time>
      </trkpt>
      <trkpt lat="47.563845" lon="7.943225">
        <ele>343.760714</ele>
        <time>2021-08-16T20:58:21.954Z</time>
      </trkpt>
      <trkpt lat="47.564097" lon="7.942881">
        <ele>344.804252</ele>
        <time>2021-08-16T20:58:32.396Z</time>
      </trkpt>
      <trkpt lat="47.564121" lon="7.942841">
        <ele>345.064668</ele>
        <time>2021-08-16T20:58:34.482Z</time>
      </trkpt>
      <trkpt lat="47.564135" lon="7.942819">
        <ele>345.211793</ele>
        <time>2021-08-16T20:58:34.818Z</time>
      </trkpt>
      <trkpt lat="47.564264" lon="7.942637">
        <ele>346.495992</ele>
        <time>2021-08-16T20:58:41.477Z</time>
      </trkpt>
      <trkpt lat="47.564507" lon="7.942214">
        <ele>349.198771</ele>
        <time>2021-08-16T20:58:57.272Z</time>
      </trkpt>
      <trkpt lat="47.564693" lon="7.942033">
        <ele>350.803137</ele>
        <time>2021-08-16T20:59:06.500Z</time>
      </trkpt>
      <trkpt lat="47.564814" lon="7.941979">
        <ele>351.714271</ele>
        <time>2021-08-16T20:59:13.446Z</time>
      </trkpt>
      <trkpt lat="47.564898" lon="7.941972">
        <ele>352.320885</ele>
        <time>2021-08-16T20:59:17.498Z</time>
      </trkpt>
      <trkpt lat="47.565002" lon="7.941980">
        <ele>353.071757</ele>
        <time>2021-08-16T20:59:22.768Z</time>
      </trkpt>
      <trkpt lat="47.565144" lon="7.942041">
        <ele>354.137750</ele>
        <time>2021-08-16T20:59:31.298Z</time>
      </trkpt>
      <trkpt lat="47.565593" lon="7.942200">
        <ele>357.466269</ele>
        <time>2021-08-16T20:59:53.250Z</time>
      </trkpt>
      <trkpt lat="47.566242" lon="7.941972">
        <ele>361.057286</ele>
        <time>2021-08-16T21:00:24.419Z</time>
      </trkpt>
      <trkpt lat="47.566527" lon="7.941959">
        <ele>362.579082</ele>
        <time>2021-08-16T21:00:36.651Z</time>
      </trkpt>
      <trkpt lat="47.567279" lon="7.942328">
        <ele>366.806840</ele>
        <time>2021-08-16T21:00:56.476Z</time>
      </trkpt>
      <trkpt lat="47.567412" lon="7.942343">
        <ele>367.316152</ele>
        <time>2021-08-16T21:01:00.809Z</time>
      </trkpt>
      <trkpt lat="47.567471" lon="7.942315">
        <ele>367.445417</ele>
        <time>2021-08-16T21:01:02.212Z</time>
      </trkpt>
      <trkpt lat="47.567523" lon="7.942285">
        <ele>367.561849</ele>
        <time>2021-08-16T21:01:03.293Z</time>
      </trkpt>
      <trkpt lat="47.567949" lon="7.942100">
        <ele>368.488099</ele>
        <time>2021-08-16T21:01:14.722Z</time>
      </trkpt>
      <trkpt lat="47.568118" lon="7.941960">
        <ele>368.892073</ele>
        <time>2021-08-16T21:01:19.340Z</time>
      </trkpt>
      <trkpt lat="47.568200" lon="7.941896">
        <ele>369.085446</ele>
        <time>2021-08-16T21:01:21.052Z</time>
      </trkpt>
      <trkpt lat="47.568271" lon="7.941748">
        <ele>369.341104</ele>
        <time>2021-08-16T21:01:23.920Z</time>
      </trkpt>
      <trkpt lat="47.568317" lon="7.941562">
        <ele>369.619997</ele>
        <time>2021-08-16T21:01:27.111Z</time>
      </trkpt>
      <trkpt lat="47.568379" lon="7.941267">
        <ele>370.054989</ele>
        <time>2021-08-16T21:01:31.028Z</time>
      </trkpt>
      <trkpt lat="47.568448" lon="7.941044">
        <ele>370.400373</ele>
        <time>2021-08-16T21:01:34.831Z</time>
      </trkpt>
      <trkpt lat="47.568494" lon="7.940909">
        <ele>370.613291</ele>
        <time>2021-08-16T21:01:36.630Z</time>
      </trkpt>
      <trkpt lat="47.568520" lon="7.940846">
        <ele>370.717260</ele>
        <time>2021-08-16T21:01:37.747Z</time>
      </trkpt>
      <trkpt lat="47.568598" lon="7.940707">
        <ele>371.012897</ele>
        <time>2021-08-16T21:01:39.888Z</time>
      </trkpt>
      <trkpt lat="47.569027" lon="7.940428">
        <ele>373.220417</ele>
        <time>2021-08-16T21:01:49.884Z</time>
      </trkpt>
      <trkpt lat="47.569418" lon="7.940363">
        <ele>375.074385</ele>
        <time>2021-08-16T21:02:00.932Z</time>
      </trkpt>
      <trkpt lat="47.570390" lon="7.940352">
        <ele>379.774545</ele>
        <time>2021-08-16T21:02:42.316Z</time>
      </trkpt>
      <trkpt lat="47.570745" lon="7.940187">
        <ele>382.402701</ele>
        <time>2021-08-16T21:02:58.726Z</time>
      </trkpt>
      <trkpt lat="47.570849" lon="7.940098">
        <ele>383.251025</ele>
        <time>2021-08-16T21:03:04.742Z</time>
      </trkpt>
      <trkpt lat="47.570920" lon="7.939991">
        <ele>383.966295</ele>
        <time>2021-08-16T21:03:10.671Z</time>
      </trkpt>
      <trkpt lat="47.570986" lon="7.939853">
        <ele>384.772485</ele>
        <time>2021-08-16T21:03:14.906Z</time>
      </trkpt>
      <trkpt lat="47.571121" lon="7.939531">
        <ele>386.579296</ele>
        <time>2021-08-16T21:03:26.852Z</time>
      </trkpt>
      <trkpt lat="47.571321" lon="7.939067">
        <ele>389.203478</ele>
        <time>2021-08-16T21:03:41.892Z</time>
      </trkpt>
      <trkpt lat="47.571744" lon="7.938297">
        <ele>393.016119</ele>
        <time>2021-08-16T21:04:09.717Z</time>
      </trkpt>
      <trkpt lat="47.571792" lon="7.938168">
        <ele>393.362562</ele>
        <time>2021-08-16T21:04:14.392Z</time>
      </trkpt>
      <trkpt lat="47.571814" lon="7.938108">
        <ele>393.523153</ele>
        <time>2021-08-16T21:04:15.579Z</time>
      </trkpt>
      <trkpt lat="47.571801" lon="7.937977">
        <ele>393.834535</ele>
        <time>2021-08-16T21:04:18.885Z</time>
      </trkpt>
      <trkpt lat="47.571801" lon="7.937977">
        <ele>393.834535</ele>
        <time>2021-08-16T21:04:18.892Z</time>
      </trkpt>
      <trkpt lat="47.571801" lon="7.937977">
        <ele>393.834535</ele>
        <time>2021-08-16T21:04:18.932Z</time>
      </trkpt>
      <trkpt lat="47.571814" lon="7.938108">
        <ele>394.145916</ele>
        <time>2021-08-16T21:04:21.956Z</time>
      </trkpt>
      <trkpt lat="47.571837" lon="7.938094">
        <ele>394.232583</ele>
        <time>2021-08-16T21:04:22.198Z</time>
      </trkpt>
      <trkpt lat="47.571892" lon="7.938121">
        <ele>394.434536</ele>
        <time>2021-08-16T21:04:24.891Z</time>
      </trkpt>
      <trkpt lat="47.572087" lon="7.938259">
        <ele>395.187738</ele>
        <time>2021-08-16T21:04:31.152Z</time>
      </trkpt>
      <trkpt lat="47.572457" lon="7.938598">
        <ele>396.703932</ele>
        <time>2021-08-16T21:04:41.957Z</time>
      </trkpt>
      <trkpt lat="47.572709" lon="7.938608">
        <ele>397.582633</ele>
        <time>2021-08-16T21:04:47.553Z</time>
      </trkpt>
      <trkpt lat="47.572910" lon="7.938451">
        <ele>398.374576</ele>
        <time>2021-08-16T21:04:51.878Z</time>
      </trkpt>
      <trkpt lat="47.573038" lon="7.938150">
        <ele>398.991472</ele>
        <time>2021-08-16T21:04:54.945Z</time>
      </trkpt>
      <trkpt lat="47.573051" lon="7.938005">
        <ele>399.243426</ele>
        <time>2021-08-16T21:04:56.597Z</time>
      </trkpt>
      <trkpt lat="47.573078" lon="7.937709">
        <ele>399.757918</ele>
        <time>2021-08-16T21:04:59.704Z</time>
      </trkpt>
      <trkpt lat="47.573036" lon="7.937429">
        <ele>400.251988</ele>
        <time>2021-08-16T21:05:04.622Z</time>
      </trkpt>
      <trkpt lat="47.573024" lon="7.937357">
        <ele>400.379735</ele>
        <time>2021-08-16T21:05:05.535Z</time>
      </trkpt>
      <trkpt lat="47.573010" lon="7.937121">
        <ele>400.787808</ele>
        <time>2021-08-16T21:05:09.693Z</time>
      </trkpt>
      <trkpt lat="47.573010" lon="7.936978">
        <ele>401.034122</ele>
        <time>2021-08-16T21:05:12.029Z</time>
      </trkpt>
      <trkpt lat="47.573124" lon="7.936542">
        <ele>401.839550</ele>
        <time>2021-08-16T21:05:20.693Z</time>
      </trkpt>
      <trkpt lat="47.573179" lon="7.936342">
        <ele>402.211565</ele>
        <time>2021-08-16T21:05:25.152Z</time>
      </trkpt>
      <trkpt lat="47.573277" lon="7.936016">
        <ele>402.826312</ele>
        <time>2021-08-16T21:05:32.901Z</time>
      </trkpt>
      <trkpt lat="47.573388" lon="7.935781">
        <ele>403.921308</ele>
        <time>2021-08-16T21:05:38.797Z</time>
      </trkpt>
      <trkpt lat="47.573432" lon="7.935767">
        <ele>404.240088</ele>
        <time>2021-08-16T21:05:40.918Z</time>
      </trkpt>
      <trkpt lat="47.573597" lon="7.935752">
        <ele>405.411083</ele>
        <time>2021-08-16T21:05:46.743Z</time>
      </trkpt>
      <trkpt lat="47.573935" lon="7.935634">
        <ele>407.870861</ele>
        <time>2021-08-16T21:05:58.851Z</time>
      </trkpt>
      <trkpt lat="47.574115" lon="7.935550">
        <ele>409.207613</ele>
        <time>2021-08-16T21:06:06.439Z</time>
      </trkpt>
      <trkpt lat="47.574365" lon="7.935391">
        <ele>411.134649</ele>
        <time>2021-08-16T21:06:18.381Z</time>
      </trkpt>
      <trkpt lat="47.574919" lon="7.934783">
        <ele>416.152874</ele>
        <time>2021-08-16T21:06:54.751Z</time>
      </trkpt>
      <trkpt lat="47.575144" lon="7.934641">
        <ele>418.680535</ele>
        <time>2021-08-16T21:07:08.465Z</time>
      </trkpt>
      <trkpt lat="47.576460" lon="7.934694">
        <ele>432.287994</ele>
        <time>2021-08-16T21:08:23.944Z</time>
      </trkpt>
      <trkpt lat="47.577613" lon="7.934227">
        <ele>442.083168</ele>
        <time>2021-08-16T21:09:30.201Z</time>
      </trkpt>
      <trkpt lat="47.578335" lon="7.934175">
        <ele>447.703337</ele>
        <time>2021-08-16T21:09:58.097Z</time>
      </trkpt>
      <trkpt lat="47.578634" lon="7.934108">
        <ele>448.108832</ele>
        <time>2021-08-16T21:10:07.071Z</time>
      </trkpt>
      <trkpt lat="47.578958" lon="7.933883">
        <ele>447.808660</ele>
        <time>2021-08-16T21:10:14.565Z</time>
      </trkpt>
      <trkpt lat="47.579132" lon="7.933628">
        <ele>447.603387</ele>
        <time>2021-08-16T21:10:17.843Z</time>
      </trkpt>
      <trkpt lat="47.579242" lon="7.933285">
        <ele>447.388449</ele>
        <time>2021-08-16T21:10:20.909Z</time>
      </trkpt>
      <trkpt lat="47.579658" lon="7.932985">
        <ele>447.000334</ele>
        <time>2021-08-16T21:10:25.583Z</time>
      </trkpt>
      <trkpt lat="47.579800" lon="7.932767">
        <ele>446.828830</ele>
        <time>2021-08-16T21:10:27.486Z</time>
      </trkpt>
      <trkpt lat="47.579974" lon="7.931980">
        <ele>444.568661</ele>
        <time>2021-08-16T21:10:32.636Z</time>
      </trkpt>
      <trkpt lat="47.580010" lon="7.931498">
        <ele>443.148698</ele>
        <time>2021-08-16T21:10:35.824Z</time>
      </trkpt>
      <trkpt lat="47.580072" lon="7.931374">
        <ele>442.696749</ele>
        <time>2021-08-16T21:10:36.830Z</time>
      </trkpt>
      <trkpt lat="47.579993" lon="7.931259">
        <ele>442.216145</ele>
        <time>2021-08-16T21:10:37.856Z</time>
      </trkpt>
      <trkpt lat="47.579994" lon="7.931052">
        <ele>441.610015</ele>
        <time>2021-08-16T21:10:39.322Z</time>
      </trkpt>
      <trkpt lat="47.580006" lon="7.930973">
        <ele>441.372904</ele>
        <time>2021-08-16T21:10:39.794Z</time>
      </trkpt>
      <trkpt lat="47.580023" lon="7.930898">
        <ele>441.141231</ele>
        <time>2021-08-16T21:10:41.020Z</time>
      </trkpt>
      <trkpt lat="47.580257" lon="7.930531">
        <ele>439.662553</ele>
        <time>2021-08-16T21:10:44.361Z</time>
      </trkpt>
      <trkpt lat="47.580447" lon="7.930346">
        <ele>438.678269</ele>
        <time>2021-08-16T21:10:46.686Z</time>
      </trkpt>
      <trkpt lat="47.580995" lon="7.929985">
        <ele>436.096031</ele>
        <time>2021-08-16T21:10:52.674Z</time>
      </trkpt>
      <trkpt lat="47.581097" lon="7.929860">
        <ele>435.526165</ele>
        <time>2021-08-16T21:10:54.081Z</time>
      </trkpt>
      <trkpt lat="47.581284" lon="7.929390">
        <ele>433.941185</ele>
        <time>2021-08-16T21:10:58.071Z</time>
      </trkpt>
      <trkpt lat="47.581405" lon="7.929209">
        <ele>433.200991</ele>
        <time>2021-08-16T21:10:59.651Z</time>
      </trkpt>
      <trkpt lat="47.581847" lon="7.929069">
        <ele>431.254734</ele>
        <time>2021-08-16T21:11:03.793Z</time>
      </trkpt>
      <trkpt lat="47.582473" lon="7.929048">
        <ele>425.756655</ele>
        <time>2021-08-16T21:11:09.347Z</time>
      </trkpt>
      <trkpt lat="47.582622" lon="7.928957">
        <ele>424.336829</ele>
        <time>2021-08-16T21:11:10.770Z</time>
      </trkpt>
      <trkpt lat="47.582695" lon="7.928831">
        <ele>423.349705</ele>
        <time>2021-08-16T21:11:11.754Z</time>
      </trkpt>
      <trkpt lat="47.582659" lon="7.928638">
        <ele>422.159651</ele>
        <time>2021-08-16T21:11:12.902Z</time>
      </trkpt>
      <trkpt lat="47.582273" lon="7.928381">
        <ele>418.431497</ele>
        <time>2021-08-16T21:11:16.562Z</time>
      </trkpt>
      <trkpt lat="47.582118" lon="7.928218">
        <ele>416.757149</ele>
        <time>2021-08-16T21:11:18.202Z</time>
      </trkpt>
      <trkpt lat="47.581992" lon="7.927950">
        <ele>414.882617</ele>
        <time>2021-08-16T21:11:20.094Z</time>
      </trkpt>
      <trkpt lat="47.581995" lon="7.926846">
        <ele>409.086748</ele>
        <time>2021-08-16T21:11:26.506Z</time>
      </trkpt>
      <trkpt lat="47.581800" lon="7.926344">
        <ele>406.045568</ele>
        <time>2021-08-16T21:11:30.020Z</time>
      </trkpt>
      <trkpt lat="47.581805" lon="7.926181">
        <ele>405.188957</ele>
        <time>2021-08-16T21:11:31.027Z</time>
      </trkpt>
      <trkpt lat="47.581876" lon="7.926030">
        <ele>404.222639</ele>
        <time>2021-08-16T21:11:32.170Z</time>
      </trkpt>
      <trkpt lat="47.582115" lon="7.925927">
        <ele>402.285522</ele>
        <time>2021-08-16T21:11:34.503Z</time>
      </trkpt>
      <trkpt lat="47.582530" lon="7.925958">
        <ele>399.969406</ele>
        <time>2021-08-16T21:11:38.503Z</time>
      </trkpt>
      <trkpt lat="47.583414" lon="7.926287">
        <ele>395.659224</ele>
        <time>2021-08-16T21:11:47.487Z</time>
      </trkpt>
      <trkpt lat="47.583852" lon="7.926374">
        <ele>393.569398</ele>
        <time>2021-08-16T21:11:51.679Z</time>
      </trkpt>
      <trkpt lat="47.583992" lon="7.926334">
        <ele>392.895151</ele>
        <time>2021-08-16T21:11:53.000Z</time>
      </trkpt>
      <trkpt lat="47.584034" lon="7.926155">
        <ele>391.623247</ele>
        <time>2021-08-16T21:11:54.178Z</time>
      </trkpt>
      <trkpt lat="47.583971" lon="7.926018">
        <ele>390.500445</ele>
        <time>2021-08-16T21:11:55.198Z</time>
      </trkpt>
      <trkpt lat="47.583566" lon="7.925993">
        <ele>386.430979</ele>
        <time>2021-08-16T21:11:58.785Z</time>
      </trkpt>
      <trkpt lat="47.583411" lon="7.925756">
        <ele>384.195551</ele>
        <time>2021-08-16T21:12:00.715Z</time>
      </trkpt>
      <trkpt lat="47.583137" lon="7.924549">
        <ele>375.571594</ele>
        <time>2021-08-16T21:12:07.993Z</time>
      </trkpt>
      <trkpt lat="47.582665" lon="7.923021">
        <ele>361.303202</ele>
        <time>2021-08-16T21:12:17.474Z</time>
      </trkpt>
      <trkpt lat="47.582576" lon="7.922638">
        <ele>357.815277</ele>
        <time>2021-08-16T21:12:19.761Z</time>
      </trkpt>
      <trkpt lat="47.582488" lon="7.920818">
        <ele>346.329194</ele>
        <time>2021-08-16T21:12:30.398Z</time>
      </trkpt>
      <trkpt lat="47.582514" lon="7.920438">
        <ele>344.463508</ele>
        <time>2021-08-16T21:12:32.728Z</time>
      </trkpt>
      <trkpt lat="47.582597" lon="7.920223">
        <ele>343.253479</ele>
        <time>2021-08-16T21:12:34.259Z</time>
      </trkpt>
      <trkpt lat="47.582817" lon="7.920201">
        <ele>341.656716</ele>
        <time>2021-08-16T21:12:36.350Z</time>
      </trkpt>
      <trkpt lat="47.582910" lon="7.920248">
        <ele>340.945196</ele>
        <time>2021-08-16T21:12:37.293Z</time>
      </trkpt>
      <trkpt lat="47.583166" lon="7.920334">
        <ele>339.044359</ele>
        <time>2021-08-16T21:12:39.821Z</time>
      </trkpt>
      <trkpt lat="47.583279" lon="7.920234">
        <ele>338.578101</ele>
        <time>2021-08-16T21:12:41.104Z</time>
      </trkpt>
      <trkpt lat="47.583623" lon="7.919916">
        <ele>337.542744</ele>
        <time>2021-08-16T21:12:45.291Z</time>
      </trkpt>
      <trkpt lat="47.583975" lon="7.919617">
        <ele>336.506652</ele>
        <time>2021-08-16T21:12:49.844Z</time>
      </trkpt>
      <trkpt lat="47.584708" lon="7.919278">
        <ele>334.545636</ele>
        <time>2021-08-16T21:12:58.263Z</time>
      </trkpt>
      <trkpt lat="47.585010" lon="7.918940">
        <ele>333.793409</ele>
        <time>2021-08-16T21:13:02.233Z</time>
      </trkpt>
      <trkpt lat="47.585624" lon="7.918060">
        <ele>332.309104</ele>
        <time>2021-08-16T21:13:11.621Z</time>
      </trkpt>
      <trkpt lat="47.585929" lon="7.917570">
        <ele>331.527443</ele>
        <time>2021-08-16T21:13:16.837Z</time>
      </trkpt>
      <trkpt lat="47.586029" lon="7.917411">
        <ele>331.272584</ele>
        <time>2021-08-16T21:13:18.537Z</time>
      </trkpt>
      <trkpt lat="47.586246" lon="7.917094">
        <ele>331.042725</ele>
        <time>2021-08-16T21:13:22.317Z</time>
      </trkpt>
      <trkpt lat="47.586364" lon="7.917048">
        <ele>330.997713</ele>
        <time>2021-08-16T21:13:23.957Z</time>
      </trkpt>
      <trkpt lat="47.587522" lon="7.917098">
        <ele>330.570324</ele>
        <time>2021-08-16T21:13:39.788Z</time>
      </trkpt>
      <trkpt lat="47.587965" lon="7.917099">
        <ele>330.416701</ele>
        <time>2021-08-16T21:13:46.931Z</time>
      </trkpt>
      <trkpt lat="47.588625" lon="7.917131">
        <ele>330.218157</ele>
        <time>2021-08-16T21:13:57.646Z</time>
      </trkpt>
      <trkpt lat="47.588687" lon="7.917138">
        <ele>330.199462</ele>
        <time>2021-08-16T21:13:58.583Z</time>
      </trkpt>
      <trkpt lat="47.589219" lon="7.917013">
        <ele>330.037513</ele>
        <time>2021-08-16T21:14:06.938Z</time>
      </trkpt>
      <trkpt lat="47.589612" lon="7.916997">
        <ele>329.919307</ele>
        <time>2021-08-16T21:14:11.775Z</time>
      </trkpt>
      <trkpt lat="47.590043" lon="7.917014">
        <ele>328.027598</ele>
        <time>2021-08-16T21:14:16.378Z</time>
      </trkpt>
      <trkpt lat="47.590258" lon="7.917024">
        <ele>327.082529</ele>
        <time>2021-08-16T21:14:18.502Z</time>
      </trkpt>
      <trkpt lat="47.590496" lon="7.917018">
        <ele>326.036722</ele>
        <time>2021-08-16T21:14:20.779Z</time>
      </trkpt>
      <trkpt lat="47.590600" lon="7.916970">
        <ele>325.558173</ele>
        <time>2021-08-16T21:14:21.824Z</time>
      </trkpt>
      <trkpt lat="47.590677" lon="7.916856">
        <ele>325.080103</ele>
        <time>2021-08-16T21:14:22.850Z</time>
      </trkpt>
      <trkpt lat="47.590714" lon="7.916644">
        <ele>324.431237</ele>
        <time>2021-08-16T21:14:24.214Z</time>
      </trkpt>
      <trkpt lat="47.590824" lon="7.916070">
        <ele>322.663100</ele>
        <time>2021-08-16T21:14:27.921Z</time>
      </trkpt>
      <trkpt lat="47.590960" lon="7.915508">
        <ele>320.418580</ele>
        <time>2021-08-16T21:14:31.578Z</time>
      </trkpt>
      <trkpt lat="47.591214" lon="7.914833">
        <ele>317.158727</ele>
        <time>2021-08-16T21:14:36.234Z</time>
      </trkpt>
      <trkpt lat="47.591443" lon="7.914358">
        <ele>314.696286</ele>
        <time>2021-08-16T21:14:39.768Z</time>
      </trkpt>
      <trkpt lat="47.591643" lon="7.914131">
        <ele>313.121277</ele>
        <time>2021-08-16T21:14:42.080Z</time>
      </trkpt>
      <trkpt lat="47.591782" lon="7.913893">
        <ele>311.793503</ele>
        <time>2021-08-16T21:14:44.059Z</time>
      </trkpt>
      <trkpt lat="47.591858" lon="7.913783">
        <ele>311.129371</ele>
        <time>2021-08-16T21:14:45.061Z</time>
      </trkpt>
      <trkpt lat="47.591809" lon="7.913704">
        <ele>310.734352</ele>
        <time>2021-08-16T21:14:45.728Z</time>
      </trkpt>
      <trkpt lat="47.591746" lon="7.913330">
        <ele>310.121280</ele>
        <time>2021-08-16T21:14:48.326Z</time>
      </trkpt>
      <trkpt lat="47.591721" lon="7.913096">
        <ele>309.744491</ele>
        <time>2021-08-16T21:14:49.887Z</time>
      </trkpt>
      <trkpt lat="47.591714" lon="7.913064">
        <ele>309.690989</ele>
        <time>2021-08-16T21:14:50.124Z</time>
      </trkpt>
      <trkpt lat="47.591605" lon="7.912829">
        <ele>309.237392</ele>
        <time>2021-08-16T21:14:52.209Z</time>
      </trkpt>
      <trkpt lat="47.591443" lon="7.912678">
        <ele>308.786157</ele>
        <time>2021-08-16T21:14:54.221Z</time>
      </trkpt>
      <trkpt lat="47.591348" lon="7.912662">
        <ele>308.560690</ele>
        <time>2021-08-16T21:14:55.344Z</time>
      </trkpt>
      <trkpt lat="47.591044" lon="7.912710">
        <ele>307.839751</ele>
        <time>2021-08-16T21:14:58.784Z</time>
      </trkpt>
      <trkpt lat="47.590570" lon="7.912784">
        <ele>306.715798</ele>
        <time>2021-08-16T21:15:04.532Z</time>
      </trkpt>
      <trkpt lat="47.590231" lon="7.912830">
        <ele>306.446492</ele>
        <time>2021-08-16T21:15:08.811Z</time>
      </trkpt>
      <trkpt lat="47.589873" lon="7.912855">
        <ele>306.334800</ele>
        <time>2021-08-16T21:15:13.784Z</time>
      </trkpt>
      <trkpt lat="47.589326" lon="7.912720">
        <ele>306.161985</ele>
        <time>2021-08-16T21:15:21.748Z</time>
      </trkpt>
      <trkpt lat="47.588907" lon="7.912607">
        <ele>306.029264</ele>
        <time>2021-08-16T21:15:28.044Z</time>
      </trkpt>
      <trkpt lat="47.587897" lon="7.912517">
        <ele>304.966960</ele>
        <time>2021-08-16T21:15:42.607Z</time>
      </trkpt>
      <trkpt lat="47.587725" lon="7.912508">
        <ele>304.755123</ele>
        <time>2021-08-16T21:15:44.592Z</time>
      </trkpt>
      <trkpt lat="47.586917" lon="7.912301">
        <ele>303.729070</ele>
        <time>2021-08-16T21:15:53.596Z</time>
      </trkpt>
      <trkpt lat="47.586622" lon="7.912140">
        <ele>302.473274</ele>
        <time>2021-08-16T21:15:56.918Z</time>
      </trkpt>
      <trkpt lat="47.586433" lon="7.912047">
        <ele>301.677746</ele>
        <time>2021-08-16T21:15:58.909Z</time>
      </trkpt>
      <trkpt lat="47.586263" lon="7.911881">
        <ele>300.864557</ele>
        <time>2021-08-16T21:16:00.873Z</time>
      </trkpt>
      <trkpt lat="47.586028" lon="7.911561">
        <ele>299.589889</ele>
        <time>2021-08-16T21:16:03.955Z</time>
      </trkpt>
      <trkpt lat="47.585610" lon="7.910640">
        <ele>296.598757</ele>
        <time>2021-08-16T21:16:11.029Z</time>
      </trkpt>
      <trkpt lat="47.585430" lon="7.910346">
        <ele>295.816202</ele>
        <time>2021-08-16T21:16:13.549Z</time>
      </trkpt>
      <trkpt lat="47.585271" lon="7.910136">
        <ele>295.200744</ele>
        <time>2021-08-16T21:16:15.623Z</time>
      </trkpt>
      <trkpt lat="47.585157" lon="7.909965">
        <ele>294.732029</ele>
        <time>2021-08-16T21:16:17.261Z</time>
      </trkpt>
      <trkpt lat="47.585093" lon="7.909869">
        <ele>294.468891</ele>
        <time>2021-08-16T21:16:18.233Z</time>
      </trkpt>
      <trkpt lat="47.585066" lon="7.909809">
        <ele>294.328280</ele>
        <time>2021-08-16T21:16:18.721Z</time>
      </trkpt>
      <trkpt lat="47.585051" lon="7.909751">
        <ele>294.207184</ele>
        <time>2021-08-16T21:16:19.143Z</time>
      </trkpt>
      <trkpt lat="47.585045" lon="7.909674">
        <ele>294.056076</ele>
        <time>2021-08-16T21:16:19.642Z</time>
      </trkpt>
      <trkpt lat="47.585078" lon="7.909509">
        <ele>293.720569</ele>
        <time>2021-08-16T21:16:20.856Z</time>
      </trkpt>
      <trkpt lat="47.585337" lon="7.909031">
        <ele>292.525281</ele>
        <time>2021-08-16T21:16:25.306Z</time>
      </trkpt>
      <trkpt lat="47.585419" lon="7.908887">
        <ele>292.157891</ele>
        <time>2021-08-16T21:16:27.381Z</time>
      </trkpt>
      <trkpt lat="47.585427" lon="7.908874">
        <ele>292.123585</ele>
        <time>2021-08-16T21:16:27.540Z</time>
      </trkpt>
      <trkpt lat="47.585474" lon="7.908835">
        <ele>291.967913</ele>
        <time>2021-08-16T21:16:28.337Z</time>
      </trkpt>
      <trkpt lat="47.585548" lon="7.908722">
        <ele>291.660875</ele>
        <time>2021-08-16T21:16:30.089Z</time>
      </trkpt>
      <trkpt lat="47.585609" lon="7.908612">
        <ele>291.383263</ele>
        <time>2021-08-16T21:16:31.870Z</time>
      </trkpt>
      <trkpt lat="47.585636" lon="7.908546">
        <ele>291.386938</ele>
        <time>2021-08-16T21:16:32.852Z</time>
      </trkpt>
      <trkpt lat="47.585666" lon="7.908542">
        <ele>291.398105</ele>
        <time>2021-08-16T21:16:33.250Z</time>
      </trkpt>
      <trkpt lat="47.585695" lon="7.908526">
        <ele>291.409576</ele>
        <time>2021-08-16T21:16:33.579Z</time>
      </trkpt>
      <trkpt lat="47.585727" lon="7.908489">
        <ele>291.424621</ele>
        <time>2021-08-16T21:16:34.040Z</time>
      </trkpt>
      <trkpt lat="47.585750" lon="7.908439">
        <ele>291.439754</ele>
        <time>2021-08-16T21:16:34.657Z</time>
      </trkpt>
      <trkpt lat="47.585760" lon="7.908367">
        <ele>291.458135</ele>
        <time>2021-08-16T21:16:35.372Z</time>
      </trkpt>
      <trkpt lat="47.585751" lon="7.908295">
        <ele>291.476446</ele>
        <time>2021-08-16T21:16:36.120Z</time>
      </trkpt>
      <trkpt lat="47.585761" lon="7.908160">
        <ele>291.510406</ele>
        <time>2021-08-16T21:16:37.971Z</time>
      </trkpt>
      <trkpt lat="47.585759" lon="7.908093">
        <ele>291.527175</ele>
        <time>2021-08-16T21:16:38.839Z</time>
      </trkpt>
      <trkpt lat="47.585745" lon="7.907994">
        <ele>291.552469</ele>
        <time>2021-08-16T21:16:39.998Z</time>
      </trkpt>
      <trkpt lat="47.585709" lon="7.907887">
        <ele>291.582368</ele>
        <time>2021-08-16T21:16:41.656Z</time>
      </trkpt>
      <trkpt lat="47.585496" lon="7.906982">
        <ele>291.822047</ele>
        <time>2021-08-16T21:16:52.962Z</time>
      </trkpt>
      <trkpt lat="47.585477" lon="7.906769">
        <ele>291.875772</ele>
        <time>2021-08-16T21:16:55.866Z</time>
      </trkpt>
      <trkpt lat="47.585489" lon="7.906549">
        <ele>291.930963</ele>
        <time>2021-08-16T21:16:58.856Z</time>
      </trkpt>
      <trkpt lat="47.585489" lon="7.906549">
        <ele>291.930963</ele>
        <time>2021-08-16T21:16:58.862Z</time>
      </trkpt>
      <trkpt lat="47.585765" lon="7.905581">
        <ele>292.593386</ele>
        <time>2021-08-16T21:17:12.033Z</time>
      </trkpt>
      <trkpt lat="47.586041" lon="7.904614">
        <ele>293.522017</ele>
        <time>2021-08-16T21:17:25.192Z</time>
      </trkpt>
      <trkpt lat="47.586317" lon="7.903647">
        <ele>294.435026</ele>
        <time>2021-08-16T21:17:38.349Z</time>
      </trkpt>
      <trkpt lat="47.586407" lon="7.903407">
        <ele>294.610163</ele>
        <time>2021-08-16T21:17:41.807Z</time>
      </trkpt>
      <trkpt lat="47.586847" lon="7.902221">
        <ele>295.473452</ele>
        <time>2021-08-16T21:17:59.075Z</time>
      </trkpt>
      <trkpt lat="47.587029" lon="7.901746">
        <ele>295.821869</ele>
        <time>2021-08-16T21:18:05.837Z</time>
      </trkpt>
      <trkpt lat="47.587506" lon="7.900489">
        <ele>296.668068</ele>
        <time>2021-08-16T21:18:23.001Z</time>
      </trkpt>
      <trkpt lat="47.587961" lon="7.899254">
        <ele>297.463271</ele>
        <time>2021-08-16T21:18:40.484Z</time>
      </trkpt>
      <trkpt lat="47.588436" lon="7.898021">
        <ele>298.405368</ele>
        <time>2021-08-16T21:18:58.576Z</time>
      </trkpt>
      <trkpt lat="47.588506" lon="7.897839">
        <ele>298.548696</ele>
        <time>2021-08-16T21:19:01.054Z</time>
      </trkpt>
      <trkpt lat="47.588808" lon="7.897009">
        <ele>299.193855</ele>
        <time>2021-08-16T21:19:13.364Z</time>
      </trkpt>
      <trkpt lat="47.589118" lon="7.896174">
        <ele>299.690647</ele>
        <time>2021-08-16T21:19:25.778Z</time>
      </trkpt>
      <trkpt lat="47.589590" lon="7.894990">
        <ele>300.283020</ele>
        <time>2021-08-16T21:19:42.240Z</time>
      </trkpt>
      <trkpt lat="47.589932" lon="7.894260">
        <ele>300.532210</ele>
        <time>2021-08-16T21:19:51.816Z</time>
      </trkpt>
      <trkpt lat="47.589960" lon="7.894201">
        <ele>300.517381</ele>
        <time>2021-08-16T21:19:52.510Z</time>
      </trkpt>
      <trkpt lat="47.590704" lon="7.892594">
        <ele>300.116724</ele>
        <time>2021-08-16T21:20:10.644Z</time>
      </trkpt>
      <trkpt lat="47.591003" lon="7.891941">
        <ele>299.764017</ele>
        <time>2021-08-16T21:20:17.331Z</time>
      </trkpt>
      <trkpt lat="47.591247" lon="7.891264">
        <ele>299.192920</ele>
        <time>2021-08-16T21:20:23.841Z</time>
      </trkpt>
      <trkpt lat="47.591381" lon="7.890797">
        <ele>298.815336</ele>
        <time>2021-08-16T21:20:27.885Z</time>
      </trkpt>
      <trkpt lat="47.591692" lon="7.889232">
        <ele>297.639774</ele>
        <time>2021-08-16T21:20:40.807Z</time>
      </trkpt>
      <trkpt lat="47.591728" lon="7.889070">
        <ele>297.523875</ele>
        <time>2021-08-16T21:20:42.116Z</time>
      </trkpt>
      <trkpt lat="47.591763" lon="7.888925">
        <ele>297.419230</ele>
        <time>2021-08-16T21:20:43.321Z</time>
      </trkpt>
      <trkpt lat="47.591866" lon="7.888529">
        <ele>297.130836</ele>
        <time>2021-08-16T21:20:46.711Z</time>
      </trkpt>
      <trkpt lat="47.592202" lon="7.887383">
        <ele>296.281746</ele>
        <time>2021-08-16T21:20:57.165Z</time>
      </trkpt>
      <trkpt lat="47.592409" lon="7.886663">
        <ele>296.429440</ele>
        <time>2021-08-16T21:21:04.517Z</time>
      </trkpt>
      <trkpt lat="47.592600" lon="7.886000">
        <ele>296.631778</ele>
        <time>2021-08-16T21:21:13.193Z</time>
      </trkpt>
      <trkpt lat="47.592651" lon="7.885826">
        <ele>296.685024</ele>
        <time>2021-08-16T21:21:15.588Z</time>
      </trkpt>
      <trkpt lat="47.592802" lon="7.885426">
        <ele>296.813675</ele>
        <time>2021-08-16T21:21:21.182Z</time>
      </trkpt>
      <trkpt lat="47.593166" lon="7.884637">
        <ele>297.329225</ele>
        <time>2021-08-16T21:21:32.703Z</time>
      </trkpt>
      <trkpt lat="47.593354" lon="7.884147">
        <ele>297.868574</ele>
        <time>2021-08-16T21:21:39.873Z</time>
      </trkpt>
      <trkpt lat="47.593465" lon="7.883826">
        <ele>298.213697</ele>
        <time>2021-08-16T21:21:44.677Z</time>
      </trkpt>
      <trkpt lat="47.593516" lon="7.883635">
        <ele>298.410231</ele>
        <time>2021-08-16T21:21:47.526Z</time>
      </trkpt>
      <trkpt lat="47.593562" lon="7.883406">
        <ele>298.638831</ele>
        <time>2021-08-16T21:21:50.616Z</time>
      </trkpt>
      <trkpt lat="47.593602" lon="7.883202">
        <ele>298.842082</ele>
        <time>2021-08-16T21:21:53.579Z</time>
      </trkpt>
      <trkpt lat="47.593695" lon="7.882631">
        <ele>299.404069</ele>
        <time>2021-08-16T21:22:02.543Z</time>
      </trkpt>
      <trkpt lat="47.593743" lon="7.882378">
        <ele>299.952797</ele>
        <time>2021-08-16T21:22:06.349Z</time>
      </trkpt>
      <trkpt lat="47.593831" lon="7.882052">
        <ele>301.090514</ele>
        <time>2021-08-16T21:22:11.692Z</time>
      </trkpt>
      <trkpt lat="47.593960" lon="7.881629">
        <ele>302.594655</ele>
        <time>2021-08-16T21:22:20.975Z</time>
      </trkpt>
      <trkpt lat="47.593971" lon="7.881590">
        <ele>302.731622</ele>
        <time>2021-08-16T21:22:21.630Z</time>
      </trkpt>
      <trkpt lat="47.593986" lon="7.881532">
        <ele>302.932886</ele>
        <time>2021-08-16T21:22:22.747Z</time>
      </trkpt>
      <trkpt lat="47.594029" lon="7.881400">
        <ele>303.407848</ele>
        <time>2021-08-16T21:22:26.887Z</time>
      </trkpt>
      <trkpt lat="47.594057" lon="7.881307">
        <ele>303.737833</ele>
        <time>2021-08-16T21:22:29.734Z</time>
      </trkpt>
      <trkpt lat="47.594067" lon="7.881235">
        <ele>303.976009</ele>
        <time>2021-08-16T21:22:31.465Z</time>
      </trkpt>
      <trkpt lat="47.594067" lon="7.881089">
        <ele>304.449047</ele>
        <time>2021-08-16T21:22:34.602Z</time>
      </trkpt>
      <trkpt lat="47.594054" lon="7.881021">
        <ele>304.678049</ele>
        <time>2021-08-16T21:22:36.004Z</time>
      </trkpt>
      <trkpt lat="47.594237" lon="7.880922">
        <ele>305.613939</ele>
        <time>2021-08-16T21:22:45.395Z</time>
      </trkpt>
      <trkpt lat="47.594428" lon="7.880985">
        <ele>306.554009</ele>
        <time>2021-08-16T21:22:52.993Z</time>
      </trkpt>
      <trkpt lat="47.594673" lon="7.881251">
        <ele>308.012868</ele>
        <time>2021-08-16T21:23:07.530Z</time>
      </trkpt>
      <trkpt lat="47.594801" lon="7.881318">
        <ele>309.055832</ele>
        <time>2021-08-16T21:23:15.196Z</time>
      </trkpt>
      <trkpt lat="47.595079" lon="7.881265">
        <ele>311.470696</ele>
        <time>2021-08-16T21:23:28.539Z</time>
      </trkpt>
      <trkpt lat="47.595204" lon="7.881241">
        <ele>312.556642</ele>
        <time>2021-08-16T21:23:35.663Z</time>
      </trkpt>
      <trkpt lat="47.595356" lon="7.881168">
        <ele>313.933191</ele>
        <time>2021-08-16T21:23:42.978Z</time>
      </trkpt>
      <trkpt lat="47.595590" lon="7.880967">
        <ele>316.263064</ele>
        <time>2021-08-16T21:23:58.499Z</time>
      </trkpt>
      <trkpt lat="47.595849" lon="7.880571">
        <ele>319.468204</ele>
        <time>2021-08-16T21:24:20.217Z</time>
      </trkpt>
      <trkpt lat="47.595897" lon="7.880539">
        <ele>319.921626</ele>
        <time>2021-08-16T21:24:23.604Z</time>
      </trkpt>
      <trkpt lat="47.596105" lon="7.880429">
        <ele>321.824231</ele>
        <time>2021-08-16T21:24:37.753Z</time>
      </trkpt>
      <trkpt lat="47.596624" lon="7.880330">
        <ele>326.342463</ele>
        <time>2021-08-16T21:25:07.745Z</time>
      </trkpt>
      <trkpt lat="47.596862" lon="7.880148">
        <ele>328.658119</ele>
        <time>2021-08-16T21:25:21.874Z</time>
      </trkpt>
      <trkpt lat="47.597107" lon="7.879961">
        <ele>331.040938</ele>
        <time>2021-08-16T21:25:36.331Z</time>
      </trkpt>
      <trkpt lat="47.597592" lon="7.879745">
        <ele>335.420065</ele>
        <time>2021-08-16T21:26:01.288Z</time>
      </trkpt>
      <trkpt lat="47.598046" lon="7.879670">
        <ele>339.338903</ele>
        <time>2021-08-16T21:26:22.880Z</time>
      </trkpt>
      <trkpt lat="47.598601" lon="7.879410">
        <ele>343.300017</ele>
        <time>2021-08-16T21:26:48.720Z</time>
      </trkpt>
      <trkpt lat="47.598814" lon="7.879234">
        <ele>344.959448</ele>
        <time>2021-08-16T21:26:57.667Z</time>
      </trkpt>
      <trkpt lat="47.599319" lon="7.878456">
        <ele>349.915186</ele>
        <time>2021-08-16T21:27:27.606Z</time>
      </trkpt>
      <trkpt lat="47.599501" lon="7.878325">
        <ele>351.291995</ele>
        <time>2021-08-16T21:27:36.647Z</time>
      </trkpt>
      <trkpt lat="47.599911" lon="7.878305">
        <ele>353.750783</ele>
        <time>2021-08-16T21:27:52.630Z</time>
      </trkpt>
      <trkpt lat="47.600025" lon="7.878272">
        <ele>354.440795</ele>
        <time>2021-08-16T21:27:56.505Z</time>
      </trkpt>
      <trkpt lat="47.600151" lon="7.878087">
        <ele>355.494103</ele>
        <time>2021-08-16T21:28:04.446Z</time>
      </trkpt>
      <trkpt lat="47.600245" lon="7.877413">
        <ele>358.251129</ele>
        <time>2021-08-16T21:28:22.752Z</time>
      </trkpt>
      <trkpt lat="47.600322" lon="7.875497">
        <ele>364.092302</ele>
        <time>2021-08-16T21:29:09.860Z</time>
      </trkpt>
      <trkpt lat="47.600355" lon="7.875123">
        <ele>364.866920</ele>
        <time>2021-08-16T21:29:17.093Z</time>
      </trkpt>
      <trkpt lat="47.600417" lon="7.874784">
        <ele>365.588265</ele>
        <time>2021-08-16T21:29:22.624Z</time>
      </trkpt>
      <trkpt lat="47.600560" lon="7.874413">
        <ele>366.465867</ele>
        <time>2021-08-16T21:29:28.980Z</time>
      </trkpt>
      <trkpt lat="47.600741" lon="7.874046">
        <ele>367.399641</ele>
        <time>2021-08-16T21:29:34.917Z</time>
      </trkpt>
      <trkpt lat="47.600948" lon="7.873597">
        <ele>367.129036</ele>
        <time>2021-08-16T21:29:41.081Z</time>
      </trkpt>
      <trkpt lat="47.601105" lon="7.873353">
        <ele>366.741710</ele>
        <time>2021-08-16T21:29:44.729Z</time>
      </trkpt>
      <trkpt lat="47.601296" lon="7.873172">
        <ele>366.355666</ele>
        <time>2021-08-16T21:29:47.271Z</time>
      </trkpt>
      <trkpt lat="47.601943" lon="7.872936">
        <ele>365.220881</ele>
        <time>2021-08-16T21:29:54.240Z</time>
      </trkpt>
      <trkpt lat="47.602586" lon="7.872916">
        <ele>363.445762</ele>
        <time>2021-08-16T21:30:00.779Z</time>
      </trkpt>
      <trkpt lat="47.602808" lon="7.872798">
        <ele>362.420516</ele>
        <time>2021-08-16T21:30:03.094Z</time>
      </trkpt>
      <trkpt lat="47.603045" lon="7.872583">
        <ele>361.212704</ele>
        <time>2021-08-16T21:30:05.785Z</time>
      </trkpt>
      <trkpt lat="47.603829" lon="7.872140">
        <ele>357.565313</ele>
        <time>2021-08-16T21:30:13.762Z</time>
      </trkpt>
      <trkpt lat="47.604280" lon="7.872065">
        <ele>355.890106</ele>
        <time>2021-08-16T21:30:17.966Z</time>
      </trkpt>
      <trkpt lat="47.604519" lon="7.871934">
        <ele>355.068841</ele>
        <time>2021-08-16T21:30:20.340Z</time>
      </trkpt>
      <trkpt lat="47.604699" lon="7.871639">
        <ele>354.204198</ele>
        <time>2021-08-16T21:30:23.052Z</time>
      </trkpt>
      <trkpt lat="47.604826" lon="7.871285">
        <ele>353.332758</ele>
        <time>2021-08-16T21:30:25.837Z</time>
      </trkpt>
      <trkpt lat="47.605144" lon="7.870882">
        <ele>351.984576</ele>
        <time>2021-08-16T21:30:30.301Z</time>
      </trkpt>
      <trkpt lat="47.605546" lon="7.870588">
        <ele>350.947345</ele>
        <time>2021-08-16T21:30:35.263Z</time>
      </trkpt>
      <trkpt lat="47.605814" lon="7.870517">
        <ele>350.949268</ele>
        <time>2021-08-16T21:30:40.479Z</time>
      </trkpt>
      <trkpt lat="47.606788" lon="7.870326">
        <ele>350.956208</ele>
        <time>2021-08-16T21:31:00.539Z</time>
      </trkpt>
      <trkpt lat="47.607422" lon="7.869646">
        <ele>351.612455</ele>
        <time>2021-08-16T21:31:21.072Z</time>
      </trkpt>
      <trkpt lat="47.607453" lon="7.869540">
        <ele>351.752035</ele>
        <time>2021-08-16T21:31:22.950Z</time>
      </trkpt>
      <trkpt lat="47.607466" lon="7.869418">
        <ele>351.901243</ele>
        <time>2021-08-16T21:31:24.258Z</time>
      </trkpt>
      <trkpt lat="47.607848" lon="7.869319">
        <ele>352.596073</ele>
        <time>2021-08-16T21:31:32.161Z</time>
      </trkpt>
      <trkpt lat="47.607911" lon="7.869279">
        <ele>352.718863</ele>
        <time>2021-08-16T21:31:34.541Z</time>
      </trkpt>
      <trkpt lat="47.608074" lon="7.869176">
        <ele>353.036323</ele>
        <time>2021-08-16T21:31:38.232Z</time>
      </trkpt>
      <trkpt lat="47.608371" lon="7.868821">
        <ele>353.719770</ele>
        <time>2021-08-16T21:31:46.197Z</time>
      </trkpt>
      <trkpt lat="47.609971" lon="7.866486">
        <ele>360.920540</ele>
        <time>2021-08-16T21:32:49.196Z</time>
      </trkpt>
      <trkpt lat="47.610539" lon="7.865746">
        <ele>364.006784</ele>
        <time>2021-08-16T21:33:14.589Z</time>
      </trkpt>
      <trkpt lat="47.611380" lon="7.864872">
        <ele>367.887667</ele>
        <time>2021-08-16T21:33:47.179Z</time>
      </trkpt>
      <trkpt lat="47.611814" lon="7.864344">
        <ele>369.164770</ele>
        <time>2021-08-16T21:34:02.357Z</time>
      </trkpt>
      <trkpt lat="47.613099" lon="7.861661">
        <ele>373.441240</ele>
        <time>2021-08-16T21:34:47.707Z</time>
      </trkpt>
      <trkpt lat="47.613183" lon="7.861517">
        <ele>373.647448</ele>
        <time>2021-08-16T21:34:50.314Z</time>
      </trkpt>
      <trkpt lat="47.613247" lon="7.861408">
        <ele>373.803974</ele>
        <time>2021-08-16T21:34:52.163Z</time>
      </trkpt>
      <trkpt lat="47.613477" lon="7.861090">
        <ele>374.309023</ele>
        <time>2021-08-16T21:34:58.663Z</time>
      </trkpt>
      <trkpt lat="47.613709" lon="7.860779">
        <ele>375.113290</ele>
        <time>2021-08-16T21:35:06.038Z</time>
      </trkpt>
      <trkpt lat="47.613653" lon="7.860682">
        <ele>375.376648</ele>
        <time>2021-08-16T21:35:08.260Z</time>
      </trkpt>
      <trkpt lat="47.613681" lon="7.860208">
        <ele>376.357858</ele>
        <time>2021-08-16T21:35:17.105Z</time>
      </trkpt>
      <trkpt lat="47.613930" lon="7.859518">
        <ele>377.971794</ele>
        <time>2021-08-16T21:35:33.301Z</time>
      </trkpt>
      <trkpt lat="47.614117" lon="7.858260">
        <ele>380.547364</ele>
        <time>2021-08-16T21:35:56.953Z</time>
      </trkpt>
      <trkpt lat="47.614324" lon="7.857633">
        <ele>381.807470</ele>
        <time>2021-08-16T21:36:09.080Z</time>
      </trkpt>
      <trkpt lat="47.614594" lon="7.857031">
        <ele>383.112532</ele>
        <time>2021-08-16T21:36:21.818Z</time>
      </trkpt>
      <trkpt lat="47.614943" lon="7.856422">
        <ele>384.555218</ele>
        <time>2021-08-16T21:36:35.559Z</time>
      </trkpt>
      <trkpt lat="47.615230" lon="7.856082">
        <ele>385.973747</ele>
        <time>2021-08-16T21:36:43.788Z</time>
      </trkpt>
      <trkpt lat="47.615482" lon="7.855744">
        <ele>387.415806</ele>
        <time>2021-08-16T21:36:52.726Z</time>
      </trkpt>
      <trkpt lat="47.615834" lon="7.855623">
        <ele>388.949524</ele>
        <time>2021-08-16T21:37:03.994Z</time>
      </trkpt>
      <trkpt lat="47.616532" lon="7.854834">
        <ele>392.903436</ele>
        <time>2021-08-16T21:37:43.425Z</time>
      </trkpt>
      <trkpt lat="47.616902" lon="7.854158">
        <ele>397.728737</ele>
        <time>2021-08-16T21:38:14.234Z</time>
      </trkpt>
      <trkpt lat="47.617121" lon="7.853582">
        <ele>401.393255</ele>
        <time>2021-08-16T21:38:36.311Z</time>
      </trkpt>
      <trkpt lat="47.617174" lon="7.853374">
        <ele>402.625446</ele>
        <time>2021-08-16T21:38:43.783Z</time>
      </trkpt>
      <trkpt lat="47.617401" lon="7.852985">
        <ele>405.476525</ele>
        <time>2021-08-16T21:39:01.502Z</time>
      </trkpt>
      <trkpt lat="47.617505" lon="7.852663">
        <ele>407.411693</ele>
        <time>2021-08-16T21:39:14.033Z</time>
      </trkpt>
      <trkpt lat="47.617527" lon="7.851427">
        <ele>413.021566</ele>
        <time>2021-08-16T21:39:53.803Z</time>
      </trkpt>
      <trkpt lat="47.618006" lon="7.850183">
        <ele>419.418926</ele>
        <time>2021-08-16T21:40:29.779Z</time>
      </trkpt>
      <trkpt lat="47.618035" lon="7.849984">
        <ele>419.866724</ele>
        <time>2021-08-16T21:40:34.382Z</time>
      </trkpt>
      <trkpt lat="47.618004" lon="7.848291">
        <ele>423.591730</ele>
        <time>2021-08-16T21:41:06.604Z</time>
      </trkpt>
      <trkpt lat="47.617988" lon="7.848055">
        <ele>424.113414</ele>
        <time>2021-08-16T21:41:10.606Z</time>
      </trkpt>
      <trkpt lat="47.617998" lon="7.847811">
        <ele>424.651066</ele>
        <time>2021-08-16T21:41:14.171Z</time>
      </trkpt>
      <trkpt lat="47.618233" lon="7.846599">
        <ele>426.806494</ele>
        <time>2021-08-16T21:41:32.649Z</time>
      </trkpt>
      <trkpt lat="47.618223" lon="7.845325">
        <ele>428.833027</ele>
        <time>2021-08-16T21:41:53.398Z</time>
      </trkpt>
      <trkpt lat="47.618134" lon="7.844973">
        <ele>429.431002</ele>
        <time>2021-08-16T21:41:59.905Z</time>
      </trkpt>
      <trkpt lat="47.617988" lon="7.844483">
        <ele>430.945483</ele>
        <time>2021-08-16T21:42:10.055Z</time>
      </trkpt>
      <trkpt lat="47.617607" lon="7.843840">
        <ele>433.370941</ele>
        <time>2021-08-16T21:42:28.103Z</time>
      </trkpt>
      <trkpt lat="47.617368" lon="7.843216">
        <ele>435.404270</ele>
        <time>2021-08-16T21:42:44.772Z</time>
      </trkpt>
      <trkpt lat="47.617228" lon="7.842570">
        <ele>437.331572</ele>
        <time>2021-08-16T21:43:01.169Z</time>
      </trkpt>
      <trkpt lat="47.617103" lon="7.841209">
        <ele>441.279734</ele>
        <time>2021-08-16T21:43:32.082Z</time>
      </trkpt>
      <trkpt lat="47.616766" lon="7.839183">
        <ele>446.703569</ele>
        <time>2021-08-16T21:44:13.678Z</time>
      </trkpt>
      <trkpt lat="47.616796" lon="7.838812">
        <ele>447.541568</ele>
        <time>2021-08-16T21:44:20.467Z</time>
      </trkpt>
      <trkpt lat="47.617290" lon="7.837217">
        <ele>451.510905</ele>
        <time>2021-08-16T21:44:52.902Z</time>
      </trkpt>
      <trkpt lat="47.617841" lon="7.835706">
        <ele>455.515838</ele>
        <time>2021-08-16T21:45:25.720Z</time>
      </trkpt>
      <trkpt lat="47.618319" lon="7.834959">
        <ele>458.017335</ele>
        <time>2021-08-16T21:45:46.887Z</time>
      </trkpt>
      <trkpt lat="47.618582" lon="7.834417">
        <ele>459.723313</ele>
        <time>2021-08-16T21:46:00.596Z</time>
      </trkpt>
      <trkpt lat="47.618883" lon="7.833744">
        <ele>461.786505</ele>
        <time>2021-08-16T21:46:17.141Z</time>
      </trkpt>
      <trkpt lat="47.619543" lon="7.832548">
        <ele>465.322745</ele>
        <time>2021-08-16T21:46:47.819Z</time>
      </trkpt>
      <trkpt lat="47.621202" lon="7.830405">
        <ele>471.680119</ele>
        <time>2021-08-16T21:47:44.655Z</time>
      </trkpt>
      <trkpt lat="47.621427" lon="7.829933">
        <ele>472.734750</ele>
        <time>2021-08-16T21:47:54.438Z</time>
      </trkpt>
      <trkpt lat="47.621534" lon="7.829734">
        <ele>473.199136</ele>
        <time>2021-08-16T21:47:58.719Z</time>
      </trkpt>
      <trkpt lat="47.621216" lon="7.829246">
        <ele>474.440921</ele>
        <time>2021-08-16T21:48:12.856Z</time>
      </trkpt>
      <trkpt lat="47.620592" lon="7.827866">
        <ele>477.496842</ele>
        <time>2021-08-16T21:48:48.332Z</time>
      </trkpt>
      <trkpt lat="47.620417" lon="7.827360">
        <ele>478.542708</ele>
        <time>2021-08-16T21:49:00.342Z</time>
      </trkpt>
      <trkpt lat="47.620239" lon="7.826424">
        <ele>478.916265</ele>
        <time>2021-08-16T21:49:20.628Z</time>
      </trkpt>
      <trkpt lat="47.620280" lon="7.825972">
        <ele>478.922177</ele>
        <time>2021-08-16T21:49:28.215Z</time>
      </trkpt>
      <trkpt lat="47.620532" lon="7.825491">
        <ele>478.930074</ele>
        <time>2021-08-16T21:49:35.899Z</time>
      </trkpt>
      <trkpt lat="47.620535" lon="7.825147">
        <ele>478.934534</ele>
        <time>2021-08-16T21:49:39.767Z</time>
      </trkpt>
      <trkpt lat="47.620426" lon="7.824361">
        <ele>477.813869</ele>
        <time>2021-08-16T21:49:47.887Z</time>
      </trkpt>
      <trkpt lat="47.620313" lon="7.823927">
        <ele>476.166070</ele>
        <time>2021-08-16T21:49:52.234Z</time>
      </trkpt>
      <trkpt lat="47.620145" lon="7.823390">
        <ele>474.069287</ele>
        <time>2021-08-16T21:49:57.737Z</time>
      </trkpt>
      <trkpt lat="47.620379" lon="7.822890">
        <ele>471.913426</ele>
        <time>2021-08-16T21:50:03.026Z</time>
      </trkpt>
      <trkpt lat="47.620415" lon="7.822781">
        <ele>471.483526</ele>
        <time>2021-08-16T21:50:04.054Z</time>
      </trkpt>
      <trkpt lat="47.620423" lon="7.822679">
        <ele>471.119834</ele>
        <time>2021-08-16T21:50:04.892Z</time>
      </trkpt>
      <trkpt lat="47.620375" lon="7.821867">
        <ele>468.725687</ele>
        <time>2021-08-16T21:50:11.951Z</time>
      </trkpt>
      <trkpt lat="47.620205" lon="7.821419">
        <ele>467.618651</ele>
        <time>2021-08-16T21:50:16.616Z</time>
      </trkpt>
      <trkpt lat="47.620142" lon="7.821371">
        <ele>467.392403</ele>
        <time>2021-08-16T21:50:17.517Z</time>
      </trkpt>
      <trkpt lat="47.620115" lon="7.821360">
        <ele>467.302956</ele>
        <time>2021-08-16T21:50:17.977Z</time>
      </trkpt>
      <trkpt lat="47.620094" lon="7.821351">
        <ele>467.233126</ele>
        <time>2021-08-16T21:50:18.252Z</time>
      </trkpt>
      <trkpt lat="47.619956" lon="7.821295">
        <ele>466.776078</ele>
        <time>2021-08-16T21:50:20.460Z</time>
      </trkpt>
      <trkpt lat="47.619921" lon="7.821263">
        <ele>466.644741</ele>
        <time>2021-08-16T21:50:21.290Z</time>
      </trkpt>
      <trkpt lat="47.619886" lon="7.821190">
        <ele>466.451840</ele>
        <time>2021-08-16T21:50:22.245Z</time>
      </trkpt>
      <trkpt lat="47.619831" lon="7.821041">
        <ele>466.086038</ele>
        <time>2021-08-16T21:50:23.829Z</time>
      </trkpt>
      <trkpt lat="47.619748" lon="7.820814">
        <ele>465.529952</ele>
        <time>2021-08-16T21:50:27.099Z</time>
      </trkpt>
      <trkpt lat="47.619700" lon="7.820678">
        <ele>465.199385</ele>
        <time>2021-08-16T21:50:28.752Z</time>
      </trkpt>
      <trkpt lat="47.619615" lon="7.820500">
        <ele>464.729656</ele>
        <time>2021-08-16T21:50:31.590Z</time>
      </trkpt>
      <trkpt lat="47.619523" lon="7.820339">
        <ele>464.275158</ele>
        <time>2021-08-16T21:50:35.396Z</time>
      </trkpt>
      <trkpt lat="47.619453" lon="7.820217">
        <ele>463.930165</ele>
        <time>2021-08-16T21:50:37.073Z</time>
      </trkpt>
      <trkpt lat="47.619452" lon="7.820110">
        <ele>463.738159</ele>
        <time>2021-08-16T21:50:38.281Z</time>
      </trkpt>
      <trkpt lat="47.619471" lon="7.819998">
        <ele>463.705489</ele>
        <time>2021-08-16T21:50:39.754Z</time>
      </trkpt>
      <trkpt lat="47.619480" lon="7.819969">
        <ele>463.696458</ele>
        <time>2021-08-16T21:50:40.458Z</time>
      </trkpt>
      <trkpt lat="47.619503" lon="7.819903">
        <ele>463.675441</ele>
        <time>2021-08-16T21:50:42.137Z</time>
      </trkpt>
      <trkpt lat="47.619563" lon="7.819774">
        <ele>463.631106</ele>
        <time>2021-08-16T21:50:43.848Z</time>
      </trkpt>
      <trkpt lat="47.619739" lon="7.819464">
        <ele>463.516454</ele>
        <time>2021-08-16T21:50:49.055Z</time>
      </trkpt>
      <trkpt lat="47.620091" lon="7.818898">
        <ele>463.298612</ele>
        <time>2021-08-16T21:51:00.372Z</time>
      </trkpt>
      <trkpt lat="47.620052" lon="7.818861">
        <ele>463.279184</ele>
        <time>2021-08-16T21:51:00.874Z</time>
      </trkpt>
      <trkpt lat="47.619983" lon="7.818525">
        <ele>463.179826</ele>
        <time>2021-08-16T21:51:04.653Z</time>
      </trkpt>
      <trkpt lat="47.619948" lon="7.818387">
        <ele>463.138118</ele>
        <time>2021-08-16T21:51:06.568Z</time>
      </trkpt>
      <trkpt lat="47.619948" lon="7.818387">
        <ele>463.138118</ele>
        <time>2021-08-16T21:51:06.577Z</time>
      </trkpt>
      <trkpt lat="47.619880" lon="7.818346">
        <ele>463.107314</ele>
        <time>2021-08-16T21:51:07.444Z</time>
      </trkpt>
      <trkpt lat="47.619481" lon="7.818077">
        <ele>462.448618</ele>
        <time>2021-08-16T21:51:13.094Z</time>
      </trkpt>
      <trkpt lat="47.619455" lon="7.818047">
        <ele>462.334991</ele>
        <time>2021-08-16T21:51:13.386Z</time>
      </trkpt>
      <trkpt lat="47.619414" lon="7.817980">
        <ele>462.124571</ele>
        <time>2021-08-16T21:51:14.184Z</time>
      </trkpt>
      <trkpt lat="47.619369" lon="7.817884">
        <ele>461.852672</ele>
        <time>2021-08-16T21:51:15.179Z</time>
      </trkpt>
      <trkpt lat="47.619286" lon="7.817698">
        <ele>461.333979</ele>
        <time>2021-08-16T21:51:16.715Z</time>
      </trkpt>
      <trkpt lat="47.619222" lon="7.817606">
        <ele>461.026555</ele>
        <time>2021-08-16T21:51:17.559Z</time>
      </trkpt>
      <trkpt lat="47.619023" lon="7.817353">
        <ele>460.122469</ele>
        <time>2021-08-16T21:51:20.204Z</time>
      </trkpt>
      <trkpt lat="47.618799" lon="7.817081">
        <ele>459.123891</ele>
        <time>2021-08-16T21:51:22.971Z</time>
      </trkpt>
      <trkpt lat="47.618674" lon="7.816980">
        <ele>458.632868</ele>
        <time>2021-08-16T21:51:24.306Z</time>
      </trkpt>
      <trkpt lat="47.618026" lon="7.816656">
        <ele>456.094671</ele>
        <time>2021-08-16T21:51:30.935Z</time>
      </trkpt>
      <trkpt lat="47.617819" lon="7.816612">
        <ele>455.119981</ele>
        <time>2021-08-16T21:51:32.907Z</time>
      </trkpt>
      <trkpt lat="47.617645" lon="7.816658">
        <ele>454.296181</ele>
        <time>2021-08-16T21:51:34.638Z</time>
      </trkpt>
      <trkpt lat="47.617591" lon="7.816685">
        <ele>454.030574</ele>
        <time>2021-08-16T21:51:35.160Z</time>
      </trkpt>
      <trkpt lat="47.617466" lon="7.816748">
        <ele>453.415237</ele>
        <time>2021-08-16T21:51:36.457Z</time>
      </trkpt>
      <trkpt lat="47.617373" lon="7.816786">
        <ele>452.965618</ele>
        <time>2021-08-16T21:51:37.429Z</time>
      </trkpt>
      <trkpt lat="47.617243" lon="7.816840">
        <ele>452.336377</ele>
        <time>2021-08-16T21:51:38.681Z</time>
      </trkpt>
      <trkpt lat="47.617062" lon="7.816719">
        <ele>451.411025</ele>
        <time>2021-08-16T21:51:40.662Z</time>
      </trkpt>
      <trkpt lat="47.617000" lon="7.816677">
        <ele>451.093336</ele>
        <time>2021-08-16T21:51:41.338Z</time>
      </trkpt>
      <trkpt lat="47.616707" lon="7.816445">
        <ele>449.545292</ele>
        <time>2021-08-16T21:51:44.460Z</time>
      </trkpt>
      <trkpt lat="47.616632" lon="7.816335">
        <ele>449.053708</ele>
        <time>2021-08-16T21:51:45.435Z</time>
      </trkpt>
      <trkpt lat="47.616632" lon="7.816335">
        <ele>449.053708</ele>
        <time>2021-08-16T21:51:45.444Z</time>
      </trkpt>
      <trkpt lat="47.616582" lon="7.816196">
        <ele>448.558684</ele>
        <time>2021-08-16T21:51:46.407Z</time>
      </trkpt>
      <trkpt lat="47.616439" lon="7.815458">
        <ele>445.749533</ele>
        <time>2021-08-16T21:51:51.327Z</time>
      </trkpt>
      <trkpt lat="47.616368" lon="7.815112">
        <ele>444.413332</ele>
        <time>2021-08-16T21:51:53.542Z</time>
      </trkpt>
      <trkpt lat="47.616291" lon="7.814920">
        <ele>443.587950</ele>
        <time>2021-08-16T21:51:55.002Z</time>
      </trkpt>
      <trkpt lat="47.616224" lon="7.814793">
        <ele>442.992143</ele>
        <time>2021-08-16T21:51:55.949Z</time>
      </trkpt>
      <trkpt lat="47.615803" lon="7.813616">
        <ele>438.149600</ele>
        <time>2021-08-16T21:52:04.406Z</time>
      </trkpt>
      <trkpt lat="47.615645" lon="7.813447">
        <ele>437.262670</ele>
        <time>2021-08-16T21:52:06.196Z</time>
      </trkpt>
      <trkpt lat="47.615387" lon="7.813324">
        <ele>436.028744</ele>
        <time>2021-08-16T21:52:08.784Z</time>
      </trkpt>
      <trkpt lat="47.614932" lon="7.812637">
        <ele>433.072611</ele>
        <time>2021-08-16T21:52:15.031Z</time>
      </trkpt>
      <trkpt lat="47.614764" lon="7.812475">
        <ele>432.160245</ele>
        <time>2021-08-16T21:52:16.991Z</time>
      </trkpt>
      <trkpt lat="47.614051" lon="7.812407">
        <ele>429.340698</ele>
        <time>2021-08-16T21:52:23.912Z</time>
      </trkpt>
      <trkpt lat="47.613868" lon="7.812544">
        <ele>428.687219</ele>
        <time>2021-08-16T21:52:25.907Z</time>
      </trkpt>
      <trkpt lat="47.613621" lon="7.812859">
        <ele>427.648801</ele>
        <time>2021-08-16T21:52:29.132Z</time>
      </trkpt>
      <trkpt lat="47.613501" lon="7.812899">
        <ele>427.256707</ele>
        <time>2021-08-16T21:52:30.379Z</time>
      </trkpt>
      <trkpt lat="47.612810" lon="7.813060">
        <ele>425.026825</ele>
        <time>2021-08-16T21:52:37.638Z</time>
      </trkpt>
      <trkpt lat="47.612555" lon="7.813076">
        <ele>424.470657</ele>
        <time>2021-08-16T21:52:40.427Z</time>
      </trkpt>
      <trkpt lat="47.612313" lon="7.813004">
        <ele>424.182720</ele>
        <time>2021-08-16T21:52:43.247Z</time>
      </trkpt>
      <trkpt lat="47.611013" lon="7.812221">
        <ele>422.545903</ele>
        <time>2021-08-16T21:53:00.972Z</time>
      </trkpt>
      <trkpt lat="47.610772" lon="7.811907">
        <ele>421.870728</ele>
        <time>2021-08-16T21:53:05.199Z</time>
      </trkpt>
      <trkpt lat="47.610233" lon="7.810909">
        <ele>419.998430</ele>
        <time>2021-08-16T21:53:15.034Z</time>
      </trkpt>
      <trkpt lat="47.609797" lon="7.810201">
        <ele>418.559156</ele>
        <time>2021-08-16T21:53:21.646Z</time>
      </trkpt>
      <trkpt lat="47.609427" lon="7.809753">
        <ele>415.716732</ele>
        <time>2021-08-16T21:53:26.187Z</time>
      </trkpt>
      <trkpt lat="47.608602" lon="7.809088">
        <ele>410.128857</ele>
        <time>2021-08-16T21:53:34.735Z</time>
      </trkpt>
      <trkpt lat="47.607803" lon="7.808223">
        <ele>403.437479</ele>
        <time>2021-08-16T21:53:43.552Z</time>
      </trkpt>
      <trkpt lat="47.607595" lon="7.808039">
        <ele>401.680128</ele>
        <time>2021-08-16T21:53:45.690Z</time>
      </trkpt>
      <trkpt lat="47.607385" lon="7.807967">
        <ele>400.116133</ele>
        <time>2021-08-16T21:53:47.615Z</time>
      </trkpt>
      <trkpt lat="47.606698" lon="7.808066">
        <ele>395.107613</ele>
        <time>2021-08-16T21:53:53.788Z</time>
      </trkpt>
      <trkpt lat="47.605899" lon="7.808010">
        <ele>390.322087</ele>
        <time>2021-08-16T21:54:01.132Z</time>
      </trkpt>
      <trkpt lat="47.605468" lon="7.808045">
        <ele>387.764253</ele>
        <time>2021-08-16T21:54:05.169Z</time>
      </trkpt>
      <trkpt lat="47.604338" lon="7.808356">
        <ele>380.998265</ele>
        <time>2021-08-16T21:54:15.742Z</time>
      </trkpt>
      <trkpt lat="47.604147" lon="7.808404">
        <ele>379.866023</ele>
        <time>2021-08-16T21:54:17.532Z</time>
      </trkpt>
      <trkpt lat="47.603933" lon="7.808453">
        <ele>378.600449</ele>
        <time>2021-08-16T21:54:19.442Z</time>
      </trkpt>
      <trkpt lat="47.603664" lon="7.808428">
        <ele>377.025154</ele>
        <time>2021-08-16T21:54:21.941Z</time>
      </trkpt>
      <trkpt lat="47.603050" lon="7.808058">
        <ele>373.377385</ele>
        <time>2021-08-16T21:54:28.136Z</time>
      </trkpt>
      <trkpt lat="47.602603" lon="7.807841">
        <ele>371.784610</ele>
        <time>2021-08-16T21:54:32.567Z</time>
      </trkpt>
      <trkpt lat="47.602352" lon="7.807799">
        <ele>370.929217</ele>
        <time>2021-08-16T21:54:35.128Z</time>
      </trkpt>
      <trkpt lat="47.602242" lon="7.807771">
        <ele>370.551260</ele>
        <time>2021-08-16T21:54:36.233Z</time>
      </trkpt>
      <trkpt lat="47.601856" lon="7.807444">
        <ele>369.045864</ele>
        <time>2021-08-16T21:54:40.844Z</time>
      </trkpt>
      <trkpt lat="47.601434" lon="7.806809">
        <ele>367.326436</ele>
        <time>2021-08-16T21:54:47.363Z</time>
      </trkpt>
      <trkpt lat="47.600919" lon="7.805847">
        <ele>366.032631</ele>
        <time>2021-08-16T21:54:58.190Z</time>
      </trkpt>
      <trkpt lat="47.600707" lon="7.805537">
        <ele>365.567560</ele>
        <time>2021-08-16T21:55:01.632Z</time>
      </trkpt>
      <trkpt lat="47.600367" lon="7.805144">
        <ele>364.894180</ele>
        <time>2021-08-16T21:55:06.377Z</time>
      </trkpt>
      <trkpt lat="47.599983" lon="7.804755">
        <ele>363.437920</ele>
        <time>2021-08-16T21:55:11.281Z</time>
      </trkpt>
      <trkpt lat="47.598398" lon="7.802889">
        <ele>356.647295</ele>
        <time>2021-08-16T21:55:31.219Z</time>
      </trkpt>
      <trkpt lat="47.598146" lon="7.802509">
        <ele>355.478205</ele>
        <time>2021-08-16T21:55:34.832Z</time>
      </trkpt>
      <trkpt lat="47.597927" lon="7.802250">
        <ele>354.567010</ele>
        <time>2021-08-16T21:55:37.683Z</time>
      </trkpt>
      <trkpt lat="47.597625" lon="7.801971">
        <ele>353.409585</ele>
        <time>2021-08-16T21:55:41.373Z</time>
      </trkpt>
      <trkpt lat="47.596866" lon="7.801508">
        <ele>351.806728</ele>
        <time>2021-08-16T21:55:50.179Z</time>
      </trkpt>
      <trkpt lat="47.596631" lon="7.801307">
        <ele>351.376937</ele>
        <time>2021-08-16T21:55:53.402Z</time>
      </trkpt>
      <trkpt lat="47.596083" lon="7.800764">
        <ele>350.332781</ele>
        <time>2021-08-16T21:56:01.374Z</time>
      </trkpt>
      <trkpt lat="47.595757" lon="7.800208">
        <ele>349.649438</ele>
        <time>2021-08-16T21:56:07.488Z</time>
      </trkpt>
      <trkpt lat="47.595466" lon="7.799497">
        <ele>348.978164</ele>
        <time>2021-08-16T21:56:14.190Z</time>
      </trkpt>
      <trkpt lat="47.595383" lon="7.799322">
        <ele>348.805485</ele>
        <time>2021-08-16T21:56:16.185Z</time>
      </trkpt>
      <trkpt lat="47.594957" lon="7.798605">
        <ele>348.034220</ele>
        <time>2021-08-16T21:56:24.042Z</time>
      </trkpt>
      <trkpt lat="47.594663" lon="7.797229">
        <ele>345.875734</ele>
        <time>2021-08-16T21:56:34.759Z</time>
      </trkpt>
      <trkpt lat="47.594653" lon="7.797153">
        <ele>345.747752</ele>
        <time>2021-08-16T21:56:35.290Z</time>
      </trkpt>
      <trkpt lat="47.594601" lon="7.796746">
        <ele>345.063090</ele>
        <time>2021-08-16T21:56:38.362Z</time>
      </trkpt>
      <trkpt lat="47.594592" lon="7.795962">
        <ele>343.767095</ele>
        <time>2021-08-16T21:56:43.759Z</time>
      </trkpt>
      <trkpt lat="47.594615" lon="7.795353">
        <ele>342.746146</ele>
        <time>2021-08-16T21:56:47.871Z</time>
      </trkpt>
      <trkpt lat="47.594661" lon="7.794688">
        <ele>341.619493</ele>
        <time>2021-08-16T21:56:52.347Z</time>
      </trkpt>
      <trkpt lat="47.594661" lon="7.794688">
        <ele>341.619493</ele>
        <time>2021-08-16T21:56:52.373Z</time>
      </trkpt>
      <trkpt lat="47.594661" lon="7.794688">
        <ele>341.619493</ele>
        <time>2021-08-16T21:56:52.373Z</time>
      </trkpt>
      <trkpt lat="47.594421" lon="7.793433">
        <ele>339.420948</ele>
        <time>2021-08-16T21:57:08.722Z</time>
      </trkpt>
      <trkpt lat="47.594337" lon="7.793337">
        <ele>339.155902</ele>
        <time>2021-08-16T21:57:09.900Z</time>
      </trkpt>
      <trkpt lat="47.594118" lon="7.793102">
        <ele>338.982095</ele>
        <time>2021-08-16T21:57:13.675Z</time>
      </trkpt>
      <trkpt lat="47.594068" lon="7.792892">
        <ele>339.041055</ele>
        <time>2021-08-16T21:57:15.593Z</time>
      </trkpt>
      <trkpt lat="47.594082" lon="7.792808">
        <ele>339.063963</ele>
        <time>2021-08-16T21:57:17.087Z</time>
      </trkpt>
      <trkpt lat="47.594154" lon="7.792816">
        <ele>339.092307</ele>
        <time>2021-08-16T21:57:18.047Z</time>
      </trkpt>
      <trkpt lat="47.595133" lon="7.792800">
        <ele>339.476662</ele>
        <time>2021-08-16T21:57:34.408Z</time>
      </trkpt>
      <trkpt lat="47.595245" lon="7.792802">
        <ele>339.520634</ele>
        <time>2021-08-16T21:57:36.758Z</time>
      </trkpt>
      <trkpt lat="47.595581" lon="7.792802">
        <ele>339.782709</ele>
        <time>2021-08-16T21:57:43.958Z</time>
      </trkpt>
      <trkpt lat="47.595750" lon="7.792802">
        <ele>340.115097</ele>
        <time>2021-08-16T21:57:47.799Z</time>
      </trkpt>
      <trkpt lat="47.596504" lon="7.792669">
        <ele>341.608514</ele>
        <time>2021-08-16T21:58:04.881Z</time>
      </trkpt>
      <trkpt lat="47.597646" lon="7.792396">
        <ele>344.135890</ele>
        <time>2021-08-16T21:58:32.183Z</time>
      </trkpt>
      <trkpt lat="47.597848" lon="7.792115">
        <ele>344.869942</ele>
        <time>2021-08-16T21:58:39.300Z</time>
      </trkpt>
      <trkpt lat="47.598017" lon="7.791913">
        <ele>345.445228</ele>
        <time>2021-08-16T21:58:44.893Z</time>
      </trkpt>
      <trkpt lat="47.598252" lon="7.791731">
        <ele>346.147880</ele>
        <time>2021-08-16T21:58:51.977Z</time>
      </trkpt>
      <trkpt lat="47.598252" lon="7.791731">
        <ele>346.147880</ele>
        <time>2021-08-16T21:58:52.001Z</time>
      </trkpt>
      <trkpt lat="47.598592" lon="7.791580">
        <ele>347.088539</ele>
        <time>2021-08-16T21:59:01.462Z</time>
      </trkpt>
      <trkpt lat="47.599667" lon="7.791105">
        <ele>349.533402</ele>
        <time>2021-08-16T21:59:30.036Z</time>
      </trkpt>
      <trkpt lat="47.600151" lon="7.790895">
        <ele>350.539659</ele>
        <time>2021-08-16T21:59:40.786Z</time>
      </trkpt>
      <trkpt lat="47.600211" lon="7.790869">
        <ele>350.664389</ele>
        <time>2021-08-16T21:59:42.085Z</time>
      </trkpt>
      <trkpt lat="47.600304" lon="7.790832">
        <ele>350.856523</ele>
        <time>2021-08-16T21:59:44.079Z</time>
      </trkpt>
      <trkpt lat="47.601073" lon="7.790573">
        <ele>351.974932</ele>
        <time>2021-08-16T21:59:59.534Z</time>
      </trkpt>
      <trkpt lat="47.601359" lon="7.790478">
        <ele>352.269302</ele>
        <time>2021-08-16T22:00:04.949Z</time>
      </trkpt>
      <trkpt lat="47.601768" lon="7.790511">
        <ele>352.680702</ele>
        <time>2021-08-16T22:00:12.413Z</time>
      </trkpt>
      <trkpt lat="47.601954" lon="7.790533">
        <ele>352.868110</ele>
        <time>2021-08-16T22:00:15.738Z</time>
      </trkpt>
      <trkpt lat="47.602292" lon="7.790564">
        <ele>353.208239</ele>
        <time>2021-08-16T22:00:21.945Z</time>
      </trkpt>
      <trkpt lat="47.603218" lon="7.790665">
        <ele>354.505268</ele>
        <time>2021-08-16T22:00:39.605Z</time>
      </trkpt>
      <trkpt lat="47.603379" lon="7.790683">
        <ele>354.739454</ele>
        <time>2021-08-16T22:00:43.003Z</time>
      </trkpt>
      <trkpt lat="47.603500" lon="7.790696">
        <ele>354.915420</ele>
        <time>2021-08-16T22:00:45.685Z</time>
      </trkpt>
      <trkpt lat="47.604020" lon="7.790669">
        <ele>355.670120</ele>
        <time>2021-08-16T22:00:57.063Z</time>
      </trkpt>
      <trkpt lat="47.604312" lon="7.790667">
        <ele>356.260992</ele>
        <time>2021-08-16T22:01:03.561Z</time>
      </trkpt>
      <trkpt lat="47.604673" lon="7.790747">
        <ele>357.328614</ele>
        <time>2021-08-16T22:01:12.013Z</time>
      </trkpt>
      <trkpt lat="47.604776" lon="7.790738">
        <ele>357.630405</ele>
        <time>2021-08-16T22:01:14.565Z</time>
      </trkpt>
      <trkpt lat="47.604861" lon="7.790465">
        <ele>358.223423</ele>
        <time>2021-08-16T22:01:19.674Z</time>
      </trkpt>
      <trkpt lat="47.604933" lon="7.789879">
        <ele>359.398108</ele>
        <time>2021-08-16T22:01:30.432Z</time>
      </trkpt>
      <trkpt lat="47.605245" lon="7.789093">
        <ele>361.198636</ele>
        <time>2021-08-16T22:01:48.500Z</time>
      </trkpt>
      <trkpt lat="47.606058" lon="7.787870">
        <ele>365.456583</ele>
        <time>2021-08-16T22:02:25.875Z</time>
      </trkpt>
      <trkpt lat="47.606236" lon="7.787573">
        <ele>366.441747</ele>
        <time>2021-08-16T22:02:33.323Z</time>
      </trkpt>
      <trkpt lat="47.606482" lon="7.786756">
        <ele>368.179423</ele>
        <time>2021-08-16T22:02:49.214Z</time>
      </trkpt>
      <trkpt lat="47.606894" lon="7.785802">
        <ele>369.411800</ele>
        <time>2021-08-16T22:03:05.440Z</time>
      </trkpt>
      <trkpt lat="47.607090" lon="7.785536">
        <ele>369.840426</ele>
        <time>2021-08-16T22:03:10.882Z</time>
      </trkpt>
      <trkpt lat="47.607244" lon="7.785405">
        <ele>370.126851</ele>
        <time>2021-08-16T22:03:14.056Z</time>
      </trkpt>
      <trkpt lat="47.607357" lon="7.785276">
        <ele>370.356913</ele>
        <time>2021-08-16T22:03:17.012Z</time>
      </trkpt>
      <trkpt lat="47.607784" lon="7.784501">
        <ele>371.748213</ele>
        <time>2021-08-16T22:03:28.549Z</time>
      </trkpt>
      <trkpt lat="47.607811" lon="7.784422">
        <ele>371.883951</ele>
        <time>2021-08-16T22:03:29.856Z</time>
      </trkpt>
      <trkpt lat="47.608000" lon="7.783873">
        <ele>372.828656</ele>
        <time>2021-08-16T22:03:38.603Z</time>
      </trkpt>
      <trkpt lat="47.608067" lon="7.783679">
        <ele>373.162706</ele>
        <time>2021-08-16T22:03:42.263Z</time>
      </trkpt>
      <trkpt lat="47.608293" lon="7.782840">
        <ele>374.547328</ele>
        <time>2021-08-16T22:03:59.098Z</time>
      </trkpt>
      <trkpt lat="47.608319" lon="7.782746">
        <ele>374.703038</ele>
        <time>2021-08-16T22:04:01.294Z</time>
      </trkpt>
      <trkpt lat="47.608448" lon="7.782041">
        <ele>377.484146</ele>
        <time>2021-08-16T22:04:17.232Z</time>
      </trkpt>
      <trkpt lat="47.608437" lon="7.781938">
        <ele>377.902180</ele>
        <time>2021-08-16T22:04:19.607Z</time>
      </trkpt>
      <trkpt lat="47.608309" lon="7.781587">
        <ele>379.501844</ele>
        <time>2021-08-16T22:04:29.531Z</time>
      </trkpt>
      <trkpt lat="47.608295" lon="7.781364">
        <ele>380.399632</ele>
        <time>2021-08-16T22:04:35.087Z</time>
      </trkpt>
      <trkpt lat="47.608399" lon="7.780950">
        <ele>382.170657</ele>
        <time>2021-08-16T22:04:47.123Z</time>
      </trkpt>
      <trkpt lat="47.608573" lon="7.780374">
        <ele>384.700794</ele>
        <time>2021-08-16T22:05:06.332Z</time>
      </trkpt>
      <trkpt lat="47.608894" lon="7.779407">
        <ele>390.297513</ele>
        <time>2021-08-16T22:05:40.985Z</time>
      </trkpt>
      <trkpt lat="47.609368" lon="7.778574">
        <ele>396.245150</ele>
        <time>2021-08-16T22:06:16.458Z</time>
      </trkpt>
      <trkpt lat="47.610133" lon="7.777501">
        <ele>403.913144</ele>
        <time>2021-08-16T22:07:05.336Z</time>
      </trkpt>
      <trkpt lat="47.610341" lon="7.777059">
        <ele>406.322764</ele>
        <time>2021-08-16T22:07:21.084Z</time>
      </trkpt>
      <trkpt lat="47.610448" lon="7.776605">
        <ele>408.472712</ele>
        <time>2021-08-16T22:07:34.286Z</time>
      </trkpt>
      <trkpt lat="47.610502" lon="7.776042">
        <ele>411.014817</ele>
        <time>2021-08-16T22:07:48.880Z</time>
      </trkpt>
      <trkpt lat="47.610473" lon="7.775477">
        <ele>412.799740</ele>
        <time>2021-08-16T22:08:02.368Z</time>
      </trkpt>
      <trkpt lat="47.610312" lon="7.774653">
        <ele>414.814525</ele>
        <time>2021-08-16T22:08:19.477Z</time>
      </trkpt>
      <trkpt lat="47.610130" lon="7.773478">
        <ele>417.645898</ele>
        <time>2021-08-16T22:08:40.494Z</time>
      </trkpt>
      <trkpt lat="47.610111" lon="7.773102">
        <ele>418.455303</ele>
        <time>2021-08-16T22:08:47.048Z</time>
      </trkpt>
      <trkpt lat="47.610141" lon="7.772651">
        <ele>419.244164</ele>
        <time>2021-08-16T22:08:54.484Z</time>
      </trkpt>
      <trkpt lat="47.610258" lon="7.772352">
        <ele>419.845945</ele>
        <time>2021-08-16T22:08:59.568Z</time>
      </trkpt>
      <trkpt lat="47.610475" lon="7.771884">
        <ele>420.834656</ele>
        <time>2021-08-16T22:09:08.697Z</time>
      </trkpt>
      <trkpt lat="47.611349" lon="7.770818">
        <ele>424.134410</ele>
        <time>2021-08-16T22:09:38.082Z</time>
      </trkpt>
      <trkpt lat="47.611495" lon="7.770538">
        <ele>425.016936</ele>
        <time>2021-08-16T22:09:46.086Z</time>
      </trkpt>
      <trkpt lat="47.611735" lon="7.769126">
        <ele>428.647430</ele>
        <time>2021-08-16T22:10:16.369Z</time>
      </trkpt>
      <trkpt lat="47.611843" lon="7.768871">
        <ele>429.398232</ele>
        <time>2021-08-16T22:10:22.616Z</time>
      </trkpt>
      <trkpt lat="47.611720" lon="7.768321">
        <ele>430.768419</ele>
        <time>2021-08-16T22:10:33.925Z</time>
      </trkpt>
      <trkpt lat="47.610892" lon="7.766368">
        <ele>436.293349</ele>
        <time>2021-08-16T22:11:17.894Z</time>
      </trkpt>
      <trkpt lat="47.610797" lon="7.765993">
        <ele>437.479382</ele>
        <time>2021-08-16T22:11:25.652Z</time>
      </trkpt>
      <trkpt lat="47.610767" lon="7.765723">
        <ele>438.289536</ele>
        <time>2021-08-16T22:11:30.985Z</time>
      </trkpt>
      <trkpt lat="47.610607" lon="7.764328">
        <ele>442.478963</ele>
        <time>2021-08-16T22:12:03.423Z</time>
      </trkpt>
      <trkpt lat="47.610505" lon="7.763094">
        <ele>445.826687</ele>
        <time>2021-08-16T22:12:32.709Z</time>
      </trkpt>
      <trkpt lat="47.610510" lon="7.762675">
        <ele>446.899033</ele>
        <time>2021-08-16T22:12:42.159Z</time>
      </trkpt>
      <trkpt lat="47.610537" lon="7.761995">
        <ele>448.642098</ele>
        <time>2021-08-16T22:12:55.499Z</time>
      </trkpt>
      <trkpt lat="47.610580" lon="7.761637">
        <ele>449.572608</ele>
        <time>2021-08-16T22:13:02.272Z</time>
      </trkpt>
      <trkpt lat="47.610601" lon="7.761374">
        <ele>450.250301</ele>
        <time>2021-08-16T22:13:06.856Z</time>
      </trkpt>
      <trkpt lat="47.610760" lon="7.761304">
        <ele>450.619421</ele>
        <time>2021-08-16T22:13:11.081Z</time>
      </trkpt>
      <trkpt lat="47.610854" lon="7.761285">
        <ele>450.709722</ele>
        <time>2021-08-16T22:13:13.210Z</time>
      </trkpt>
      <trkpt lat="47.611933" lon="7.761457">
        <ele>451.742683</ele>
        <time>2021-08-16T22:13:33.634Z</time>
      </trkpt>
      <trkpt lat="47.612022" lon="7.761449">
        <ele>451.827553</ele>
        <time>2021-08-16T22:13:35.135Z</time>
      </trkpt>
      <trkpt lat="47.612075" lon="7.761435">
        <ele>451.878794</ele>
        <time>2021-08-16T22:13:35.936Z</time>
      </trkpt>
      <trkpt lat="47.612465" lon="7.760841">
        <ele>451.900429</ele>
        <time>2021-08-16T22:13:44.164Z</time>
      </trkpt>
      <trkpt lat="47.612630" lon="7.760759">
        <ele>451.558459</ele>
        <time>2021-08-16T22:13:46.517Z</time>
      </trkpt>
      <trkpt lat="47.612851" lon="7.760726">
        <ele>451.121958</ele>
        <time>2021-08-16T22:13:49.302Z</time>
      </trkpt>
      <trkpt lat="47.613059" lon="7.760674">
        <ele>450.707435</ele>
        <time>2021-08-16T22:13:51.806Z</time>
      </trkpt>
      <trkpt lat="47.613148" lon="7.760607">
        <ele>450.511299</ele>
        <time>2021-08-16T22:13:52.953Z</time>
      </trkpt>
      <trkpt lat="47.613231" lon="7.760404">
        <ele>450.196768</ele>
        <time>2021-08-16T22:13:54.763Z</time>
      </trkpt>
      <trkpt lat="47.613222" lon="7.760189">
        <ele>449.911388</ele>
        <time>2021-08-16T22:13:56.341Z</time>
      </trkpt>
      <trkpt lat="47.613191" lon="7.760084">
        <ele>449.759529</ele>
        <time>2021-08-16T22:13:57.136Z</time>
      </trkpt>
      <trkpt lat="47.612949" lon="7.759306">
        <ele>448.449856</ele>
        <time>2021-08-16T22:14:02.931Z</time>
      </trkpt>
      <trkpt lat="47.612715" lon="7.758218">
        <ele>443.838054</ele>
        <time>2021-08-16T22:14:10.213Z</time>
      </trkpt>
      <trkpt lat="47.612663" lon="7.757797">
        <ele>442.109645</ele>
        <time>2021-08-16T22:14:12.837Z</time>
      </trkpt>
      <trkpt lat="47.612641" lon="7.757558">
        <ele>441.135543</ele>
        <time>2021-08-16T22:14:14.338Z</time>
      </trkpt>
      <trkpt lat="47.612636" lon="7.757205">
        <ele>439.709720</ele>
        <time>2021-08-16T22:14:16.425Z</time>
      </trkpt>
      <trkpt lat="47.612616" lon="7.756869">
        <ele>438.347582</ele>
        <time>2021-08-16T22:14:18.508Z</time>
      </trkpt>
      <trkpt lat="47.612605" lon="7.756701">
        <ele>437.584819</ele>
        <time>2021-08-16T22:14:19.482Z</time>
      </trkpt>
      <trkpt lat="47.612477" lon="7.755867">
        <ele>433.090126</ele>
        <time>2021-08-16T22:14:24.694Z</time>
      </trkpt>
      <trkpt lat="47.612425" lon="7.755758">
        <ele>432.388432</ele>
        <time>2021-08-16T22:14:25.452Z</time>
      </trkpt>
      <trkpt lat="47.612348" lon="7.755703">
        <ele>431.722264</ele>
        <time>2021-08-16T22:14:26.204Z</time>
      </trkpt>
      <trkpt lat="47.612242" lon="7.755647">
        <ele>430.845165</ele>
        <time>2021-08-16T22:14:27.242Z</time>
      </trkpt>
      <trkpt lat="47.612167" lon="7.755587">
        <ele>430.180946</ele>
        <time>2021-08-16T22:14:28.003Z</time>
      </trkpt>
      <trkpt lat="47.612142" lon="7.755472">
        <ele>429.545989</ele>
        <time>2021-08-16T22:14:28.687Z</time>
      </trkpt>
      <trkpt lat="47.612180" lon="7.755085">
        <ele>427.490885</ele>
        <time>2021-08-16T22:14:31.099Z</time>
      </trkpt>
      <trkpt lat="47.612137" lon="7.754745">
        <ele>425.673051</ele>
        <time>2021-08-16T22:14:33.139Z</time>
      </trkpt>
      <trkpt lat="47.611836" lon="7.754409">
        <ele>422.909588</ele>
        <time>2021-08-16T22:14:36.513Z</time>
      </trkpt>
      <trkpt lat="47.611658" lon="7.754241">
        <ele>421.506398</ele>
        <time>2021-08-16T22:14:38.359Z</time>
      </trkpt>
      <trkpt lat="47.611506" lon="7.753985">
        <ele>419.976847</ele>
        <time>2021-08-16T22:14:40.474Z</time>
      </trkpt>
      <trkpt lat="47.611310" lon="7.753428">
        <ele>417.159653</ele>
        <time>2021-08-16T22:14:44.330Z</time>
      </trkpt>
      <trkpt lat="47.611269" lon="7.753071">
        <ele>415.535889</ele>
        <time>2021-08-16T22:14:46.559Z</time>
      </trkpt>
      <trkpt lat="47.611242" lon="7.752336">
        <ele>412.235433</ele>
        <time>2021-08-16T22:14:51.051Z</time>
      </trkpt>
      <trkpt lat="47.611288" lon="7.751378">
        <ele>409.573265</ele>
        <time>2021-08-16T22:14:57.150Z</time>
      </trkpt>
      <trkpt lat="47.611255" lon="7.751205">
        <ele>409.096557</ele>
        <time>2021-08-16T22:14:58.310Z</time>
      </trkpt>
      <trkpt lat="47.611197" lon="7.751064">
        <ele>408.658606</ele>
        <time>2021-08-16T22:14:59.401Z</time>
      </trkpt>
      <trkpt lat="47.611094" lon="7.750951">
        <ele>408.154750</ele>
        <time>2021-08-16T22:15:00.759Z</time>
      </trkpt>
      <trkpt lat="47.610714" lon="7.750722">
        <ele>406.541589</ele>
        <time>2021-08-16T22:15:04.895Z</time>
      </trkpt>
      <trkpt lat="47.610643" lon="7.750603">
        <ele>406.120244</ele>
        <time>2021-08-16T22:15:05.968Z</time>
      </trkpt>
      <trkpt lat="47.610520" lon="7.750319">
        <ele>405.225227</ele>
        <time>2021-08-16T22:15:08.420Z</time>
      </trkpt>
      <trkpt lat="47.610345" lon="7.749815">
        <ele>404.556466</ele>
        <time>2021-08-16T22:15:12.505Z</time>
      </trkpt>
      <trkpt lat="47.610303" lon="7.749507">
        <ele>404.324492</ele>
        <time>2021-08-16T22:15:14.812Z</time>
      </trkpt>
      <trkpt lat="47.610331" lon="7.749289">
        <ele>404.160667</ele>
        <time>2021-08-16T22:15:16.605Z</time>
      </trkpt>
      <trkpt lat="47.610399" lon="7.749144">
        <ele>404.030276</ele>
        <time>2021-08-16T22:15:18.148Z</time>
      </trkpt>
      <trkpt lat="47.610897" lon="7.748667">
        <ele>403.381160</ele>
        <time>2021-08-16T22:15:26.153Z</time>
      </trkpt>
      <trkpt lat="47.611024" lon="7.748403">
        <ele>403.141745</ele>
        <time>2021-08-16T22:15:29.439Z</time>
      </trkpt>
      <trkpt lat="47.611423" lon="7.747196">
        <ele>401.576931</ele>
        <time>2021-08-16T22:15:41.392Z</time>
      </trkpt>
      <trkpt lat="47.611508" lon="7.746851">
        <ele>401.101410</ele>
        <time>2021-08-16T22:15:44.058Z</time>
      </trkpt>
      <trkpt lat="47.611647" lon="7.746050">
        <ele>400.030653</ele>
        <time>2021-08-16T22:15:49.990Z</time>
      </trkpt>
      <trkpt lat="47.611691" lon="7.745486">
        <ele>399.159191</ele>
        <time>2021-08-16T22:15:53.794Z</time>
      </trkpt>
      <trkpt lat="47.611651" lon="7.745141">
        <ele>398.317919</ele>
        <time>2021-08-16T22:15:56.175Z</time>
      </trkpt>
      <trkpt lat="47.611609" lon="7.744853">
        <ele>397.609791</ele>
        <time>2021-08-16T22:15:58.091Z</time>
      </trkpt>
      <trkpt lat="47.611456" lon="7.744262">
        <ele>396.088381</ele>
        <time>2021-08-16T22:16:02.375Z</time>
      </trkpt>
      <trkpt lat="47.611241" lon="7.743837">
        <ele>394.811437</ele>
        <time>2021-08-16T22:16:05.954Z</time>
      </trkpt>
      <trkpt lat="47.611161" lon="7.743634">
        <ele>394.246347</ele>
        <time>2021-08-16T22:16:07.509Z</time>
      </trkpt>
      <trkpt lat="47.611010" lon="7.743033">
        <ele>392.779979</ele>
        <time>2021-08-16T22:16:11.756Z</time>
      </trkpt>
      <trkpt lat="47.610879" lon="7.741793">
        <ele>390.432447</ele>
        <time>2021-08-16T22:16:20.475Z</time>
      </trkpt>
      <trkpt lat="47.610871" lon="7.741420">
        <ele>389.734454</ele>
        <time>2021-08-16T22:16:23.256Z</time>
      </trkpt>
      <trkpt lat="47.610898" lon="7.741056">
        <ele>389.049539</ele>
        <time>2021-08-16T22:16:26.028Z</time>
      </trkpt>
      <trkpt lat="47.611129" lon="7.739819">
        <ele>386.798230</ele>
        <time>2021-08-16T22:16:35.110Z</time>
      </trkpt>
      <trkpt lat="47.611382" lon="7.739254">
        <ele>385.664598</ele>
        <time>2021-08-16T22:16:39.772Z</time>
      </trkpt>
      <trkpt lat="47.611618" lon="7.738936">
        <ele>384.874160</ele>
        <time>2021-08-16T22:16:43.118Z</time>
      </trkpt>
      <trkpt lat="47.611684" lon="7.738828">
        <ele>384.630533</ele>
        <time>2021-08-16T22:16:44.187Z</time>
      </trkpt>
      <trkpt lat="47.611751" lon="7.738698">
        <ele>384.357042</ele>
        <time>2021-08-16T22:16:45.401Z</time>
      </trkpt>
      <trkpt lat="47.611785" lon="7.738609">
        <ele>384.186072</ele>
        <time>2021-08-16T22:16:46.091Z</time>
      </trkpt>
      <trkpt lat="47.611872" lon="7.738156">
        <ele>383.595925</ele>
        <time>2021-08-16T22:16:49.695Z</time>
      </trkpt>
      <trkpt lat="47.611893" lon="7.737711">
        <ele>383.602827</ele>
        <time>2021-08-16T22:16:53.141Z</time>
      </trkpt>
      <trkpt lat="47.611965" lon="7.737457">
        <ele>383.607090</ele>
        <time>2021-08-16T22:16:55.340Z</time>
      </trkpt>
      <trkpt lat="47.612044" lon="7.737224">
        <ele>383.611125</ele>
        <time>2021-08-16T22:16:57.464Z</time>
      </trkpt>
      <trkpt lat="47.612194" lon="7.737048">
        <ele>383.615514</ele>
        <time>2021-08-16T22:17:00.426Z</time>
      </trkpt>
      <trkpt lat="47.612447" lon="7.736778">
        <ele>383.622667</ele>
        <time>2021-08-16T22:17:05.402Z</time>
      </trkpt>
      <trkpt lat="47.612712" lon="7.736151">
        <ele>383.634116</ele>
        <time>2021-08-16T22:17:15.786Z</time>
      </trkpt>
      <trkpt lat="47.613210" lon="7.735944">
        <ele>385.580952</ele>
        <time>2021-08-16T22:17:27.828Z</time>
      </trkpt>
      <trkpt lat="47.613317" lon="7.735838">
        <ele>386.123462</ele>
        <time>2021-08-16T22:17:31.710Z</time>
      </trkpt>
      <trkpt lat="47.613375" lon="7.735736">
        <ele>386.502751</ele>
        <time>2021-08-16T22:17:33.900Z</time>
      </trkpt>
      <trkpt lat="47.613434" lon="7.735397">
        <ele>387.497915</ele>
        <time>2021-08-16T22:17:41.116Z</time>
      </trkpt>
      <trkpt lat="47.613390" lon="7.735211">
        <ele>388.058204</ele>
        <time>2021-08-16T22:17:45.416Z</time>
      </trkpt>
      <trkpt lat="47.613181" lon="7.734997">
        <ele>389.128975</ele>
        <time>2021-08-16T22:17:55.571Z</time>
      </trkpt>
      <trkpt lat="47.612755" lon="7.734867">
        <ele>390.962767</ele>
        <time>2021-08-16T22:18:12.027Z</time>
      </trkpt>
      <trkpt lat="47.612618" lon="7.734756">
        <ele>391.846512</ele>
        <time>2021-08-16T22:18:18.902Z</time>
      </trkpt>
      <trkpt lat="47.612558" lon="7.734604">
        <ele>392.628227</ele>
        <time>2021-08-16T22:18:23.448Z</time>
      </trkpt>
      <trkpt lat="47.612560" lon="7.734334">
        <ele>393.826567</ele>
        <time>2021-08-16T22:18:31.188Z</time>
      </trkpt>
      <trkpt lat="47.612562" lon="7.734273">
        <ele>394.097607</ele>
        <time>2021-08-16T22:18:32.965Z</time>
      </trkpt>
      <trkpt lat="47.612580" lon="7.733842">
        <ele>396.014064</ele>
        <time>2021-08-16T22:18:42.756Z</time>
      </trkpt>
      <trkpt lat="47.612580" lon="7.733841">
        <ele>396.018502</ele>
        <time>2021-08-16T22:18:43.151Z</time>
      </trkpt>
      <trkpt lat="47.612582" lon="7.733083">
        <ele>399.382552</ele>
        <time>2021-08-16T22:19:03.550Z</time>
      </trkpt>
      <trkpt lat="47.612414" lon="7.731732">
        <ele>405.177892</ele>
        <time>2021-08-16T22:19:45.174Z</time>
      </trkpt>
      <trkpt lat="47.612490" lon="7.730332">
        <ele>410.634232</ele>
        <time>2021-08-16T22:20:18.279Z</time>
      </trkpt>
      <trkpt lat="47.612445" lon="7.730023">
        <ele>411.862328</ele>
        <time>2021-08-16T22:20:25.754Z</time>
      </trkpt>
      <trkpt lat="47.612234" lon="7.729223">
        <ele>414.732854</ele>
        <time>2021-08-16T22:20:47.775Z</time>
      </trkpt>
      <trkpt lat="47.612102" lon="7.728839">
        <ele>415.966986</ele>
        <time>2021-08-16T22:20:58.702Z</time>
      </trkpt>
      <trkpt lat="47.611794" lon="7.728207">
        <ele>418.199808</ele>
        <time>2021-08-16T22:21:16.311Z</time>
      </trkpt>
      <trkpt lat="47.611673" lon="7.727743">
        <ele>419.624252</ele>
        <time>2021-08-16T22:21:26.406Z</time>
      </trkpt>
      <trkpt lat="47.611558" lon="7.727374">
        <ele>420.788199</ele>
        <time>2021-08-16T22:21:34.421Z</time>
      </trkpt>
      <trkpt lat="47.611696" lon="7.727069">
        <ele>421.024394</ele>
        <time>2021-08-16T22:21:40.198Z</time>
      </trkpt>
      <trkpt lat="47.612294" lon="7.725494">
        <ele>420.760834</ele>
        <time>2021-08-16T22:21:59.536Z</time>
      </trkpt>
      <trkpt lat="47.612626" lon="7.724023">
        <ele>418.342555</ele>
        <time>2021-08-16T22:22:09.956Z</time>
      </trkpt>
      <trkpt lat="47.613151" lon="7.722474">
        <ele>414.131977</ele>
        <time>2021-08-16T22:22:21.488Z</time>
      </trkpt>
      <trkpt lat="47.613293" lon="7.722239">
        <ele>413.291223</ele>
        <time>2021-08-16T22:22:23.593Z</time>
      </trkpt>
      <trkpt lat="47.614307" lon="7.721193">
        <ele>408.410332</ele>
        <time>2021-08-16T22:22:35.845Z</time>
      </trkpt>
      <trkpt lat="47.614657" lon="7.720991">
        <ele>406.885873</ele>
        <time>2021-08-16T22:22:39.418Z</time>
      </trkpt>
      <trkpt lat="47.615110" lon="7.720843">
        <ele>404.621160</ele>
        <time>2021-08-16T22:22:43.827Z</time>
      </trkpt>
      <trkpt lat="47.615394" lon="7.720757">
        <ele>403.205976</ele>
        <time>2021-08-16T22:22:46.551Z</time>
      </trkpt>
      <trkpt lat="47.615630" lon="7.720579">
        <ele>401.913362</ele>
        <time>2021-08-16T22:22:49.038Z</time>
      </trkpt>
      <trkpt lat="47.615890" lon="7.720244">
        <ele>400.231986</ele>
        <time>2021-08-16T22:22:52.235Z</time>
      </trkpt>
      <trkpt lat="47.616298" lon="7.719670">
        <ele>397.871445</ele>
        <time>2021-08-16T22:22:57.471Z</time>
      </trkpt>
      <trkpt lat="47.617098" lon="7.718278">
        <ele>394.645403</ele>
        <time>2021-08-16T22:23:10.218Z</time>
      </trkpt>
      <trkpt lat="47.617269" lon="7.718018">
        <ele>394.004778</ele>
        <time>2021-08-16T22:23:13.503Z</time>
      </trkpt>
      <trkpt lat="47.617441" lon="7.717849">
        <ele>393.614691</ele>
        <time>2021-08-16T22:23:16.515Z</time>
      </trkpt>
      <trkpt lat="47.617832" lon="7.717579">
        <ele>393.651398</ele>
        <time>2021-08-16T22:23:23.488Z</time>
      </trkpt>
      <trkpt lat="47.618344" lon="7.717282">
        <ele>393.698188</ele>
        <time>2021-08-16T22:23:33.168Z</time>
      </trkpt>
      <trkpt lat="47.619037" lon="7.717037">
        <ele>393.758822</ele>
        <time>2021-08-16T22:23:45.276Z</time>
      </trkpt>
      <trkpt lat="47.619222" lon="7.716913">
        <ele>393.477325</ele>
        <time>2021-08-16T22:23:48.071Z</time>
      </trkpt>
      <trkpt lat="47.619370" lon="7.716703">
        <ele>393.095361</ele>
        <time>2021-08-16T22:23:50.496Z</time>
      </trkpt>
      <trkpt lat="47.620083" lon="7.715138">
        <ele>390.720620</ele>
        <time>2021-08-16T22:24:04.032Z</time>
      </trkpt>
      <trkpt lat="47.620154" lon="7.714902">
        <ele>390.402987</ele>
        <time>2021-08-16T22:24:05.757Z</time>
      </trkpt>
      <trkpt lat="47.620355" lon="7.714031">
        <ele>389.909244</ele>
        <time>2021-08-16T22:24:12.845Z</time>
      </trkpt>
      <trkpt lat="47.620562" lon="7.712881">
        <ele>389.270878</ele>
        <time>2021-08-16T22:24:23.061Z</time>
      </trkpt>
      <trkpt lat="47.620583" lon="7.712051">
        <ele>388.877567</ele>
        <time>2021-08-16T22:24:33.506Z</time>
      </trkpt>
      <trkpt lat="47.620668" lon="7.711439">
        <ele>388.657509</ele>
        <time>2021-08-16T22:24:41.528Z</time>
      </trkpt>
      <trkpt lat="47.620838" lon="7.710891">
        <ele>388.445060</ele>
        <time>2021-08-16T22:24:48.261Z</time>
      </trkpt>
      <trkpt lat="47.620944" lon="7.709648">
        <ele>387.692289</ele>
        <time>2021-08-16T22:24:58.224Z</time>
      </trkpt>
      <trkpt lat="47.621059" lon="7.709139">
        <ele>385.755557</ele>
        <time>2021-08-16T22:25:01.822Z</time>
      </trkpt>
      <trkpt lat="47.621330" lon="7.708277">
        <ele>382.324095</ele>
        <time>2021-08-16T22:25:07.849Z</time>
      </trkpt>
      <trkpt lat="47.621520" lon="7.707900">
        <ele>380.625847</ele>
        <time>2021-08-16T22:25:10.734Z</time>
      </trkpt>
      <trkpt lat="47.621593" lon="7.707590">
        <ele>379.441185</ele>
        <time>2021-08-16T22:25:12.719Z</time>
      </trkpt>
      <trkpt lat="47.621611" lon="7.706298">
        <ele>372.755287</ele>
        <time>2021-08-16T22:25:20.415Z</time>
      </trkpt>
      <trkpt lat="47.621789" lon="7.705094">
        <ele>365.830104</ele>
        <time>2021-08-16T22:25:27.722Z</time>
      </trkpt>
      <trkpt lat="47.621888" lon="7.704755">
        <ele>363.754436</ele>
        <time>2021-08-16T22:25:29.906Z</time>
      </trkpt>
      <trkpt lat="47.622344" lon="7.703662">
        <ele>356.919562</ele>
        <time>2021-08-16T22:25:37.484Z</time>
      </trkpt>
      <trkpt lat="47.622692" lon="7.702977">
        <ele>352.371223</ele>
        <time>2021-08-16T22:25:42.623Z</time>
      </trkpt>
      <trkpt lat="47.622874" lon="7.702287">
        <ele>348.764110</ele>
        <time>2021-08-16T22:25:47.126Z</time>
      </trkpt>
      <trkpt lat="47.622996" lon="7.702123">
        <ele>347.973500</ele>
        <time>2021-08-16T22:25:48.712Z</time>
      </trkpt>
      <trkpt lat="47.623108" lon="7.702060">
        <ele>347.398274</ele>
        <time>2021-08-16T22:25:49.759Z</time>
      </trkpt>
      <trkpt lat="47.623205" lon="7.702085">
        <ele>346.925466</ele>
        <time>2021-08-16T22:25:50.736Z</time>
      </trkpt>
      <trkpt lat="47.623513" lon="7.702279">
        <ele>345.318557</ele>
        <time>2021-08-16T22:25:53.870Z</time>
      </trkpt>
      <trkpt lat="47.623648" lon="7.702270">
        <ele>344.669580</ele>
        <time>2021-08-16T22:25:55.257Z</time>
      </trkpt>
      <trkpt lat="47.623958" lon="7.701951">
        <ele>342.857817</ele>
        <time>2021-08-16T22:25:58.914Z</time>
      </trkpt>
      <trkpt lat="47.624323" lon="7.701445">
        <ele>340.517409</ele>
        <time>2021-08-16T22:26:03.720Z</time>
      </trkpt>
      <trkpt lat="47.624857" lon="7.700230">
        <ele>337.424261</ele>
        <time>2021-08-16T22:26:14.029Z</time>
      </trkpt>
      <trkpt lat="47.625309" lon="7.699433">
        <ele>335.203067</ele>
        <time>2021-08-16T22:26:21.097Z</time>
      </trkpt>
      <trkpt lat="47.625461" lon="7.699273">
        <ele>334.617150</ele>
        <time>2021-08-16T22:26:22.950Z</time>
      </trkpt>
      <trkpt lat="47.626086" lon="7.698992">
        <ele>332.574570</ele>
        <time>2021-08-16T22:26:29.504Z</time>
      </trkpt>
      <trkpt lat="47.626452" lon="7.698602">
        <ele>331.165220</ele>
        <time>2021-08-16T22:26:34.065Z</time>
      </trkpt>
      <trkpt lat="47.627231" lon="7.697773">
        <ele>328.675456</ele>
        <time>2021-08-16T22:26:44.023Z</time>
      </trkpt>
      <trkpt lat="47.627884" lon="7.697343">
        <ele>327.431612</ele>
        <time>2021-08-16T22:26:51.878Z</time>
      </trkpt>
      <trkpt lat="47.628021" lon="7.697269">
        <ele>327.177774</ele>
        <time>2021-08-16T22:26:53.576Z</time>
      </trkpt>
      <trkpt lat="47.628516" lon="7.697169">
        <ele>326.307997</ele>
        <time>2021-08-16T22:27:02.281Z</time>
      </trkpt>
      <trkpt lat="47.629210" lon="7.696607">
        <ele>326.237207</ele>
        <time>2021-08-16T22:27:16.949Z</time>
      </trkpt>
      <trkpt lat="47.629568" lon="7.696115">
        <ele>326.274371</ele>
        <time>2021-08-16T22:27:27.638Z</time>
      </trkpt>
      <trkpt lat="47.629730" lon="7.695969">
        <ele>326.288807</ele>
        <time>2021-08-16T22:27:31.809Z</time>
      </trkpt>
      <trkpt lat="47.630492" lon="7.695689">
        <ele>325.746103</ele>
        <time>2021-08-16T22:27:51.134Z</time>
      </trkpt>
      <trkpt lat="47.630798" lon="7.695688">
        <ele>325.287290</ele>
        <time>2021-08-16T22:27:56.310Z</time>
      </trkpt>
      <trkpt lat="47.630920" lon="7.695687">
        <ele>325.104362</ele>
        <time>2021-08-16T22:27:58.380Z</time>
      </trkpt>
      <trkpt lat="47.631501" lon="7.695775">
        <ele>324.228692</ele>
        <time>2021-08-16T22:28:07.353Z</time>
      </trkpt>
      <trkpt lat="47.631816" lon="7.695863">
        <ele>323.748088</ele>
        <time>2021-08-16T22:28:12.209Z</time>
      </trkpt>
      <trkpt lat="47.631911" lon="7.695669">
        <ele>323.271197</ele>
        <time>2021-08-16T22:28:13.853Z</time>
      </trkpt>
      <trkpt lat="47.631973" lon="7.695502">
        <ele>322.691726</ele>
        <time>2021-08-16T22:28:15.345Z</time>
      </trkpt>
      <trkpt lat="47.631985" lon="7.695469">
        <ele>322.577763</ele>
        <time>2021-08-16T22:28:15.550Z</time>
      </trkpt>
      <trkpt lat="47.632076" lon="7.695243">
        <ele>321.777637</ele>
        <time>2021-08-16T22:28:17.367Z</time>
      </trkpt>
      <trkpt lat="47.632096" lon="7.695178">
        <ele>321.560473</ele>
        <time>2021-08-16T22:28:17.824Z</time>
      </trkpt>
      <trkpt lat="47.632164" lon="7.694950">
        <ele>320.802710</ele>
        <time>2021-08-16T22:28:19.422Z</time>
      </trkpt>
      <trkpt lat="47.632229" lon="7.694703">
        <ele>319.996826</ele>
        <time>2021-08-16T22:28:21.107Z</time>
      </trkpt>
      <trkpt lat="47.632297" lon="7.694443">
        <ele>319.149217</ele>
        <time>2021-08-16T22:28:22.881Z</time>
      </trkpt>
      <trkpt lat="47.632440" lon="7.693874">
        <ele>317.303588</ele>
        <time>2021-08-16T22:28:26.694Z</time>
      </trkpt>
      <trkpt lat="47.632526" lon="7.693622">
        <ele>316.445111</ele>
        <time>2021-08-16T22:28:28.424Z</time>
      </trkpt>
      <trkpt lat="47.632642" lon="7.693416">
        <ele>315.629240</ele>
        <time>2021-08-16T22:28:30.121Z</time>
      </trkpt>
      <trkpt lat="47.632763" lon="7.693227">
        <ele>315.081939</ele>
        <time>2021-08-16T22:28:31.798Z</time>
      </trkpt>
      <trkpt lat="47.632822" lon="7.693157">
        <ele>314.865107</ele>
        <time>2021-08-16T22:28:32.568Z</time>
      </trkpt>
      <trkpt lat="47.633091" lon="7.692798">
        <ele>313.826622</ele>
        <time>2021-08-16T22:28:36.327Z</time>
      </trkpt>
      <trkpt lat="47.633173" lon="7.692695">
        <ele>313.518243</ele>
        <time>2021-08-16T22:28:37.548Z</time>
      </trkpt>
      <trkpt lat="47.633202" lon="7.692660">
        <ele>313.410944</ele>
        <time>2021-08-16T22:28:37.917Z</time>
      </trkpt>
      <trkpt lat="47.633266" lon="7.692577">
        <ele>313.166966</ele>
        <time>2021-08-16T22:28:38.776Z</time>
      </trkpt>
      <trkpt lat="47.633399" lon="7.692413">
        <ele>312.670596</ele>
        <time>2021-08-16T22:28:40.608Z</time>
      </trkpt>
      <trkpt lat="47.633588" lon="7.692141">
        <ele>311.914856</ele>
        <time>2021-08-16T22:28:43.347Z</time>
      </trkpt>
      <trkpt lat="47.633548" lon="7.692076">
        <ele>311.744587</ele>
        <time>2021-08-16T22:28:43.993Z</time>
      </trkpt>
      <trkpt lat="47.633168" lon="7.691051">
        <ele>310.077053</ele>
        <time>2021-08-16T22:28:52.733Z</time>
      </trkpt>
      <trkpt lat="47.633134" lon="7.690866">
        <ele>309.961063</ele>
        <time>2021-08-16T22:28:54.291Z</time>
      </trkpt>
      <trkpt lat="47.633123" lon="7.690653">
        <ele>309.831846</ele>
        <time>2021-08-16T22:28:56.065Z</time>
      </trkpt>
      <trkpt lat="47.633120" lon="7.690596">
        <ele>309.797263</ele>
        <time>2021-08-16T22:28:56.483Z</time>
      </trkpt>
      <trkpt lat="47.633090" lon="7.690331">
        <ele>309.634724</ele>
        <time>2021-08-16T22:28:58.839Z</time>
      </trkpt>
      <trkpt lat="47.633034" lon="7.690065">
        <ele>309.466156</ele>
        <time>2021-08-16T22:29:01.201Z</time>
      </trkpt>
      <trkpt lat="47.632964" lon="7.689905">
        <ele>309.350768</ele>
        <time>2021-08-16T22:29:02.994Z</time>
      </trkpt>
      <trkpt lat="47.632879" lon="7.689719">
        <ele>309.214829</ele>
        <time>2021-08-16T22:29:05.200Z</time>
      </trkpt>
      <trkpt lat="47.632643" lon="7.689293">
        <ele>308.881251</ele>
        <time>2021-08-16T22:29:10.292Z</time>
      </trkpt>
      <trkpt lat="47.632379" lon="7.688829">
        <ele>308.728412</ele>
        <time>2021-08-16T22:29:15.742Z</time>
      </trkpt>
      <trkpt lat="47.632137" lon="7.688381">
        <ele>308.720428</ele>
        <time>2021-08-16T22:29:21.043Z</time>
      </trkpt>
      <trkpt lat="47.632006" lon="7.688132">
        <ele>308.716035</ele>
        <time>2021-08-16T22:29:23.950Z</time>
      </trkpt>
      <trkpt lat="47.631926" lon="7.687942">
        <ele>308.712920</ele>
        <time>2021-08-16T22:29:26.375Z</time>
      </trkpt>
      <trkpt lat="47.631844" lon="7.687700">
        <ele>308.709154</ele>
        <time>2021-08-16T22:29:29.033Z</time>
      </trkpt>
      <trkpt lat="47.631760" lon="7.687488">
        <ele>308.705734</ele>
        <time>2021-08-16T22:29:31.863Z</time>
      </trkpt>
      <trkpt lat="47.631713" lon="7.687383">
        <ele>308.703981</ele>
        <time>2021-08-16T22:29:33.180Z</time>
      </trkpt>
      <trkpt lat="47.631655" lon="7.687264">
        <ele>308.701939</ele>
        <time>2021-08-16T22:29:34.757Z</time>
      </trkpt>
      <trkpt lat="47.631607" lon="7.687387">
        <ele>308.699962</ele>
        <time>2021-08-16T22:29:45.890Z</time>
      </trkpt>
      <trkpt lat="47.631607" lon="7.687387">
        <ele>308.699962</ele>
        <time>2021-08-16T22:29:45.901Z</time>
      </trkpt>
      <trkpt lat="47.631607" lon="7.687387">
        <ele>308.699962</ele>
        <time>2021-08-16T22:29:45.911Z</time>
      </trkpt>
      <trkpt lat="47.631655" lon="7.687264">
        <ele>308.697986</ele>
        <time>2021-08-16T22:29:56.615Z</time>
      </trkpt>
      <trkpt lat="47.631631" lon="7.687221">
        <ele>308.697210</ele>
        <time>2021-08-16T22:29:57.144Z</time>
      </trkpt>
      <trkpt lat="47.631536" lon="7.687074">
        <ele>308.705023</ele>
        <time>2021-08-16T22:29:59.304Z</time>
      </trkpt>
      <trkpt lat="47.631402" lon="7.686886">
        <ele>308.721808</ele>
        <time>2021-08-16T22:30:02.338Z</time>
      </trkpt>
      <trkpt lat="47.631363" lon="7.686832">
        <ele>308.726663</ele>
        <time>2021-08-16T22:30:03.070Z</time>
      </trkpt>
      <trkpt lat="47.631303" lon="7.686748">
        <ele>308.734172</ele>
        <time>2021-08-16T22:30:04.274Z</time>
      </trkpt>
      <trkpt lat="47.631278" lon="7.686713">
        <ele>308.737300</ele>
        <time>2021-08-16T22:30:04.732Z</time>
      </trkpt>
      <trkpt lat="47.631216" lon="7.686627">
        <ele>308.745025</ele>
        <time>2021-08-16T22:30:06.252Z</time>
      </trkpt>
      <trkpt lat="47.630927" lon="7.686060">
        <ele>308.788633</ele>
        <time>2021-08-16T22:30:12.791Z</time>
      </trkpt>
      <trkpt lat="47.630747" lon="7.685457">
        <ele>308.829088</ele>
        <time>2021-08-16T22:30:19.066Z</time>
      </trkpt>
      <trkpt lat="47.630549" lon="7.684835">
        <ele>309.077998</ele>
        <time>2021-08-16T22:30:26.332Z</time>
      </trkpt>
      <trkpt lat="47.630348" lon="7.684274">
        <ele>309.834881</ele>
        <time>2021-08-16T22:30:34.238Z</time>
      </trkpt>
      <trkpt lat="47.630302" lon="7.684172">
        <ele>309.981089</ele>
        <time>2021-08-16T22:30:35.950Z</time>
      </trkpt>
      <trkpt lat="47.630246" lon="7.684279">
        <ele>310.142479</ele>
        <time>2021-08-16T22:30:38.385Z</time>
      </trkpt>
      <trkpt lat="47.630302" lon="7.684172">
        <ele>310.303870</ele>
        <time>2021-08-16T22:30:40.044Z</time>
      </trkpt>
      <trkpt lat="47.630200" lon="7.683945">
        <ele>310.628888</ele>
        <time>2021-08-16T22:30:44.540Z</time>
      </trkpt>
      <trkpt lat="47.630114" lon="7.683752">
        <ele>310.904519</ele>
        <time>2021-08-16T22:30:48.285Z</time>
      </trkpt>
      <trkpt lat="47.629964" lon="7.683492">
        <ele>311.312246</ele>
        <time>2021-08-16T22:30:53.834Z</time>
      </trkpt>
      <trkpt lat="47.629502" lon="7.682853">
        <ele>312.297219</ele>
        <time>2021-08-16T22:31:10.809Z</time>
      </trkpt>
      <trkpt lat="47.629225" lon="7.682524">
        <ele>312.712535</ele>
        <time>2021-08-16T22:31:19.534Z</time>
      </trkpt>
      <trkpt lat="47.629074" lon="7.682346">
        <ele>312.938273</ele>
        <time>2021-08-16T22:31:22.996Z</time>
      </trkpt>
      <trkpt lat="47.629021" lon="7.682285">
        <ele>313.016786</ele>
        <time>2021-08-16T22:31:24.108Z</time>
      </trkpt>
      <trkpt lat="47.628926" lon="7.682175">
        <ele>313.157838</ele>
        <time>2021-08-16T22:31:26.760Z</time>
      </trkpt>
      <trkpt lat="47.628800" lon="7.682032">
        <ele>313.343520</ele>
        <time>2021-08-16T22:31:30.074Z</time>
      </trkpt>
      <trkpt lat="47.628745" lon="7.681969">
        <ele>313.424850</ele>
        <time>2021-08-16T22:31:30.990Z</time>
      </trkpt>
      <trkpt lat="47.628705" lon="7.681923">
        <ele>313.484088</ele>
        <time>2021-08-16T22:31:32.215Z</time>
      </trkpt>
      <trkpt lat="47.628589" lon="7.681765">
        <ele>313.668403</ele>
        <time>2021-08-16T22:31:35.010Z</time>
      </trkpt>
      <trkpt lat="47.628285" lon="7.681330">
        <ele>314.104777</ele>
        <time>2021-08-16T22:31:41.711Z</time>
      </trkpt>
      <trkpt lat="47.628181" lon="7.681165">
        <ele>313.704188</ele>
        <time>2021-08-16T22:31:43.702Z</time>
      </trkpt>
      <trkpt lat="47.628138" lon="7.681041">
        <ele>313.456916</ele>
        <time>2021-08-16T22:31:44.716Z</time>
      </trkpt>
      <trkpt lat="47.628093" lon="7.680912">
        <ele>313.199352</ele>
        <time>2021-08-16T22:31:46.140Z</time>
      </trkpt>
      <trkpt lat="47.628083" lon="7.680843">
        <ele>313.074206</ele>
        <time>2021-08-16T22:31:46.607Z</time>
      </trkpt>
      <trkpt lat="47.628092" lon="7.680801">
        <ele>312.996059</ele>
        <time>2021-08-16T22:31:46.909Z</time>
      </trkpt>
      <trkpt lat="47.628094" lon="7.680756">
        <ele>312.916093</ele>
        <time>2021-08-16T22:31:47.229Z</time>
      </trkpt>
      <trkpt lat="47.628088" lon="7.680711">
        <ele>312.834754</ele>
        <time>2021-08-16T22:31:47.617Z</time>
      </trkpt>
      <trkpt lat="47.628030" lon="7.680605">
        <ele>312.592650</ele>
        <time>2021-08-16T22:31:48.752Z</time>
      </trkpt>
      <trkpt lat="47.628001" lon="7.680587">
        <ele>312.509943</ele>
        <time>2021-08-16T22:31:49.038Z</time>
      </trkpt>
      <trkpt lat="47.627968" lon="7.680581">
        <ele>312.422469</ele>
        <time>2021-08-16T22:31:49.415Z</time>
      </trkpt>
      <trkpt lat="47.627935" lon="7.680589">
        <ele>312.334493</ele>
        <time>2021-08-16T22:31:49.775Z</time>
      </trkpt>
      <trkpt lat="47.627905" lon="7.680608">
        <ele>312.248673</ele>
        <time>2021-08-16T22:31:50.152Z</time>
      </trkpt>
      <trkpt lat="47.627860" lon="7.680600">
        <ele>312.129429</ele>
        <time>2021-08-16T22:31:50.571Z</time>
      </trkpt>
      <trkpt lat="47.627797" lon="7.680564">
        <ele>311.951806</ele>
        <time>2021-08-16T22:31:51.216Z</time>
      </trkpt>
      <trkpt lat="47.627709" lon="7.680520">
        <ele>311.707482</ele>
        <time>2021-08-16T22:31:52.357Z</time>
      </trkpt>
      <trkpt lat="47.627657" lon="7.680455">
        <ele>311.528590</ele>
        <time>2021-08-16T22:31:53.008Z</time>
      </trkpt>
      <trkpt lat="47.627438" lon="7.680175">
        <ele>310.767991</ele>
        <time>2021-08-16T22:31:55.817Z</time>
      </trkpt>
      <trkpt lat="47.627263" lon="7.679924">
        <ele>310.127610</ele>
        <time>2021-08-16T22:31:58.147Z</time>
      </trkpt>
      <trkpt lat="47.626895" lon="7.679366">
        <ele>308.823671</ele>
        <time>2021-08-16T22:32:03.422Z</time>
      </trkpt>
      <trkpt lat="47.626749" lon="7.679157">
        <ele>308.354043</ele>
        <time>2021-08-16T22:32:05.582Z</time>
      </trkpt>
      <trkpt lat="47.626628" lon="7.678990">
        <ele>307.971496</ele>
        <time>2021-08-16T22:32:07.545Z</time>
      </trkpt>
      <trkpt lat="47.626529" lon="7.678853">
        <ele>307.658116</ele>
        <time>2021-08-16T22:32:08.904Z</time>
      </trkpt>
      <trkpt lat="47.626402" lon="7.678661">
        <ele>307.238398</ele>
        <time>2021-08-16T22:32:10.889Z</time>
      </trkpt>
      <trkpt lat="47.626380" lon="7.678630">
        <ele>307.168164</ele>
        <time>2021-08-16T22:32:11.320Z</time>
      </trkpt>
      <trkpt lat="47.625998" lon="7.678087">
        <ele>305.943551</ele>
        <time>2021-08-16T22:32:16.986Z</time>
      </trkpt>
      <trkpt lat="47.625812" lon="7.677851">
        <ele>305.377013</ele>
        <time>2021-08-16T22:32:19.851Z</time>
      </trkpt>
      <trkpt lat="47.625653" lon="7.677673">
        <ele>305.103892</ele>
        <time>2021-08-16T22:32:22.014Z</time>
      </trkpt>
      <trkpt lat="47.625436" lon="7.677483">
        <ele>304.849888</ele>
        <time>2021-08-16T22:32:25.141Z</time>
      </trkpt>
      <trkpt lat="47.625095" lon="7.677184">
        <ele>304.450590</ele>
        <time>2021-08-16T22:32:30.556Z</time>
      </trkpt>
      <trkpt lat="47.624807" lon="7.676975">
        <ele>304.127395</ele>
        <time>2021-08-16T22:32:34.631Z</time>
      </trkpt>
      <trkpt lat="47.624714" lon="7.676908">
        <ele>304.023175</ele>
        <time>2021-08-16T22:32:35.997Z</time>
      </trkpt>
      <trkpt lat="47.624516" lon="7.676765">
        <ele>303.801183</ele>
        <time>2021-08-16T22:32:38.671Z</time>
      </trkpt>
      <trkpt lat="47.624297" lon="7.676607">
        <ele>303.555695</ele>
        <time>2021-08-16T22:32:41.558Z</time>
      </trkpt>
      <trkpt lat="47.624001" lon="7.676393">
        <ele>303.228203</ele>
        <time>2021-08-16T22:32:45.502Z</time>
      </trkpt>
      <trkpt lat="47.623761" lon="7.676203">
        <ele>302.959724</ele>
        <time>2021-08-16T22:32:48.785Z</time>
      </trkpt>
      <trkpt lat="47.623580" lon="7.676054">
        <ele>302.755430</ele>
        <time>2021-08-16T22:32:51.249Z</time>
      </trkpt>
      <trkpt lat="47.623515" lon="7.675999">
        <ele>302.681579</ele>
        <time>2021-08-16T22:32:52.123Z</time>
      </trkpt>
      <trkpt lat="47.623419" lon="7.675918">
        <ele>302.572582</ele>
        <time>2021-08-16T22:32:53.574Z</time>
      </trkpt>
      <trkpt lat="47.623262" lon="7.675787">
        <ele>302.394806</ele>
        <time>2021-08-16T22:32:55.772Z</time>
      </trkpt>
      <trkpt lat="47.623130" lon="7.675680">
        <ele>302.246352</ele>
        <time>2021-08-16T22:32:57.694Z</time>
      </trkpt>
      <trkpt lat="47.622947" lon="7.675522">
        <ele>302.037384</ele>
        <time>2021-08-16T22:33:00.300Z</time>
      </trkpt>
      <trkpt lat="47.622868" lon="7.675447">
        <ele>301.944818</ele>
        <time>2021-08-16T22:33:01.479Z</time>
      </trkpt>
      <trkpt lat="47.622802" lon="7.675385">
        <ele>301.867720</ele>
        <time>2021-08-16T22:33:02.509Z</time>
      </trkpt>
      <trkpt lat="47.622703" lon="7.675292">
        <ele>301.752073</ele>
        <time>2021-08-16T22:33:03.941Z</time>
      </trkpt>
      <trkpt lat="47.622655" lon="7.675244">
        <ele>301.694943</ele>
        <time>2021-08-16T22:33:04.644Z</time>
      </trkpt>
      <trkpt lat="47.622655" lon="7.675244">
        <ele>301.694943</ele>
        <time>2021-08-16T22:33:04.645Z</time>
      </trkpt>
      <trkpt lat="47.622571" lon="7.675156">
        <ele>301.626344</ele>
        <time>2021-08-16T22:33:05.913Z</time>
      </trkpt>
      <trkpt lat="47.622559" lon="7.675142">
        <ele>301.618666</ele>
        <time>2021-08-16T22:33:06.116Z</time>
      </trkpt>
      <trkpt lat="47.622475" lon="7.675050">
        <ele>301.566157</ele>
        <time>2021-08-16T22:33:07.431Z</time>
      </trkpt>
      <trkpt lat="47.622300" lon="7.674850">
        <ele>301.455062</ele>
        <time>2021-08-16T22:33:10.107Z</time>
      </trkpt>
      <trkpt lat="47.622083" lon="7.674597">
        <ele>301.316263</ele>
        <time>2021-08-16T22:33:13.687Z</time>
      </trkpt>
      <trkpt lat="47.621973" lon="7.674471">
        <ele>301.246372</ele>
        <time>2021-08-16T22:33:15.543Z</time>
      </trkpt>
      <trkpt lat="47.621734" lon="7.674211">
        <ele>301.097324</ele>
        <time>2021-08-16T22:33:19.583Z</time>
      </trkpt>
      <trkpt lat="47.621516" lon="7.673947">
        <ele>300.955800</ele>
        <time>2021-08-16T22:33:23.507Z</time>
      </trkpt>
      <trkpt lat="47.621491" lon="7.673917">
        <ele>300.939630</ele>
        <time>2021-08-16T22:33:23.972Z</time>
      </trkpt>
      <trkpt lat="47.621262" lon="7.673623">
        <ele>300.787327</ele>
        <time>2021-08-16T22:33:28.287Z</time>
      </trkpt>
      <trkpt lat="47.621214" lon="7.673557">
        <ele>300.754326</ele>
        <time>2021-08-16T22:33:29.218Z</time>
      </trkpt>
      <trkpt lat="47.620997" lon="7.673228">
        <ele>300.589373</ele>
        <time>2021-08-16T22:33:33.694Z</time>
      </trkpt>
      <trkpt lat="47.620916" lon="7.673105">
        <ele>300.527751</ele>
        <time>2021-08-16T22:33:35.353Z</time>
      </trkpt>
      <trkpt lat="47.620464" lon="7.672371">
        <ele>300.171477</ele>
        <time>2021-08-16T22:33:44.217Z</time>
      </trkpt>
      <trkpt lat="47.620167" lon="7.671976">
        <ele>299.959419</ele>
        <time>2021-08-16T22:33:49.192Z</time>
      </trkpt>
      <trkpt lat="47.620025" lon="7.671810">
        <ele>299.863304</ele>
        <time>2021-08-16T22:33:51.411Z</time>
      </trkpt>
      <trkpt lat="47.619893" lon="7.671674">
        <ele>299.779960</ele>
        <time>2021-08-16T22:33:53.456Z</time>
      </trkpt>
      <trkpt lat="47.619773" lon="7.671561">
        <ele>299.711652</ele>
        <time>2021-08-16T22:33:55.219Z</time>
      </trkpt>
      <trkpt lat="47.619708" lon="7.671503">
        <ele>299.675199</ele>
        <time>2021-08-16T22:33:56.209Z</time>
      </trkpt>
      <trkpt lat="47.619553" lon="7.671367">
        <ele>299.588654</ele>
        <time>2021-08-16T22:33:58.617Z</time>
      </trkpt>
      <trkpt lat="47.619506" lon="7.671328">
        <ele>299.562773</ele>
        <time>2021-08-16T22:33:59.243Z</time>
      </trkpt>
      <trkpt lat="47.619107" lon="7.671001">
        <ele>299.343704</ele>
        <time>2021-08-16T22:34:05.420Z</time>
      </trkpt>
      <trkpt lat="47.618999" lon="7.670916">
        <ele>299.284948</ele>
        <time>2021-08-16T22:34:07.122Z</time>
      </trkpt>
      <trkpt lat="47.618817" lon="7.670768">
        <ele>299.185202</ele>
        <time>2021-08-16T22:34:09.961Z</time>
      </trkpt>
      <trkpt lat="47.618553" lon="7.670552">
        <ele>299.040310</ele>
        <time>2021-08-16T22:34:14.062Z</time>
      </trkpt>
      <trkpt lat="47.617447" lon="7.669640">
        <ele>298.714024</ele>
        <time>2021-08-16T22:34:31.571Z</time>
      </trkpt>
      <trkpt lat="47.617172" lon="7.669395">
        <ele>298.646225</ele>
        <time>2021-08-16T22:34:36.403Z</time>
      </trkpt>
      <trkpt lat="47.617124" lon="7.669350">
        <ele>298.634224</ele>
        <time>2021-08-16T22:34:37.159Z</time>
      </trkpt>
      <trkpt lat="47.616952" lon="7.669189">
        <ele>298.591238</ele>
        <time>2021-08-16T22:34:40.254Z</time>
      </trkpt>
      <trkpt lat="47.616909" lon="7.669149">
        <ele>298.580511</ele>
        <time>2021-08-16T22:34:40.912Z</time>
      </trkpt>
      <trkpt lat="47.616826" lon="7.669068">
        <ele>298.559512</ele>
        <time>2021-08-16T22:34:42.269Z</time>
      </trkpt>
      <trkpt lat="47.616672" lon="7.668910">
        <ele>298.500536</ele>
        <time>2021-08-16T22:34:44.976Z</time>
      </trkpt>
      <trkpt lat="47.616431" lon="7.668644">
        <ele>298.402037</ele>
        <time>2021-08-16T22:34:49.110Z</time>
      </trkpt>
      <trkpt lat="47.616276" lon="7.668438">
        <ele>298.333798</ele>
        <time>2021-08-16T22:34:51.950Z</time>
      </trkpt>
      <trkpt lat="47.616136" lon="7.668205">
        <ele>298.264806</ele>
        <time>2021-08-16T22:34:54.833Z</time>
      </trkpt>
      <trkpt lat="47.615885" lon="7.667765">
        <ele>298.137397</ele>
        <time>2021-08-16T22:35:00.091Z</time>
      </trkpt>
      <trkpt lat="47.615626" lon="7.667312">
        <ele>298.006099</ele>
        <time>2021-08-16T22:35:05.528Z</time>
      </trkpt>
      <trkpt lat="47.615419" lon="7.666959">
        <ele>297.906015</ele>
        <time>2021-08-16T22:35:09.809Z</time>
      </trkpt>
      <trkpt lat="47.615411" lon="7.666948">
        <ele>297.902629</ele>
        <time>2021-08-16T22:35:10.017Z</time>
      </trkpt>
      <trkpt lat="47.615325" lon="7.666835">
        <ele>297.866963</ele>
        <time>2021-08-16T22:35:11.532Z</time>
      </trkpt>
      <trkpt lat="47.615228" lon="7.666743">
        <ele>297.831221</ele>
        <time>2021-08-16T22:35:13.061Z</time>
      </trkpt>
      <trkpt lat="47.614785" lon="7.666441">
        <ele>297.679865</ele>
        <time>2021-08-16T22:35:19.702Z</time>
      </trkpt>
      <trkpt lat="47.614712" lon="7.666390">
        <ele>297.654815</ele>
        <time>2021-08-16T22:35:20.777Z</time>
      </trkpt>
      <trkpt lat="47.614013" lon="7.665917">
        <ele>297.416299</ele>
        <time>2021-08-16T22:35:31.551Z</time>
      </trkpt>
      <trkpt lat="47.613722" lon="7.665706">
        <ele>297.386641</ele>
        <time>2021-08-16T22:35:36.055Z</time>
      </trkpt>
      <trkpt lat="47.613539" lon="7.665576">
        <ele>297.372616</ele>
        <time>2021-08-16T22:35:38.946Z</time>
      </trkpt>
      <trkpt lat="47.612606" lon="7.664924">
        <ele>297.301327</ele>
        <time>2021-08-16T22:35:53.877Z</time>
      </trkpt>
      <trkpt lat="47.612536" lon="7.664871">
        <ele>297.295895</ele>
        <time>2021-08-16T22:35:55.095Z</time>
      </trkpt>
      <trkpt lat="47.612247" lon="7.664612">
        <ele>297.278311</ele>
        <time>2021-08-16T22:36:00.402Z</time>
      </trkpt>
      <trkpt lat="47.611599" lon="7.664012">
        <ele>297.255696</ele>
        <time>2021-08-16T22:36:12.273Z</time>
      </trkpt>
      <trkpt lat="47.611433" lon="7.663859">
        <ele>297.249910</ele>
        <time>2021-08-16T22:36:15.308Z</time>
      </trkpt>
      <trkpt lat="47.611165" lon="7.663611">
        <ele>297.240558</ele>
        <time>2021-08-16T22:36:20.032Z</time>
      </trkpt>
      <trkpt lat="47.611024" lon="7.663484">
        <ele>297.235675</ele>
        <time>2021-08-16T22:36:22.301Z</time>
      </trkpt>
      <trkpt lat="47.610806" lon="7.663293">
        <ele>297.192550</ele>
        <time>2021-08-16T22:36:25.817Z</time>
      </trkpt>
      <trkpt lat="47.610579" lon="7.663127">
        <ele>296.961442</ele>
        <time>2021-08-16T22:36:29.190Z</time>
      </trkpt>
      <trkpt lat="47.609963" lon="7.662702">
        <ele>296.341065</ele>
        <time>2021-08-16T22:36:37.791Z</time>
      </trkpt>
      <trkpt lat="47.609915" lon="7.662668">
        <ele>296.292492</ele>
        <time>2021-08-16T22:36:38.442Z</time>
      </trkpt>
      <trkpt lat="47.609113" lon="7.662130">
        <ele>295.436313</ele>
        <time>2021-08-16T22:36:48.844Z</time>
      </trkpt>
      <trkpt lat="47.608917" lon="7.661990">
        <ele>295.131640</ele>
        <time>2021-08-16T22:36:51.324Z</time>
      </trkpt>
      <trkpt lat="47.608741" lon="7.661878">
        <ele>294.863420</ele>
        <time>2021-08-16T22:36:53.519Z</time>
      </trkpt>
      <trkpt lat="47.608437" lon="7.661667">
        <ele>294.393352</ele>
        <time>2021-08-16T22:36:57.342Z</time>
      </trkpt>
      <trkpt lat="47.608133" lon="7.661491">
        <ele>293.936310</ele>
        <time>2021-08-16T22:37:01.070Z</time>
      </trkpt>
      <trkpt lat="47.607940" lon="7.661391">
        <ele>293.649991</ele>
        <time>2021-08-16T22:37:03.420Z</time>
      </trkpt>
      <trkpt lat="47.607741" lon="7.661304">
        <ele>293.359432</ele>
        <time>2021-08-16T22:37:05.845Z</time>
      </trkpt>
      <trkpt lat="47.606942" lon="7.661047">
        <ele>292.722843</ele>
        <time>2021-08-16T22:37:15.869Z</time>
      </trkpt>
      <trkpt lat="47.606818" lon="7.661012">
        <ele>292.651375</ele>
        <time>2021-08-16T22:37:17.474Z</time>
      </trkpt>
      <trkpt lat="47.606614" lon="7.660942">
        <ele>292.532820</ele>
        <time>2021-08-16T22:37:20.221Z</time>
      </trkpt>
      <trkpt lat="47.606500" lon="7.660902">
        <ele>292.466492</ele>
        <time>2021-08-16T22:37:21.723Z</time>
      </trkpt>
      <trkpt lat="47.606204" lon="7.660795">
        <ele>292.293991</ele>
        <time>2021-08-16T22:37:25.952Z</time>
      </trkpt>
      <trkpt lat="47.605816" lon="7.660661">
        <ele>292.068430</ele>
        <time>2021-08-16T22:37:31.728Z</time>
      </trkpt>
      <trkpt lat="47.604904" lon="7.660362">
        <ele>291.955230</ele>
        <time>2021-08-16T22:37:46.014Z</time>
      </trkpt>
      <trkpt lat="47.603636" lon="7.659974">
        <ele>291.615124</ele>
        <time>2021-08-16T22:38:03.986Z</time>
      </trkpt>
      <trkpt lat="47.603051" lon="7.659788">
        <ele>291.243905</ele>
        <time>2021-08-16T22:38:11.713Z</time>
      </trkpt>
      <trkpt lat="47.602311" lon="7.659552">
        <ele>290.774264</ele>
        <time>2021-08-16T22:38:21.350Z</time>
      </trkpt>
      <trkpt lat="47.602341" lon="7.659389">
        <ele>290.670137</ele>
        <time>2021-08-16T22:38:23.401Z</time>
      </trkpt>
      <trkpt lat="47.602359" lon="7.659337">
        <ele>290.626051</ele>
        <time>2021-08-16T22:38:24.076Z</time>
      </trkpt>
      <trkpt lat="47.602419" lon="7.659189">
        <ele>290.495803</ele>
        <time>2021-08-16T22:38:26.074Z</time>
      </trkpt>
      <trkpt lat="47.602426" lon="7.659170">
        <ele>290.479473</ele>
        <time>2021-08-16T22:38:26.328Z</time>
      </trkpt>
      <trkpt lat="47.602476" lon="7.659051">
        <ele>290.373721</ele>
        <time>2021-08-16T22:38:27.961Z</time>
      </trkpt>
      <trkpt lat="47.602297" lon="7.659045">
        <ele>290.173445</ele>
        <time>2021-08-16T22:38:30.166Z</time>
      </trkpt>
      <trkpt lat="47.602229" lon="7.659035">
        <ele>290.097008</ele>
        <time>2021-08-16T22:38:30.986Z</time>
      </trkpt>
      <trkpt lat="47.602062" lon="7.659000">
        <ele>289.908350</ele>
        <time>2021-08-16T22:38:33.051Z</time>
      </trkpt>
      <trkpt lat="47.601982" lon="7.658982">
        <ele>289.817840</ele>
        <time>2021-08-16T22:38:34.029Z</time>
      </trkpt>
      <trkpt lat="47.601869" lon="7.658957">
        <ele>289.690042</ele>
        <time>2021-08-16T22:38:35.399Z</time>
      </trkpt>
      <trkpt lat="47.601794" lon="7.658938">
        <ele>289.604934</ele>
        <time>2021-08-16T22:38:36.309Z</time>
      </trkpt>
      <trkpt lat="47.601679" lon="7.658901">
        <ele>289.473305</ele>
        <time>2021-08-16T22:38:37.773Z</time>
      </trkpt>
      <trkpt lat="47.601528" lon="7.658844">
        <ele>289.299015</ele>
        <time>2021-08-16T22:38:39.547Z</time>
      </trkpt>
      <trkpt lat="47.601431" lon="7.658802">
        <ele>289.185983</ele>
        <time>2021-08-16T22:38:40.765Z</time>
      </trkpt>
      <trkpt lat="47.601339" lon="7.658752">
        <ele>289.076382</ele>
        <time>2021-08-16T22:38:41.997Z</time>
      </trkpt>
      <trkpt lat="47.601123" lon="7.658631">
        <ele>288.818108</ele>
        <time>2021-08-16T22:38:44.678Z</time>
      </trkpt>
      <trkpt lat="47.600788" lon="7.658434">
        <ele>288.316143</ele>
        <time>2021-08-16T22:38:48.889Z</time>
      </trkpt>
      <trkpt lat="47.600706" lon="7.658386">
        <ele>288.186908</ele>
        <time>2021-08-16T22:38:49.942Z</time>
      </trkpt>
      <trkpt lat="47.600457" lon="7.658210">
        <ele>287.782541</ele>
        <time>2021-08-16T22:38:53.038Z</time>
      </trkpt>
      <trkpt lat="47.600347" lon="7.658109">
        <ele>287.592880</ele>
        <time>2021-08-16T22:38:54.520Z</time>
      </trkpt>
      <trkpt lat="47.600237" lon="7.657982">
        <ele>287.388517</ele>
        <time>2021-08-16T22:38:56.014Z</time>
      </trkpt>
      <trkpt lat="47.600024" lon="7.657710">
        <ele>286.976456</ele>
        <time>2021-08-16T22:38:59.157Z</time>
      </trkpt>
      <trkpt lat="47.599730" lon="7.657334">
        <ele>286.407330</ele>
        <time>2021-08-16T22:39:03.539Z</time>
      </trkpt>
      <trkpt lat="47.599571" lon="7.657123">
        <ele>286.096198</ele>
        <time>2021-08-16T22:39:06.200Z</time>
      </trkpt>
      <trkpt lat="47.599337" lon="7.656839">
        <ele>286.018841</ele>
        <time>2021-08-16T22:39:10.069Z</time>
      </trkpt>
      <trkpt lat="47.599249" lon="7.656747">
        <ele>285.991295</ele>
        <time>2021-08-16T22:39:11.642Z</time>
      </trkpt>
      <trkpt lat="47.599155" lon="7.656670">
        <ele>285.963822</ele>
        <time>2021-08-16T22:39:12.960Z</time>
      </trkpt>
      <trkpt lat="47.598889" lon="7.656503">
        <ele>285.889923</ele>
        <time>2021-08-16T22:39:17.282Z</time>
      </trkpt>
      <trkpt lat="47.598785" lon="7.656466">
        <ele>285.862561</ele>
        <time>2021-08-16T22:39:18.699Z</time>
      </trkpt>
      <trkpt lat="47.598761" lon="7.656462">
        <ele>285.856383</ele>
        <time>2021-08-16T22:39:19.219Z</time>
      </trkpt>
      <trkpt lat="47.598548" lon="7.656425">
        <ele>285.801517</ele>
        <time>2021-08-16T22:39:22.480Z</time>
      </trkpt>
      <trkpt lat="47.598449" lon="7.656408">
        <ele>285.776020</ele>
        <time>2021-08-16T22:39:24.365Z</time>
      </trkpt>
      <trkpt lat="47.598238" lon="7.656377">
        <ele>285.721775</ele>
        <time>2021-08-16T22:39:27.718Z</time>
      </trkpt>
      <trkpt lat="47.597885" lon="7.656326">
        <ele>285.627696</ele>
        <time>2021-08-16T22:39:33.086Z</time>
      </trkpt>
      <trkpt lat="47.597491" lon="7.656278">
        <ele>285.463443</ele>
        <time>2021-08-16T22:39:39.188Z</time>
      </trkpt>
      <trkpt lat="47.597222" lon="7.656232">
        <ele>285.350936</ele>
        <time>2021-08-16T22:39:43.268Z</time>
      </trkpt>
      <trkpt lat="47.596976" lon="7.656181">
        <ele>285.247732</ele>
        <time>2021-08-16T22:39:46.772Z</time>
      </trkpt>
      <trkpt lat="47.596750" lon="7.656124">
        <ele>285.152484</ele>
        <time>2021-08-16T22:39:49.914Z</time>
      </trkpt>
      <trkpt lat="47.596559" lon="7.656069">
        <ele>285.071644</ele>
        <time>2021-08-16T22:39:52.405Z</time>
      </trkpt>
      <trkpt lat="47.596394" lon="7.656019">
        <ele>285.001672</ele>
        <time>2021-08-16T22:39:54.519Z</time>
      </trkpt>
      <trkpt lat="47.596331" lon="7.655998">
        <ele>284.974843</ele>
        <time>2021-08-16T22:39:55.310Z</time>
      </trkpt>
      <trkpt lat="47.596264" lon="7.655978">
        <ele>284.946447</ele>
        <time>2021-08-16T22:39:56.120Z</time>
      </trkpt>
      <trkpt lat="47.596169" lon="7.655952">
        <ele>284.906309</ele>
        <time>2021-08-16T22:39:57.282Z</time>
      </trkpt>
      <trkpt lat="47.596135" lon="7.655942">
        <ele>284.891907</ele>
        <time>2021-08-16T22:39:57.698Z</time>
      </trkpt>
      <trkpt lat="47.595856" lon="7.655854">
        <ele>284.512228</ele>
        <time>2021-08-16T22:40:01.055Z</time>
      </trkpt>
      <trkpt lat="47.595737" lon="7.655809">
        <ele>284.346012</ele>
        <time>2021-08-16T22:40:02.449Z</time>
      </trkpt>
      <trkpt lat="47.595595" lon="7.655746">
        <ele>284.145404</ele>
        <time>2021-08-16T22:40:04.203Z</time>
      </trkpt>
      <trkpt lat="47.595589" lon="7.655744">
        <ele>284.137080</ele>
        <time>2021-08-16T22:40:04.268Z</time>
      </trkpt>
      <trkpt lat="47.595589" lon="7.655744">
        <ele>284.137080</ele>
        <time>2021-08-16T22:40:04.271Z</time>
      </trkpt>
      <trkpt lat="47.595444" lon="7.655671">
        <ele>283.929827</ele>
        <time>2021-08-16T22:40:06.007Z</time>
      </trkpt>
      <trkpt lat="47.595386" lon="7.655638">
        <ele>283.845747</ele>
        <time>2021-08-16T22:40:06.725Z</time>
      </trkpt>
      <trkpt lat="47.595330" lon="7.655577">
        <ele>283.751702</ele>
        <time>2021-08-16T22:40:07.529Z</time>
      </trkpt>
      <trkpt lat="47.595281" lon="7.655528">
        <ele>283.671711</ele>
        <time>2021-08-16T22:40:08.209Z</time>
      </trkpt>
      <trkpt lat="47.595271" lon="7.655520">
        <ele>283.656333</ele>
        <time>2021-08-16T22:40:08.341Z</time>
      </trkpt>
      <trkpt lat="47.595207" lon="7.655485">
        <ele>283.564009</ele>
        <time>2021-08-16T22:40:09.118Z</time>
      </trkpt>
      <trkpt lat="47.595193" lon="7.655479">
        <ele>283.544285</ele>
        <time>2021-08-16T22:40:09.299Z</time>
      </trkpt>
      <trkpt lat="47.595112" lon="7.655445">
        <ele>283.430347</ele>
        <time>2021-08-16T22:40:10.225Z</time>
      </trkpt>
      <trkpt lat="47.594945" lon="7.655371">
        <ele>283.194444</ele>
        <time>2021-08-16T22:40:12.252Z</time>
      </trkpt>
      <trkpt lat="47.594880" lon="7.655360">
        <ele>283.105899</ele>
        <time>2021-08-16T22:40:12.993Z</time>
      </trkpt>
      <trkpt lat="47.594828" lon="7.655365">
        <ele>283.035371</ele>
        <time>2021-08-16T22:40:13.617Z</time>
      </trkpt>
      <trkpt lat="47.594495" lon="7.655153">
        <ele>282.544888</ele>
        <time>2021-08-16T22:40:17.848Z</time>
      </trkpt>
      <trkpt lat="47.594429" lon="7.655104">
        <ele>282.446813</ele>
        <time>2021-08-16T22:40:18.674Z</time>
      </trkpt>
      <trkpt lat="47.594381" lon="7.655065">
        <ele>282.386656</ele>
        <time>2021-08-16T22:40:19.356Z</time>
      </trkpt>
      <trkpt lat="47.594170" lon="7.654900">
        <ele>282.124472</ele>
        <time>2021-08-16T22:40:22.269Z</time>
      </trkpt>
      <trkpt lat="47.594145" lon="7.654879">
        <ele>282.092892</ele>
        <time>2021-08-16T22:40:22.583Z</time>
      </trkpt>
      <trkpt lat="47.593984" lon="7.654754">
        <ele>281.893147</ele>
        <time>2021-08-16T22:40:24.821Z</time>
      </trkpt>
      <trkpt lat="47.593873" lon="7.654670">
        <ele>281.756177</ele>
        <time>2021-08-16T22:40:26.387Z</time>
      </trkpt>
      <trkpt lat="47.593572" lon="7.654436">
        <ele>281.382636</ele>
        <time>2021-08-16T22:40:30.449Z</time>
      </trkpt>
      <trkpt lat="47.592851" lon="7.653875">
        <ele>280.487705</ele>
        <time>2021-08-16T22:40:40.177Z</time>
      </trkpt>
      <trkpt lat="47.592712" lon="7.653764">
        <ele>280.416536</ele>
        <time>2021-08-16T22:40:42.130Z</time>
      </trkpt>
      <trkpt lat="47.592636" lon="7.653708">
        <ele>280.381613</ele>
        <time>2021-08-16T22:40:43.227Z</time>
      </trkpt>
      <trkpt lat="47.592555" lon="7.653646">
        <ele>280.344102</ele>
        <time>2021-08-16T22:40:44.394Z</time>
      </trkpt>
      <trkpt lat="47.592362" lon="7.653496">
        <ele>280.254433</ele>
        <time>2021-08-16T22:40:47.211Z</time>
      </trkpt>
      <trkpt lat="47.591654" lon="7.652954">
        <ele>279.926547</ele>
        <time>2021-08-16T22:40:58.230Z</time>
      </trkpt>
      <trkpt lat="47.591530" lon="7.652877">
        <ele>279.871226</ele>
        <time>2021-08-16T22:41:00.024Z</time>
      </trkpt>
      <trkpt lat="47.591016" lon="7.652583">
        <ele>279.854180</ele>
        <time>2021-08-16T22:41:07.959Z</time>
      </trkpt>
      <trkpt lat="47.590010" lon="7.652008">
        <ele>280.409474</ele>
        <time>2021-08-16T22:41:26.239Z</time>
      </trkpt>
      <trkpt lat="47.589928" lon="7.651967">
        <ele>280.454044</ele>
        <time>2021-08-16T22:41:27.913Z</time>
      </trkpt>
      <trkpt lat="47.589780" lon="7.651919">
        <ele>280.532072</ele>
        <time>2021-08-16T22:41:30.923Z</time>
      </trkpt>
      <trkpt lat="47.589781" lon="7.651886">
        <ele>280.543546</ele>
        <time>2021-08-16T22:41:31.266Z</time>
      </trkpt>
      <trkpt lat="47.589777" lon="7.651850">
        <ele>280.556220</ele>
        <time>2021-08-16T22:41:31.691Z</time>
      </trkpt>
      <trkpt lat="47.589765" lon="7.651816">
        <ele>280.569550</ele>
        <time>2021-08-16T22:41:32.248Z</time>
      </trkpt>
      <trkpt lat="47.589746" lon="7.651789">
        <ele>280.583104</ele>
        <time>2021-08-16T22:41:32.738Z</time>
      </trkpt>
      <trkpt lat="47.589721" lon="7.651769">
        <ele>280.597735</ele>
        <time>2021-08-16T22:41:33.203Z</time>
      </trkpt>
      <trkpt lat="47.589678" lon="7.651770">
        <ele>280.619884</ele>
        <time>2021-08-16T22:41:34.018Z</time>
      </trkpt>
      <trkpt lat="47.589561" lon="7.651773">
        <ele>280.682522</ele>
        <time>2021-08-16T22:41:36.235Z</time>
      </trkpt>
      <trkpt lat="47.588931" lon="7.651783">
        <ele>281.054638</ele>
        <time>2021-08-16T22:41:47.600Z</time>
      </trkpt>
      <trkpt lat="47.588813" lon="7.651789">
        <ele>281.124373</ele>
        <time>2021-08-16T22:41:49.811Z</time>
      </trkpt>
      <trkpt lat="47.588740" lon="7.651854">
        <ele>281.174666</ele>
        <time>2021-08-16T22:41:51.189Z</time>
      </trkpt>
      <trkpt lat="47.588728" lon="7.651880">
        <ele>281.187216</ele>
        <time>2021-08-16T22:41:51.678Z</time>
      </trkpt>
      <trkpt lat="47.588620" lon="7.651830">
        <ele>281.254041</ele>
        <time>2021-08-16T22:41:53.337Z</time>
      </trkpt>
      <trkpt lat="47.587404" lon="7.651029">
        <ele>281.835885</ele>
        <time>2021-08-16T22:42:15.256Z</time>
      </trkpt>
      <trkpt lat="47.587343" lon="7.651005">
        <ele>281.848906</ele>
        <time>2021-08-16T22:42:16.065Z</time>
      </trkpt>
      <trkpt lat="47.587101" lon="7.650922">
        <ele>281.900155</ele>
        <time>2021-08-16T22:42:19.854Z</time>
      </trkpt>
      <trkpt lat="47.586735" lon="7.650800">
        <ele>281.977554</ele>
        <time>2021-08-16T22:42:25.540Z</time>
      </trkpt>
      <trkpt lat="47.586623" lon="7.650750">
        <ele>282.001687</ele>
        <time>2021-08-16T22:42:27.184Z</time>
      </trkpt>
      <trkpt lat="47.586547" lon="7.650713">
        <ele>282.018191</ele>
        <time>2021-08-16T22:42:28.447Z</time>
      </trkpt>
      <trkpt lat="47.586250" lon="7.650569">
        <ele>282.082662</ele>
        <time>2021-08-16T22:42:33.327Z</time>
      </trkpt>
      <trkpt lat="47.586217" lon="7.650552">
        <ele>282.089870</ele>
        <time>2021-08-16T22:42:33.889Z</time>
      </trkpt>
      <trkpt lat="47.586181" lon="7.650532">
        <ele>282.097872</ele>
        <time>2021-08-16T22:42:34.540Z</time>
      </trkpt>
      <trkpt lat="47.586132" lon="7.650506">
        <ele>282.110667</ele>
        <time>2021-08-16T22:42:35.417Z</time>
      </trkpt>
      <trkpt lat="47.586092" lon="7.650485">
        <ele>282.121099</ele>
        <time>2021-08-16T22:42:36.127Z</time>
      </trkpt>
      <trkpt lat="47.585745" lon="7.650300">
        <ele>282.211756</ele>
        <time>2021-08-16T22:42:42.020Z</time>
      </trkpt>
      <trkpt lat="47.585547" lon="7.650203">
        <ele>282.263022</ele>
        <time>2021-08-16T22:42:45.473Z</time>
      </trkpt>
      <trkpt lat="47.585344" lon="7.650114">
        <ele>282.315065</ele>
        <time>2021-08-16T22:42:49.170Z</time>
      </trkpt>
      <trkpt lat="47.584923" lon="7.649937">
        <ele>282.422648</ele>
        <time>2021-08-16T22:42:56.412Z</time>
      </trkpt>
      <trkpt lat="47.584850" lon="7.649909">
        <ele>282.441186</ele>
        <time>2021-08-16T22:42:57.646Z</time>
      </trkpt>
      <trkpt lat="47.584759" lon="7.649869">
        <ele>282.464520</ele>
        <time>2021-08-16T22:42:59.213Z</time>
      </trkpt>
      <trkpt lat="47.584719" lon="7.649845">
        <ele>282.475129</ele>
        <time>2021-08-16T22:42:59.881Z</time>
      </trkpt>
      <trkpt lat="47.584681" lon="7.649796">
        <ele>282.487510</ele>
        <time>2021-08-16T22:43:00.681Z</time>
      </trkpt>
      <trkpt lat="47.584591" lon="7.649659">
        <ele>282.519222</ele>
        <time>2021-08-16T22:43:02.463Z</time>
      </trkpt>
      <trkpt lat="47.584575" lon="7.649635">
        <ele>282.524818</ele>
        <time>2021-08-16T22:43:02.801Z</time>
      </trkpt>
      <trkpt lat="47.584536" lon="7.649579">
        <ele>282.538166</ele>
        <time>2021-08-16T22:43:03.627Z</time>
      </trkpt>
      <trkpt lat="47.584318" lon="7.649293">
        <ele>282.469149</ele>
        <time>2021-08-16T22:43:07.531Z</time>
      </trkpt>
      <trkpt lat="47.584165" lon="7.649179">
        <ele>282.426825</ele>
        <time>2021-08-16T22:43:09.809Z</time>
      </trkpt>
      <trkpt lat="47.584142" lon="7.649171">
        <ele>282.420986</ele>
        <time>2021-08-16T22:43:10.164Z</time>
      </trkpt>
      <trkpt lat="47.584128" lon="7.649156">
        <ele>282.416716</ele>
        <time>2021-08-16T22:43:10.387Z</time>
      </trkpt>
      <trkpt lat="47.584071" lon="7.649103">
        <ele>282.400086</ele>
        <time>2021-08-16T22:43:11.172Z</time>
      </trkpt>
      <trkpt lat="47.583797" lon="7.648877">
        <ele>282.322586</ele>
        <time>2021-08-16T22:43:15.322Z</time>
      </trkpt>
      <trkpt lat="47.583592" lon="7.648697">
        <ele>282.263697</ele>
        <time>2021-08-16T22:43:18.562Z</time>
      </trkpt>
      <trkpt lat="47.583441" lon="7.648542">
        <ele>282.218302</ele>
        <time>2021-08-16T22:43:21.262Z</time>
      </trkpt>
      <trkpt lat="47.583007" lon="7.648038">
        <ele>282.135851</ele>
        <time>2021-08-16T22:43:29.229Z</time>
      </trkpt>
      <trkpt lat="47.582824" lon="7.647818">
        <ele>282.318262</ele>
        <time>2021-08-16T22:43:32.723Z</time>
      </trkpt>
      <trkpt lat="47.582724" lon="7.647701">
        <ele>282.416891</ele>
        <time>2021-08-16T22:43:34.482Z</time>
      </trkpt>
      <trkpt lat="47.582705" lon="7.647724">
        <ele>282.435882</ele>
        <time>2021-08-16T22:43:34.956Z</time>
      </trkpt>
      <trkpt lat="47.582664" lon="7.647775">
        <ele>282.477318</ele>
        <time>2021-08-16T22:43:35.689Z</time>
      </trkpt>
      <trkpt lat="47.582615" lon="7.647836">
        <ele>282.526856</ele>
        <time>2021-08-16T22:43:36.670Z</time>
      </trkpt>
      <trkpt lat="47.582607" lon="7.647844">
        <ele>282.534327</ele>
        <time>2021-08-16T22:43:36.971Z</time>
      </trkpt>
      <trkpt lat="47.582443" lon="7.648031">
        <ele>282.694512</ele>
        <time>2021-08-16T22:43:40.098Z</time>
      </trkpt>
      <trkpt lat="47.582390" lon="7.648089">
        <ele>282.745514</ele>
        <time>2021-08-16T22:43:41.254Z</time>
      </trkpt>
      <trkpt lat="47.582257" lon="7.648204">
        <ele>282.864720</ele>
        <time>2021-08-16T22:43:44.077Z</time>
      </trkpt>
      <trkpt lat="47.582173" lon="7.648260">
        <ele>282.936027</ele>
        <time>2021-08-16T22:43:45.784Z</time>
      </trkpt>
      <trkpt lat="47.582006" lon="7.648372">
        <ele>283.077937</ele>
        <time>2021-08-16T22:43:49.649Z</time>
      </trkpt>
      <trkpt lat="47.581866" lon="7.648466">
        <ele>283.196926</ele>
        <time>2021-08-16T22:43:52.856Z</time>
      </trkpt>
      <trkpt lat="47.581653" lon="7.648609">
        <ele>283.377957</ele>
        <time>2021-08-16T22:43:58.049Z</time>
      </trkpt>
      <trkpt lat="47.581433" lon="7.648756">
        <ele>283.589060</ele>
        <time>2021-08-16T22:44:03.060Z</time>
      </trkpt>
      <trkpt lat="47.581368" lon="7.648797">
        <ele>283.660950</ele>
        <time>2021-08-16T22:44:04.635Z</time>
      </trkpt>
      <trkpt lat="47.581359" lon="7.648801">
        <ele>283.670512</ele>
        <time>2021-08-16T22:44:04.841Z</time>
      </trkpt>
      <trkpt lat="47.581132" lon="7.648912">
        <ele>283.913776</ele>
        <time>2021-08-16T22:44:09.870Z</time>
      </trkpt>
      <trkpt lat="47.580953" lon="7.648987">
        <ele>284.103083</ele>
        <time>2021-08-16T22:44:13.621Z</time>
      </trkpt>
      <trkpt lat="47.580773" lon="7.649069">
        <ele>284.294725</ele>
        <time>2021-08-16T22:44:18.010Z</time>
      </trkpt>
      <trkpt lat="47.580709" lon="7.649099">
        <ele>284.363037</ele>
        <time>2021-08-16T22:44:19.652Z</time>
      </trkpt>
      <trkpt lat="47.580600" lon="7.649166">
        <ele>284.483126</ele>
        <time>2021-08-16T22:44:22.513Z</time>
      </trkpt>
      <trkpt lat="47.580497" lon="7.649043">
        <ele>284.617729</ele>
        <time>2021-08-16T22:44:24.712Z</time>
      </trkpt>
      <trkpt lat="47.580390" lon="7.648947">
        <ele>284.745015</ele>
        <time>2021-08-16T22:44:26.985Z</time>
      </trkpt>
      <trkpt lat="47.580196" lon="7.648842">
        <ele>284.955198</ele>
        <time>2021-08-16T22:44:30.643Z</time>
      </trkpt>
      <trkpt lat="47.579842" lon="7.648645">
        <ele>285.322572</ele>
        <time>2021-08-16T22:44:37.414Z</time>
      </trkpt>
      <trkpt lat="47.579401" lon="7.648402">
        <ele>285.420059</ele>
        <time>2021-08-16T22:44:45.562Z</time>
      </trkpt>
      <trkpt lat="47.578549" lon="7.647926">
        <ele>285.608720</ele>
        <time>2021-08-16T22:44:59.068Z</time>
      </trkpt>
      <trkpt lat="47.578355" lon="7.647814">
        <ele>285.651859</ele>
        <time>2021-08-16T22:45:02.072Z</time>
      </trkpt>
      <trkpt lat="47.578240" lon="7.647750">
        <ele>285.677312</ele>
        <time>2021-08-16T22:45:03.986Z</time>
      </trkpt>
      <trkpt lat="47.578093" lon="7.647674">
        <ele>285.690338</ele>
        <time>2021-08-16T22:45:06.296Z</time>
      </trkpt>
      <trkpt lat="47.576540" lon="7.646928">
        <ele>285.681944</ele>
        <time>2021-08-16T22:45:30.521Z</time>
      </trkpt>
      <trkpt lat="47.576494" lon="7.646904">
        <ele>285.681693</ele>
        <time>2021-08-16T22:45:31.174Z</time>
      </trkpt>
      <trkpt lat="47.576366" lon="7.646856">
        <ele>285.688902</ele>
        <time>2021-08-16T22:45:33.083Z</time>
      </trkpt>
      <trkpt lat="47.576335" lon="7.646843">
        <ele>285.691152</ele>
        <time>2021-08-16T22:45:33.560Z</time>
      </trkpt>
      <trkpt lat="47.576056" lon="7.646745">
        <ele>285.711170</ele>
        <time>2021-08-16T22:45:37.894Z</time>
      </trkpt>
      <trkpt lat="47.575607" lon="7.646573">
        <ele>285.743547</ele>
        <time>2021-08-16T22:45:44.870Z</time>
      </trkpt>
      <trkpt lat="47.575140" lon="7.646444">
        <ele>285.776712</ele>
        <time>2021-08-16T22:45:52.214Z</time>
      </trkpt>
      <trkpt lat="47.574865" lon="7.646368">
        <ele>285.796242</ele>
        <time>2021-08-16T22:45:56.444Z</time>
      </trkpt>
      <trkpt lat="47.574773" lon="7.646343">
        <ele>285.802772</ele>
        <time>2021-08-16T22:45:57.912Z</time>
      </trkpt>
      <trkpt lat="47.574708" lon="7.646334">
        <ele>285.807462</ele>
        <time>2021-08-16T22:45:58.950Z</time>
      </trkpt>
      <trkpt lat="47.573579" lon="7.646179">
        <ele>285.938776</ele>
        <time>2021-08-16T22:46:16.026Z</time>
      </trkpt>
      <trkpt lat="47.573518" lon="7.646170">
        <ele>285.945876</ele>
        <time>2021-08-16T22:46:17.039Z</time>
      </trkpt>
      <trkpt lat="47.572864" lon="7.646057">
        <ele>286.048406</ele>
        <time>2021-08-16T22:46:27.193Z</time>
      </trkpt>
      <trkpt lat="47.572127" lon="7.645830">
        <ele>286.477808</ele>
        <time>2021-08-16T22:46:38.991Z</time>
      </trkpt>
      <trkpt lat="47.572033" lon="7.645801">
        <ele>286.532579</ele>
        <time>2021-08-16T22:46:40.669Z</time>
      </trkpt>
      <trkpt lat="47.571935" lon="7.645770">
        <ele>286.589742</ele>
        <time>2021-08-16T22:46:42.378Z</time>
      </trkpt>
      <trkpt lat="47.571021" lon="7.645483">
        <ele>287.200520</ele>
        <time>2021-08-16T22:46:59.409Z</time>
      </trkpt>
      <trkpt lat="47.570956" lon="7.645462">
        <ele>287.274824</ele>
        <time>2021-08-16T22:47:00.812Z</time>
      </trkpt>
      <trkpt lat="47.569902" lon="7.645136">
        <ele>288.477407</ele>
        <time>2021-08-16T22:47:22.026Z</time>
      </trkpt>
      <trkpt lat="47.569037" lon="7.644861">
        <ele>289.403248</ele>
        <time>2021-08-16T22:47:39.024Z</time>
      </trkpt>
      <trkpt lat="47.568963" lon="7.644823">
        <ele>289.477600</ele>
        <time>2021-08-16T22:47:40.636Z</time>
      </trkpt>
      <trkpt lat="47.568970" lon="7.644787">
        <ele>289.501598</ele>
        <time>2021-08-16T22:47:40.995Z</time>
      </trkpt>
      <trkpt lat="47.568926" lon="7.644659">
        <ele>289.593617</ele>
        <time>2021-08-16T22:47:42.702Z</time>
      </trkpt>
      <trkpt lat="47.568902" lon="7.644648">
        <ele>289.617467</ele>
        <time>2021-08-16T22:47:43.064Z</time>
      </trkpt>
      <trkpt lat="47.568874" lon="7.644648">
        <ele>289.644049</ele>
        <time>2021-08-16T22:47:43.699Z</time>
      </trkpt>
      <trkpt lat="47.568812" lon="7.644722">
        <ele>289.719624</ele>
        <time>2021-08-16T22:47:45.069Z</time>
      </trkpt>
      <trkpt lat="47.568806" lon="7.644762">
        <ele>289.745872</ele>
        <time>2021-08-16T22:47:45.704Z</time>
      </trkpt>
      <trkpt lat="47.568722" lon="7.644735">
        <ele>289.827474</ele>
        <time>2021-08-16T22:47:47.384Z</time>
      </trkpt>
      <trkpt lat="47.568559" lon="7.644685">
        <ele>289.985504</ele>
        <time>2021-08-16T22:47:50.292Z</time>
      </trkpt>
      <trkpt lat="47.568463" lon="7.644655">
        <ele>290.078648</ele>
        <time>2021-08-16T22:47:52.063Z</time>
      </trkpt>
      <trkpt lat="47.567718" lon="7.644406">
        <ele>290.819509</ele>
        <time>2021-08-16T22:48:06.161Z</time>
      </trkpt>
      <trkpt lat="47.566452" lon="7.644012">
        <ele>292.472448</ele>
        <time>2021-08-16T22:48:30.059Z</time>
      </trkpt>
      <trkpt lat="47.566182" lon="7.643937">
        <ele>292.823454</ele>
        <time>2021-08-16T22:48:36.019Z</time>
      </trkpt>
      <trkpt lat="47.566080" lon="7.643913">
        <ele>292.955419</ele>
        <time>2021-08-16T22:48:38.365Z</time>
      </trkpt>
      <trkpt lat="47.565623" lon="7.643861">
        <ele>294.072226</ele>
        <time>2021-08-16T22:48:49.716Z</time>
      </trkpt>
      <trkpt lat="47.565149" lon="7.643817">
        <ele>295.343913</ele>
        <time>2021-08-16T22:49:02.346Z</time>
      </trkpt>
      <trkpt lat="47.564609" lon="7.643770">
        <ele>296.792328</ele>
        <time>2021-08-16T22:49:16.502Z</time>
      </trkpt>
      <trkpt lat="47.564040" lon="7.643785">
        <ele>298.212601</ele>
        <time>2021-08-16T22:49:44.898Z</time>
      </trkpt>
      <trkpt lat="47.562342" lon="7.643924">
        <ele>301.344439</ele>
        <time>2021-08-16T22:51:03.468Z</time>
      </trkpt>
      <trkpt lat="47.561389" lon="7.643700">
        <ele>298.203168</ele>
        <time>2021-08-16T22:51:35.393Z</time>
      </trkpt>
      <trkpt lat="47.561325" lon="7.643719">
        <ele>297.990676</ele>
        <time>2021-08-16T22:51:37.221Z</time>
      </trkpt>
      <trkpt lat="47.561255" lon="7.643756">
        <ele>297.748729</ele>
        <time>2021-08-16T22:51:39.439Z</time>
      </trkpt>
      <trkpt lat="47.560750" lon="7.643799">
        <ele>296.101991</ele>
        <time>2021-08-16T22:51:52.930Z</time>
      </trkpt>
      <trkpt lat="47.560522" lon="7.643844">
        <ele>294.629116</ele>
        <time>2021-08-16T22:51:58.446Z</time>
      </trkpt>
      <trkpt lat="47.560277" lon="7.643832">
        <ele>292.208437</ele>
        <time>2021-08-16T22:52:04.597Z</time>
      </trkpt>
      <trkpt lat="47.560009" lon="7.643777">
        <ele>289.536699</ele>
        <time>2021-08-16T22:52:11.516Z</time>
      </trkpt>
      <trkpt lat="47.559951" lon="7.643733">
        <ele>288.893265</ele>
        <time>2021-08-16T22:52:12.261Z</time>
      </trkpt>
      <trkpt lat="47.559866" lon="7.643256">
        <ele>285.605681</ele>
        <time>2021-08-16T22:52:16.350Z</time>
      </trkpt>
      <trkpt lat="47.559847" lon="7.643134">
        <ele>284.771329</ele>
        <time>2021-08-16T22:52:17.323Z</time>
      </trkpt>
      <trkpt lat="47.559772" lon="7.643111">
        <ele>284.015017</ele>
        <time>2021-08-16T22:52:18.255Z</time>
      </trkpt>
      <trkpt lat="47.559546" lon="7.643040">
        <ele>281.733682</ele>
        <time>2021-08-16T22:52:21.095Z</time>
      </trkpt>
      <trkpt lat="47.559420" lon="7.643026">
        <ele>280.485949</ele>
        <time>2021-08-16T22:52:22.595Z</time>
      </trkpt>
      <trkpt lat="47.559164" lon="7.642942">
        <ele>277.918257</ele>
        <time>2021-08-16T22:52:25.805Z</time>
      </trkpt>
      <trkpt lat="47.559051" lon="7.642892">
        <ele>277.244350</ele>
        <time>2021-08-16T22:52:27.239Z</time>
      </trkpt>
      <trkpt lat="47.558751" lon="7.642785">
        <ele>275.481052</ele>
        <time>2021-08-16T22:52:31.009Z</time>
      </trkpt>
      <trkpt lat="47.558649" lon="7.642864">
        <ele>274.823363</ele>
        <time>2021-08-16T22:52:32.574Z</time>
      </trkpt>
      <trkpt lat="47.558593" lon="7.642915">
        <ele>274.447749</ele>
        <time>2021-08-16T22:52:33.530Z</time>
      </trkpt>
      <trkpt lat="47.558491" lon="7.643006">
        <ele>273.767386</ele>
        <time>2021-08-16T22:52:35.003Z</time>
      </trkpt>
      <trkpt lat="47.558444" lon="7.643104">
        <ele>273.303749</ele>
        <time>2021-08-16T22:52:35.715Z</time>
      </trkpt>
      <trkpt lat="47.558339" lon="7.643357">
        <ele>272.158357</ele>
        <time>2021-08-16T22:52:37.721Z</time>
      </trkpt>
      <trkpt lat="47.558353" lon="7.643411">
        <ele>271.935275</ele>
        <time>2021-08-16T22:52:38.321Z</time>
      </trkpt>
      <trkpt lat="47.558231" lon="7.643816">
        <ele>270.224918</ele>
        <time>2021-08-16T22:52:42.517Z</time>
      </trkpt>
      <trkpt lat="47.557988" lon="7.644323">
        <ele>267.826801</ele>
        <time>2021-08-16T22:52:48.768Z</time>
      </trkpt>
      <trkpt lat="47.556991" lon="7.645680">
        <ele>264.684680</ele>
        <time>2021-08-16T22:53:10.056Z</time>
      </trkpt>
      <trkpt lat="47.556590" lon="7.646391">
        <ele>263.348153</ele>
        <time>2021-08-16T22:53:19.732Z</time>
      </trkpt>
      <trkpt lat="47.556177" lon="7.647126">
        <ele>262.194536</ele>
        <time>2021-08-16T22:53:29.710Z</time>
      </trkpt>
      <trkpt lat="47.555821" lon="7.647748">
        <ele>261.210805</ele>
        <time>2021-08-16T22:53:38.376Z</time>
      </trkpt>
      <trkpt lat="47.555678" lon="7.648034">
        <ele>260.781469</ele>
        <time>2021-08-16T22:53:42.496Z</time>
      </trkpt>
      <trkpt lat="47.555678" lon="7.648034">
        <ele>260.781469</ele>
        <time>2021-08-16T22:53:42.501Z</time>
      </trkpt>
      <trkpt lat="47.555502" lon="7.648476">
        <ele>260.384463</ele>
        <time>2021-08-16T22:53:48.787Z</time>
      </trkpt>
      <trkpt lat="47.555423" lon="7.648762">
        <ele>260.350462</ele>
        <time>2021-08-16T22:53:52.619Z</time>
      </trkpt>
      <trkpt lat="47.555315" lon="7.649144">
        <ele>260.304895</ele>
        <time>2021-08-16T22:53:57.890Z</time>
      </trkpt>
      <trkpt lat="47.555228" lon="7.649451">
        <ele>260.268260</ele>
        <time>2021-08-16T22:54:02.430Z</time>
      </trkpt>
      <trkpt lat="47.555175" lon="7.649996">
        <ele>260.207678</ele>
        <time>2021-08-16T22:54:09.604Z</time>
      </trkpt>
      <trkpt lat="47.555167" lon="7.650547">
        <ele>260.147041</ele>
        <time>2021-08-16T22:54:17.123Z</time>
      </trkpt>
      <trkpt lat="47.555282" lon="7.651582">
        <ele>260.713138</ele>
        <time>2021-08-16T22:54:33.762Z</time>
      </trkpt>
      <trkpt lat="47.555307" lon="7.651695">
        <ele>260.808945</ele>
        <time>2021-08-16T22:54:35.925Z</time>
      </trkpt>
      <trkpt lat="47.555382" lon="7.652032">
        <ele>261.094836</ele>
        <time>2021-08-16T22:54:41.948Z</time>
      </trkpt>
      <trkpt lat="47.555434" lon="7.652412">
        <ele>261.407218</ele>
        <time>2021-08-16T22:54:48.691Z</time>
      </trkpt>
      <trkpt lat="47.555656" lon="7.654057">
        <ele>262.733116</ele>
        <time>2021-08-16T22:55:18.447Z</time>
      </trkpt>
      <trkpt lat="47.555716" lon="7.654224">
        <ele>262.877688</ele>
        <time>2021-08-16T22:55:21.921Z</time>
      </trkpt>
      <trkpt lat="47.555766" lon="7.654902">
        <ele>263.398873</ele>
        <time>2021-08-16T22:55:33.442Z</time>
      </trkpt>
      <trkpt lat="47.555759" lon="7.654981">
        <ele>263.459759</ele>
        <time>2021-08-16T22:55:34.957Z</time>
      </trkpt>
      <trkpt lat="47.555703" lon="7.655627">
        <ele>263.957463</ele>
        <time>2021-08-16T22:55:45.418Z</time>
      </trkpt>
      <trkpt lat="47.555696" lon="7.655687">
        <ele>264.003992</ele>
        <time>2021-08-16T22:55:46.489Z</time>
      </trkpt>
      <trkpt lat="47.555676" lon="7.656030">
        <ele>264.267076</ele>
        <time>2021-08-16T22:55:51.808Z</time>
      </trkpt>
      <trkpt lat="47.555652" lon="7.657101">
        <ele>264.595775</ele>
        <time>2021-08-16T22:56:08.003Z</time>
      </trkpt>
      <trkpt lat="47.555662" lon="7.657636">
        <ele>264.750551</ele>
        <time>2021-08-16T22:56:15.646Z</time>
      </trkpt>
      <trkpt lat="47.555655" lon="7.657974">
        <ele>264.848342</ele>
        <time>2021-08-16T22:56:20.416Z</time>
      </trkpt>
      <trkpt lat="47.555638" lon="7.658335">
        <ele>264.952994</ele>
        <time>2021-08-16T22:56:25.532Z</time>
      </trkpt>
      <trkpt lat="47.555585" lon="7.658640">
        <ele>265.044073</ele>
        <time>2021-08-16T22:56:30.153Z</time>
      </trkpt>
      <trkpt lat="47.555387" lon="7.659499">
        <ele>265.420570</ele>
        <time>2021-08-16T22:56:43.849Z</time>
      </trkpt>
      <trkpt lat="47.555342" lon="7.659805">
        <ele>265.554425</ele>
        <time>2021-08-16T22:56:48.775Z</time>
      </trkpt>
      <trkpt lat="47.555207" lon="7.660033">
        <ele>265.684063</ele>
        <time>2021-08-16T22:56:53.564Z</time>
      </trkpt>
      <trkpt lat="47.555088" lon="7.660310">
        <ele>265.824406</ele>
        <time>2021-08-16T22:56:58.869Z</time>
      </trkpt>
      <trkpt lat="47.554954" lon="7.660838">
        <ele>266.065507</ele>
        <time>2021-08-16T22:57:07.799Z</time>
      </trkpt>
      <trkpt lat="47.554852" lon="7.661152">
        <ele>266.210049</ele>
        <time>2021-08-16T22:57:13.202Z</time>
      </trkpt>
      <trkpt lat="47.554749" lon="7.661377">
        <ele>266.256052</ele>
        <time>2021-08-16T22:57:17.306Z</time>
      </trkpt>
      <trkpt lat="47.554595" lon="7.661658">
        <ele>266.317301</ele>
        <time>2021-08-16T22:57:22.841Z</time>
      </trkpt>
      <trkpt lat="47.554532" lon="7.661885">
        <ele>266.358832</ele>
        <time>2021-08-16T22:57:26.332Z</time>
      </trkpt>
      <trkpt lat="47.554517" lon="7.662066">
        <ele>266.389688</ele>
        <time>2021-08-16T22:57:28.972Z</time>
      </trkpt>
      <trkpt lat="47.554506" lon="7.662207">
        <ele>266.413705</ele>
        <time>2021-08-16T22:57:31.089Z</time>
      </trkpt>
      <trkpt lat="47.554077" lon="7.663101">
        <ele>266.599317</ele>
        <time>2021-08-16T22:57:47.032Z</time>
      </trkpt>
      <trkpt lat="47.553517" lon="7.664000">
        <ele>266.072798</ele>
        <time>2021-08-16T22:58:02.535Z</time>
      </trkpt>
      <trkpt lat="47.553370" lon="7.664287">
        <ele>265.832033</ele>
        <time>2021-08-16T22:58:06.684Z</time>
      </trkpt>
      <trkpt lat="47.553268" lon="7.664515">
        <ele>265.649238</ele>
        <time>2021-08-16T22:58:10.114Z</time>
      </trkpt>
      <trkpt lat="47.553107" lon="7.664960">
        <ele>265.311832</ele>
        <time>2021-08-16T22:58:15.938Z</time>
      </trkpt>
      <trkpt lat="47.553043" lon="7.665170">
        <ele>265.157854</ele>
        <time>2021-08-16T22:58:18.345Z</time>
      </trkpt>
      <trkpt lat="47.552788" lon="7.665762">
        <ele>264.599659</ele>
        <time>2021-08-16T22:58:26.077Z</time>
      </trkpt>
      <trkpt lat="47.552475" lon="7.666782">
        <ele>263.498127</ele>
        <time>2021-08-16T22:58:38.182Z</time>
      </trkpt>
      <trkpt lat="47.552298" lon="7.667220">
        <ele>262.996246</ele>
        <time>2021-08-16T22:58:43.820Z</time>
      </trkpt>
      <trkpt lat="47.552058" lon="7.667163">
        <ele>262.642195</ele>
        <time>2021-08-16T22:58:48.142Z</time>
      </trkpt>
      <trkpt lat="47.551248" lon="7.666970">
        <ele>262.073456</ele>
        <time>2021-08-16T22:59:02.345Z</time>
      </trkpt>
      <trkpt lat="47.551227" lon="7.667266">
        <ele>262.007064</ele>
        <time>2021-08-16T22:59:04.974Z</time>
      </trkpt>
      <trkpt lat="47.551226" lon="7.667314">
        <ele>261.996351</ele>
        <time>2021-08-16T22:59:05.398Z</time>
      </trkpt>
      <trkpt lat="47.551209" lon="7.667993">
        <ele>261.844783</ele>
        <time>2021-08-16T22:59:12.133Z</time>
      </trkpt>
      <trkpt lat="47.551210" lon="7.668224">
        <ele>261.793253</ele>
        <time>2021-08-16T22:59:14.447Z</time>
      </trkpt>
      <trkpt lat="47.551211" lon="7.668609">
        <ele>261.707371</ele>
        <time>2021-08-16T22:59:18.828Z</time>
      </trkpt>
      <trkpt lat="47.551212" lon="7.668728">
        <ele>261.680823</ele>
        <time>2021-08-16T22:59:20.020Z</time>
      </trkpt>
      <trkpt lat="47.551217" lon="7.669059">
        <ele>261.664658</ele>
        <time>2021-08-16T22:59:23.945Z</time>
      </trkpt>
      <trkpt lat="47.551216" lon="7.669313">
        <ele>261.666541</ele>
        <time>2021-08-16T22:59:26.614Z</time>
      </trkpt>
      <trkpt lat="47.551210" lon="7.669624">
        <ele>261.668848</ele>
        <time>2021-08-16T22:59:29.973Z</time>
      </trkpt>
      <trkpt lat="47.551202" lon="7.669738">
        <ele>261.669698</ele>
        <time>2021-08-16T22:59:30.975Z</time>
      </trkpt>
      <trkpt lat="47.551187" lon="7.669945">
        <ele>261.671242</ele>
        <time>2021-08-16T22:59:33.110Z</time>
      </trkpt>
      <trkpt lat="47.551172" lon="7.670143">
        <ele>261.672719</ele>
        <time>2021-08-16T22:59:34.856Z</time>
      </trkpt>
      <trkpt lat="47.551123" lon="7.670830">
        <ele>261.677842</ele>
        <time>2021-08-16T22:59:41.180Z</time>
      </trkpt>
      <trkpt lat="47.551084" lon="7.671521">
        <ele>261.687067</ele>
        <time>2021-08-16T22:59:48.829Z</time>
      </trkpt>
      <trkpt lat="47.551047" lon="7.671631">
        <ele>261.696817</ele>
        <time>2021-08-16T22:59:49.962Z</time>
      </trkpt>
      <trkpt lat="47.551003" lon="7.671767">
        <ele>261.708782</ele>
        <time>2021-08-16T22:59:51.471Z</time>
      </trkpt>
      <trkpt lat="47.550891" lon="7.671966">
        <ele>261.729338</ele>
        <time>2021-08-16T22:59:54.281Z</time>
      </trkpt>
      <trkpt lat="47.550784" lon="7.672080">
        <ele>261.744829</ele>
        <time>2021-08-16T22:59:56.019Z</time>
      </trkpt>
      <trkpt lat="47.550872" lon="7.672192">
        <ele>261.758465</ele>
        <time>2021-08-16T22:59:57.894Z</time>
      </trkpt>
      <trkpt lat="47.550992" lon="7.672461">
        <ele>261.784046</ele>
        <time>2021-08-16T23:00:00.984Z</time>
      </trkpt>
      <trkpt lat="47.551044" lon="7.672622">
        <ele>261.798206</ele>
        <time>2021-08-16T23:00:02.824Z</time>
      </trkpt>
      <trkpt lat="47.551040" lon="7.673049">
        <ele>261.832084</ele>
        <time>2021-08-16T23:00:06.999Z</time>
      </trkpt>
      <trkpt lat="47.551065" lon="7.673394">
        <ele>261.859611</ele>
        <time>2021-08-16T23:00:10.738Z</time>
      </trkpt>
      <trkpt lat="47.551123" lon="7.673757">
        <ele>261.889205</ele>
        <time>2021-08-16T23:00:14.600Z</time>
      </trkpt>
      <trkpt lat="47.551287" lon="7.674641">
        <ele>262.430395</ele>
        <time>2021-08-16T23:00:25.328Z</time>
      </trkpt>
      <trkpt lat="47.551425" lon="7.675773">
        <ele>263.150724</ele>
        <time>2021-08-16T23:00:40.041Z</time>
      </trkpt>
      <trkpt lat="47.551437" lon="7.676358">
        <ele>263.517219</ele>
        <time>2021-08-16T23:00:47.768Z</time>
      </trkpt>
      <trkpt lat="47.551389" lon="7.677054">
        <ele>264.358765</ele>
        <time>2021-08-16T23:00:57.540Z</time>
      </trkpt>
      <trkpt lat="47.551192" lon="7.678654">
        <ele>266.423902</ele>
        <time>2021-08-16T23:01:22.694Z</time>
      </trkpt>
      <trkpt lat="47.551075" lon="7.679610">
        <ele>267.680933</ele>
        <time>2021-08-16T23:01:38.428Z</time>
      </trkpt>
      <trkpt lat="47.551050" lon="7.679990">
        <ele>268.181647</ele>
        <time>2021-08-16T23:01:44.446Z</time>
      </trkpt>
      <trkpt lat="47.551039" lon="7.680153">
        <ele>268.396480</ele>
        <time>2021-08-16T23:01:46.952Z</time>
      </trkpt>
      <trkpt lat="47.551041" lon="7.680355">
        <ele>268.661423</ele>
        <time>2021-08-16T23:01:50.074Z</time>
      </trkpt>
      <trkpt lat="47.551044" lon="7.680740">
        <ele>269.166366</ele>
        <time>2021-08-16T23:01:56.047Z</time>
      </trkpt>
      <trkpt lat="47.551067" lon="7.681178">
        <ele>269.742518</ele>
        <time>2021-08-16T23:02:02.755Z</time>
      </trkpt>
      <trkpt lat="47.551114" lon="7.681539">
        <ele>270.224681</ele>
        <time>2021-08-16T23:02:08.144Z</time>
      </trkpt>
      <trkpt lat="47.551165" lon="7.681865">
        <ele>270.585003</ele>
        <time>2021-08-16T23:02:12.823Z</time>
      </trkpt>
      <trkpt lat="47.551274" lon="7.682406">
        <ele>271.063527</ele>
        <time>2021-08-16T23:02:20.478Z</time>
      </trkpt>
      <trkpt lat="47.551363" lon="7.682846">
        <ele>271.452840</ele>
        <time>2021-08-16T23:02:26.661Z</time>
      </trkpt>
      <trkpt lat="47.551470" lon="7.683297">
        <ele>271.858016</ele>
        <time>2021-08-16T23:02:32.792Z</time>
      </trkpt>
      <trkpt lat="47.551678" lon="7.684173">
        <ele>272.645079</ele>
        <time>2021-08-16T23:02:44.627Z</time>
      </trkpt>
      <trkpt lat="47.551726" lon="7.684536">
        <ele>272.953859</ele>
        <time>2021-08-16T23:02:49.695Z</time>
      </trkpt>
      <trkpt lat="47.551733" lon="7.684945">
        <ele>273.294272</ele>
        <time>2021-08-16T23:02:55.729Z</time>
      </trkpt>
      <trkpt lat="47.551629" lon="7.685921">
        <ele>274.116400</ele>
        <time>2021-08-16T23:03:08.829Z</time>
      </trkpt>
      <trkpt lat="47.551610" lon="7.686036">
        <ele>274.214910</ele>
        <time>2021-08-16T23:03:10.684Z</time>
      </trkpt>
      <trkpt lat="47.551558" lon="7.686365">
        <ele>274.496057</ele>
        <time>2021-08-16T23:03:14.877Z</time>
      </trkpt>
      <trkpt lat="47.551516" lon="7.686630">
        <ele>274.722545</ele>
        <time>2021-08-16T23:03:18.628Z</time>
      </trkpt>
      <trkpt lat="47.551512" lon="7.686647">
        <ele>274.737525</ele>
        <time>2021-08-16T23:03:18.984Z</time>
      </trkpt>
      <trkpt lat="47.551495" lon="7.686756">
        <ele>274.830607</ele>
        <time>2021-08-16T23:03:20.479Z</time>
      </trkpt>
      <trkpt lat="47.551461" lon="7.686975">
        <ele>274.983159</ele>
        <time>2021-08-16T23:03:23.167Z</time>
      </trkpt>
      <trkpt lat="47.551449" lon="7.687042">
        <ele>275.020993</ele>
        <time>2021-08-16T23:03:24.380Z</time>
      </trkpt>
      <trkpt lat="47.551359" lon="7.687492">
        <ele>275.277155</ele>
        <time>2021-08-16T23:03:30.080Z</time>
      </trkpt>
      <trkpt lat="47.551228" lon="7.688469">
        <ele>275.820815</ele>
        <time>2021-08-16T23:03:42.917Z</time>
      </trkpt>
      <trkpt lat="47.551149" lon="7.689121">
        <ele>276.182362</ele>
        <time>2021-08-16T23:03:51.076Z</time>
      </trkpt>
      <trkpt lat="47.551068" lon="7.689465">
        <ele>276.368383</ele>
        <time>2021-08-16T23:03:54.758Z</time>
      </trkpt>
      <trkpt lat="47.550904" lon="7.689834">
        <ele>276.272828</ele>
        <time>2021-08-16T23:03:59.305Z</time>
      </trkpt>
      <trkpt lat="47.550754" lon="7.690033">
        <ele>276.208309</ele>
        <time>2021-08-16T23:04:02.238Z</time>
      </trkpt>
      <trkpt lat="47.550578" lon="7.690207">
        <ele>276.140509</ele>
        <time>2021-08-16T23:04:05.119Z</time>
      </trkpt>
      <trkpt lat="47.550476" lon="7.690324">
        <ele>276.099173</ele>
        <time>2021-08-16T23:04:06.905Z</time>
      </trkpt>
      <trkpt lat="47.550112" lon="7.690714">
        <ele>275.955230</ele>
        <time>2021-08-16T23:04:12.809Z</time>
      </trkpt>
      <trkpt lat="47.549797" lon="7.691193">
        <ele>275.810588</ele>
        <time>2021-08-16T23:04:18.655Z</time>
      </trkpt>
      <trkpt lat="47.549695" lon="7.691435">
        <ele>275.746295</ele>
        <time>2021-08-16T23:04:21.105Z</time>
      </trkpt>
      <trkpt lat="47.549685" lon="7.691459">
        <ele>275.739858</ele>
        <time>2021-08-16T23:04:21.352Z</time>
      </trkpt>
      <trkpt lat="47.549325" lon="7.692315">
        <ele>275.509668</ele>
        <time>2021-08-16T23:04:30.134Z</time>
      </trkpt>
      <trkpt lat="47.549253" lon="7.692474">
        <ele>275.465968</ele>
        <time>2021-08-16T23:04:32.008Z</time>
      </trkpt>
      <trkpt lat="47.549216" lon="7.692540">
        <ele>275.446386</ele>
        <time>2021-08-16T23:04:32.801Z</time>
      </trkpt>
      <trkpt lat="47.549059" lon="7.692848">
        <ele>275.358295</ele>
        <time>2021-08-16T23:04:36.262Z</time>
      </trkpt>
      <trkpt lat="47.548974" lon="7.693002">
        <ele>275.312891</ele>
        <time>2021-08-16T23:04:38.205Z</time>
      </trkpt>
      <trkpt lat="47.548782" lon="7.693465">
        <ele>275.188867</ele>
        <time>2021-08-16T23:04:43.633Z</time>
      </trkpt>
      <trkpt lat="47.548638" lon="7.694044">
        <ele>275.245539</ele>
        <time>2021-08-16T23:04:50.205Z</time>
      </trkpt>
      <trkpt lat="47.548591" lon="7.694324">
        <ele>275.272971</ele>
        <time>2021-08-16T23:04:53.661Z</time>
      </trkpt>
      <trkpt lat="47.548452" lon="7.695145">
        <ele>275.353446</ele>
        <time>2021-08-16T23:05:03.350Z</time>
      </trkpt>
      <trkpt lat="47.548427" lon="7.695434">
        <ele>275.381148</ele>
        <time>2021-08-16T23:05:06.647Z</time>
      </trkpt>
      <trkpt lat="47.548417" lon="7.695616">
        <ele>275.398509</ele>
        <time>2021-08-16T23:05:08.420Z</time>
      </trkpt>
      <trkpt lat="47.548389" lon="7.696070">
        <ele>275.434764</ele>
        <time>2021-08-16T23:05:12.851Z</time>
      </trkpt>
      <trkpt lat="47.548339" lon="7.696589">
        <ele>275.144089</ele>
        <time>2021-08-16T23:05:17.308Z</time>
      </trkpt>
      <trkpt lat="47.548314" lon="7.696826">
        <ele>275.011089</ele>
        <time>2021-08-16T23:05:19.323Z</time>
      </trkpt>
      <trkpt lat="47.548224" lon="7.697419">
        <ele>274.674091</ele>
        <time>2021-08-16T23:05:24.419Z</time>
      </trkpt>
      <trkpt lat="47.548069" lon="7.698253">
        <ele>274.194469</ele>
        <time>2021-08-16T23:05:31.483Z</time>
      </trkpt>
      <trkpt lat="47.547999" lon="7.698586">
        <ele>274.001090</ele>
        <time>2021-08-16T23:05:34.527Z</time>
      </trkpt>
      <trkpt lat="47.547999" lon="7.698586">
        <ele>274.001090</ele>
        <time>2021-08-16T23:05:34.533Z</time>
      </trkpt>
      <trkpt lat="47.547970" lon="7.698727">
        <ele>273.926882</ele>
        <time>2021-08-16T23:05:35.795Z</time>
      </trkpt>
      <trkpt lat="47.547913" lon="7.699038">
        <ele>273.778761</ele>
        <time>2021-08-16T23:05:38.638Z</time>
      </trkpt>
      <trkpt lat="47.547903" lon="7.699114">
        <ele>273.743171</ele>
        <time>2021-08-16T23:05:39.200Z</time>
      </trkpt>
      <trkpt lat="47.547900" lon="7.699136">
        <ele>273.732855</ele>
        <time>2021-08-16T23:05:39.396Z</time>
      </trkpt>
      <trkpt lat="47.547846" lon="7.699539">
        <ele>273.544008</ele>
        <time>2021-08-16T23:05:43.010Z</time>
      </trkpt>
      <trkpt lat="47.547718" lon="7.701632">
        <ele>272.652475</ele>
        <time>2021-08-16T23:06:01.623Z</time>
      </trkpt>
      <trkpt lat="47.547586" lon="7.702759">
        <ele>272.370554</ele>
        <time>2021-08-16T23:06:11.772Z</time>
      </trkpt>
      <trkpt lat="47.547457" lon="7.703435">
        <ele>272.197410</ele>
        <time>2021-08-16T23:06:18.176Z</time>
      </trkpt>
      <trkpt lat="47.547159" lon="7.704989">
        <ele>272.511266</ele>
        <time>2021-08-16T23:06:34.744Z</time>
      </trkpt>
      <trkpt lat="47.547129" lon="7.705131">
        <ele>272.567024</ele>
        <time>2021-08-16T23:06:36.513Z</time>
      </trkpt>
      <trkpt lat="47.547066" lon="7.705298">
        <ele>272.638716</ele>
        <time>2021-08-16T23:06:39.612Z</time>
      </trkpt>
      <trkpt lat="47.546975" lon="7.705444">
        <ele>272.713186</ele>
        <time>2021-08-16T23:06:43.015Z</time>
      </trkpt>
      <trkpt lat="47.546934" lon="7.705478">
        <ele>272.739272</ele>
        <time>2021-08-16T23:06:44.119Z</time>
      </trkpt>
      <trkpt lat="47.546903" lon="7.705523">
        <ele>272.763367</ele>
        <time>2021-08-16T23:06:45.156Z</time>
      </trkpt>
      <trkpt lat="47.546886" lon="7.705566">
        <ele>272.782041</ele>
        <time>2021-08-16T23:06:45.927Z</time>
      </trkpt>
      <trkpt lat="47.546875" lon="7.705615">
        <ele>272.801393</ele>
        <time>2021-08-16T23:06:46.695Z</time>
      </trkpt>
      <trkpt lat="47.546872" lon="7.705654">
        <ele>272.816102</ele>
        <time>2021-08-16T23:06:47.294Z</time>
      </trkpt>
      <trkpt lat="47.546878" lon="7.705675">
        <ele>272.824647</ele>
        <time>2021-08-16T23:06:47.659Z</time>
      </trkpt>
      <trkpt lat="47.546916" lon="7.705821">
        <ele>272.883286</ele>
        <time>2021-08-16T23:06:50.380Z</time>
      </trkpt>
      <trkpt lat="47.546947" lon="7.705856">
        <ele>272.904925</ele>
        <time>2021-08-16T23:06:51.380Z</time>
      </trkpt>
      <trkpt lat="47.546978" lon="7.705878">
        <ele>272.924008</ele>
        <time>2021-08-16T23:06:52.157Z</time>
      </trkpt>
      <trkpt lat="47.547004" lon="7.705887">
        <ele>272.938831</ele>
        <time>2021-08-16T23:06:52.798Z</time>
      </trkpt>
      <trkpt lat="47.547044" lon="7.705889">
        <ele>272.961051</ele>
        <time>2021-08-16T23:06:53.758Z</time>
      </trkpt>
      <trkpt lat="47.547083" lon="7.705874">
        <ele>272.983421</ele>
        <time>2021-08-16T23:06:54.691Z</time>
      </trkpt>
      <trkpt lat="47.547117" lon="7.705848">
        <ele>273.004663</ele>
        <time>2021-08-16T23:06:55.519Z</time>
      </trkpt>
      <trkpt lat="47.547211" lon="7.705906">
        <ele>273.061195</ele>
        <time>2021-08-16T23:06:58.041Z</time>
      </trkpt>
      <trkpt lat="47.547338" lon="7.705979">
        <ele>273.157351</ele>
        <time>2021-08-16T23:07:01.416Z</time>
      </trkpt>
      <trkpt lat="47.547389" lon="7.706039">
        <ele>273.206641</ele>
        <time>2021-08-16T23:07:02.633Z</time>
      </trkpt>
      <trkpt lat="47.547456" lon="7.706117">
        <ele>273.271132</ele>
        <time>2021-08-16T23:07:04.102Z</time>
      </trkpt>
      <trkpt lat="47.547565" lon="7.706271">
        <ele>273.385128</ele>
        <time>2021-08-16T23:07:07.178Z</time>
      </trkpt>
      <trkpt lat="47.547645" lon="7.706169">
        <ele>273.465010</ele>
        <time>2021-08-16T23:07:09.661Z</time>
      </trkpt>
      <trkpt lat="47.547718" lon="7.706083">
        <ele>273.535599</ele>
        <time>2021-08-16T23:07:11.797Z</time>
      </trkpt>
      <trkpt lat="47.547767" lon="7.706177">
        <ele>273.596273</ele>
        <time>2021-08-16T23:07:13.397Z</time>
      </trkpt>
      <trkpt lat="47.547779" lon="7.706281">
        <ele>273.650172</ele>
        <time>2021-08-16T23:07:14.921Z</time>
      </trkpt>
      <trkpt lat="47.547774" lon="7.706385">
        <ele>273.703436</ele>
        <time>2021-08-16T23:07:16.124Z</time>
      </trkpt>
      <trkpt lat="47.547770" lon="7.706493">
        <ele>273.758691</ele>
        <time>2021-08-16T23:07:17.379Z</time>
      </trkpt>
      <trkpt lat="47.547782" lon="7.706642">
        <ele>273.835348</ele>
        <time>2021-08-16T23:07:19.057Z</time>
      </trkpt>
      <trkpt lat="47.547860" lon="7.707328">
        <ele>274.190732</ele>
        <time>2021-08-16T23:07:27.655Z</time>
      </trkpt>
      <trkpt lat="47.547969" lon="7.708286">
        <ele>274.514343</ele>
        <time>2021-08-16T23:07:38.227Z</time>
      </trkpt>
      <trkpt lat="47.548718" lon="7.711675">
        <ele>275.382323</ele>
        <time>2021-08-16T23:08:15.744Z</time>
      </trkpt>
      <trkpt lat="47.548964" lon="7.712473">
        <ele>275.723474</ele>
        <time>2021-08-16T23:08:26.787Z</time>
      </trkpt>
      <trkpt lat="47.549309" lon="7.713249">
        <ele>276.088222</ele>
        <time>2021-08-16T23:08:38.813Z</time>
      </trkpt>
      <trkpt lat="47.549551" lon="7.713795">
        <ele>276.346478</ele>
        <time>2021-08-16T23:08:46.729Z</time>
      </trkpt>
      <trkpt lat="47.549644" lon="7.714162">
        <ele>276.501468</ele>
        <time>2021-08-16T23:08:51.294Z</time>
      </trkpt>
      <trkpt lat="47.549908" lon="7.715097">
        <ele>276.902181</ele>
        <time>2021-08-16T23:09:02.303Z</time>
      </trkpt>
      <trkpt lat="47.549978" lon="7.715484">
        <ele>276.880794</ele>
        <time>2021-08-16T23:09:06.394Z</time>
      </trkpt>
      <trkpt lat="47.550037" lon="7.715872">
        <ele>276.813123</ele>
        <time>2021-08-16T23:09:10.394Z</time>
      </trkpt>
      <trkpt lat="47.550065" lon="7.716105">
        <ele>276.772856</ele>
        <time>2021-08-16T23:09:12.726Z</time>
      </trkpt>
      <trkpt lat="47.550088" lon="7.716261">
        <ele>276.745687</ele>
        <time>2021-08-16T23:09:14.195Z</time>
      </trkpt>
      <trkpt lat="47.550264" lon="7.717130">
        <ele>276.591319</ele>
        <time>2021-08-16T23:09:22.218Z</time>
      </trkpt>
      <trkpt lat="47.550904" lon="7.719258">
        <ele>276.180769</ele>
        <time>2021-08-16T23:09:44.000Z</time>
      </trkpt>
      <trkpt lat="47.550953" lon="7.719585">
        <ele>276.120960</ele>
        <time>2021-08-16T23:09:47.294Z</time>
      </trkpt>
      <trkpt lat="47.550937" lon="7.719957">
        <ele>276.054403</ele>
        <time>2021-08-16T23:09:50.879Z</time>
      </trkpt>
      <trkpt lat="47.550910" lon="7.720574">
        <ele>275.954608</ele>
        <time>2021-08-16T23:09:56.702Z</time>
      </trkpt>
      <trkpt lat="47.550965" lon="7.720874">
        <ele>275.908649</ele>
        <time>2021-08-16T23:09:59.539Z</time>
      </trkpt>
      <trkpt lat="47.551056" lon="7.721158">
        <ele>275.862171</ele>
        <time>2021-08-16T23:10:02.503Z</time>
      </trkpt>
      <trkpt lat="47.551208" lon="7.721582">
        <ele>275.791194</ele>
        <time>2021-08-16T23:10:07.032Z</time>
      </trkpt>
      <trkpt lat="47.551366" lon="7.721998">
        <ele>275.720624</ele>
        <time>2021-08-16T23:10:11.571Z</time>
      </trkpt>
      <trkpt lat="47.551616" lon="7.722641">
        <ele>275.612310</ele>
        <time>2021-08-16T23:10:18.598Z</time>
      </trkpt>
      <trkpt lat="47.551732" lon="7.722977">
        <ele>275.660590</ele>
        <time>2021-08-16T23:10:22.274Z</time>
      </trkpt>
      <trkpt lat="47.551871" lon="7.723539">
        <ele>275.737160</ele>
        <time>2021-08-16T23:10:28.249Z</time>
      </trkpt>
      <trkpt lat="47.552212" lon="7.724918">
        <ele>275.925036</ele>
        <time>2021-08-16T23:10:44.136Z</time>
      </trkpt>
      <trkpt lat="47.552325" lon="7.725243">
        <ele>276.011191</ele>
        <time>2021-08-16T23:10:48.481Z</time>
      </trkpt>
      <trkpt lat="47.553028" lon="7.727114">
        <ele>276.846431</ele>
        <time>2021-08-16T23:11:13.311Z</time>
      </trkpt>
      <trkpt lat="47.553188" lon="7.727446">
        <ele>277.013476</ele>
        <time>2021-08-16T23:11:17.938Z</time>
      </trkpt>
      <trkpt lat="47.553253" lon="7.727551">
        <ele>277.101680</ele>
        <time>2021-08-16T23:11:19.538Z</time>
      </trkpt>
      <trkpt lat="47.553257" lon="7.727555">
        <ele>277.106107</ele>
        <time>2021-08-16T23:11:19.634Z</time>
      </trkpt>
      <trkpt lat="47.553838" lon="7.728124">
        <ele>277.744924</ele>
        <time>2021-08-16T23:11:32.180Z</time>
      </trkpt>
      <trkpt lat="47.554136" lon="7.728404">
        <ele>278.068593</ele>
        <time>2021-08-16T23:11:38.934Z</time>
      </trkpt>
      <trkpt lat="47.554367" lon="7.728585">
        <ele>278.308281</ele>
        <time>2021-08-16T23:11:43.741Z</time>
      </trkpt>
      <trkpt lat="47.554499" lon="7.728580">
        <ele>278.429399</ele>
        <time>2021-08-16T23:11:46.515Z</time>
      </trkpt>
      <trkpt lat="47.554550" lon="7.728615">
        <ele>278.480953</ele>
        <time>2021-08-16T23:11:47.617Z</time>
      </trkpt>
      <trkpt lat="47.554503" lon="7.728787">
        <ele>278.595826</ele>
        <time>2021-08-16T23:11:49.756Z</time>
      </trkpt>
      <trkpt lat="47.554645" lon="7.728883">
        <ele>278.726818</ele>
        <time>2021-08-16T23:11:53.208Z</time>
      </trkpt>
      <trkpt lat="47.555159" lon="7.729171">
        <ele>279.167681</ele>
        <time>2021-08-16T23:12:03.605Z</time>
      </trkpt>
      <trkpt lat="47.555310" lon="7.729256">
        <ele>279.297271</ele>
        <time>2021-08-16T23:12:07.114Z</time>
      </trkpt>
      <trkpt lat="47.555982" lon="7.729642">
        <ele>279.875486</ele>
        <time>2021-08-16T23:12:19.832Z</time>
      </trkpt>
      <trkpt lat="47.556120" lon="7.729737">
        <ele>279.997563</ele>
        <time>2021-08-16T23:12:22.015Z</time>
      </trkpt>
      <trkpt lat="47.556229" lon="7.729846">
        <ele>280.080192</ele>
        <time>2021-08-16T23:12:24.195Z</time>
      </trkpt>
      <trkpt lat="47.556305" lon="7.729996">
        <ele>280.054127</ele>
        <time>2021-08-16T23:12:26.278Z</time>
      </trkpt>
      <trkpt lat="47.556357" lon="7.730174">
        <ele>280.027173</ele>
        <time>2021-08-16T23:12:28.099Z</time>
      </trkpt>
      <trkpt lat="47.556427" lon="7.730477">
        <ele>279.982668</ele>
        <time>2021-08-16T23:12:31.739Z</time>
      </trkpt>
      <trkpt lat="47.556599" lon="7.731204">
        <ele>279.875614</ele>
        <time>2021-08-16T23:12:38.879Z</time>
      </trkpt>
      <trkpt lat="47.556635" lon="7.731437">
        <ele>279.842398</ele>
        <time>2021-08-16T23:12:41.178Z</time>
      </trkpt>
      <trkpt lat="47.556684" lon="7.732421">
        <ele>279.688730</ele>
        <time>2021-08-16T23:12:49.899Z</time>
      </trkpt>
      <trkpt lat="47.556695" lon="7.732526">
        <ele>279.647424</ele>
        <time>2021-08-16T23:12:50.870Z</time>
      </trkpt>
      <trkpt lat="47.556704" lon="7.732597">
        <ele>279.619341</ele>
        <time>2021-08-16T23:12:51.482Z</time>
      </trkpt>
      <trkpt lat="47.556773" lon="7.733074">
        <ele>279.429704</ele>
        <time>2021-08-16T23:12:55.754Z</time>
      </trkpt>
      <trkpt lat="47.556784" lon="7.733151">
        <ele>279.399108</ele>
        <time>2021-08-16T23:12:56.443Z</time>
      </trkpt>
      <trkpt lat="47.556872" lon="7.733723">
        <ele>279.171048</ele>
        <time>2021-08-16T23:13:01.807Z</time>
      </trkpt>
      <trkpt lat="47.556910" lon="7.733982">
        <ele>279.068015</ele>
        <time>2021-08-16T23:13:04.223Z</time>
      </trkpt>
      <trkpt lat="47.556947" lon="7.734300">
        <ele>278.942574</ele>
        <time>2021-08-16T23:13:07.137Z</time>
      </trkpt>
      <trkpt lat="47.556909" lon="7.735277">
        <ele>278.505794</ele>
        <time>2021-08-16T23:13:15.321Z</time>
      </trkpt>
      <trkpt lat="47.556652" lon="7.736450">
        <ele>277.794036</ele>
        <time>2021-08-16T23:13:26.041Z</time>
      </trkpt>
      <trkpt lat="47.556658" lon="7.736525">
        <ele>277.750448</ele>
        <time>2021-08-16T23:13:26.586Z</time>
      </trkpt>
      <trkpt lat="47.556614" lon="7.736602">
        <ele>277.692218</ele>
        <time>2021-08-16T23:13:27.450Z</time>
      </trkpt>
      <trkpt lat="47.556578" lon="7.736762">
        <ele>277.594880</ele>
        <time>2021-08-16T23:13:28.944Z</time>
      </trkpt>
      <trkpt lat="47.556486" lon="7.737232">
        <ele>277.312447</ele>
        <time>2021-08-16T23:13:33.055Z</time>
      </trkpt>
      <trkpt lat="47.556447" lon="7.737561">
        <ele>277.119109</ele>
        <time>2021-08-16T23:13:35.731Z</time>
      </trkpt>
      <trkpt lat="47.556422" lon="7.737881">
        <ele>276.928194</ele>
        <time>2021-08-16T23:13:38.457Z</time>
      </trkpt>
      <trkpt lat="47.556423" lon="7.738362">
        <ele>276.643127</ele>
        <time>2021-08-16T23:13:42.416Z</time>
      </trkpt>
      <trkpt lat="47.556427" lon="7.738558">
        <ele>276.526914</ele>
        <time>2021-08-16T23:13:43.979Z</time>
      </trkpt>
      <trkpt lat="47.556461" lon="7.739007">
        <ele>276.259143</ele>
        <time>2021-08-16T23:13:47.710Z</time>
      </trkpt>
      <trkpt lat="47.556492" lon="7.739412">
        <ele>276.017581</ele>
        <time>2021-08-16T23:13:51.354Z</time>
      </trkpt>
      <trkpt lat="47.556465" lon="7.739495">
        <ele>275.962974</ele>
        <time>2021-08-16T23:13:52.070Z</time>
      </trkpt>
      <trkpt lat="47.556249" lon="7.740089">
        <ele>275.563087</ele>
        <time>2021-08-16T23:13:57.991Z</time>
      </trkpt>
      <trkpt lat="47.556198" lon="7.740232">
        <ele>275.531654</ele>
        <time>2021-08-16T23:13:59.396Z</time>
      </trkpt>
      <trkpt lat="47.556109" lon="7.741529">
        <ele>275.291355</ele>
        <time>2021-08-16T23:14:10.792Z</time>
      </trkpt>
      <trkpt lat="47.555842" lon="7.742820">
        <ele>275.069959</ele>
        <time>2021-08-16T23:14:24.982Z</time>
      </trkpt>
      <trkpt lat="47.555722" lon="7.743661">
        <ele>275.072760</ele>
        <time>2021-08-16T23:14:34.122Z</time>
      </trkpt>
      <trkpt lat="47.555572" lon="7.744136">
        <ele>275.074468</ele>
        <time>2021-08-16T23:14:39.467Z</time>
      </trkpt>
      <trkpt lat="47.555416" lon="7.744384">
        <ele>275.075573</ele>
        <time>2021-08-16T23:14:42.822Z</time>
      </trkpt>
      <trkpt lat="47.555226" lon="7.744660">
        <ele>275.076858</ele>
        <time>2021-08-16T23:14:46.774Z</time>
      </trkpt>
      <trkpt lat="47.555182" lon="7.744738">
        <ele>275.077189</ele>
        <time>2021-08-16T23:14:47.685Z</time>
      </trkpt>
      <trkpt lat="47.555091" lon="7.744936">
        <ele>275.077970</ele>
        <time>2021-08-16T23:14:49.958Z</time>
      </trkpt>
      <trkpt lat="47.554910" lon="7.745450">
        <ele>274.908829</ele>
        <time>2021-08-16T23:14:55.397Z</time>
      </trkpt>
      <trkpt lat="47.554871" lon="7.745667">
        <ele>274.835653</ele>
        <time>2021-08-16T23:14:57.470Z</time>
      </trkpt>
      <trkpt lat="47.554853" lon="7.745965">
        <ele>274.738159</ele>
        <time>2021-08-16T23:15:00.162Z</time>
      </trkpt>
      <trkpt lat="47.554786" lon="7.747259">
        <ele>274.315259</ele>
        <time>2021-08-16T23:15:11.389Z</time>
      </trkpt>
      <trkpt lat="47.554319" lon="7.750058">
        <ele>273.376276</ele>
        <time>2021-08-16T23:15:37.217Z</time>
      </trkpt>
      <trkpt lat="47.554302" lon="7.750411">
        <ele>273.325172</ele>
        <time>2021-08-16T23:15:40.563Z</time>
      </trkpt>
      <trkpt lat="47.554273" lon="7.750704">
        <ele>273.305273</ele>
        <time>2021-08-16T23:15:43.414Z</time>
      </trkpt>
      <trkpt lat="47.554075" lon="7.752001">
        <ele>273.215920</ele>
        <time>2021-08-16T23:15:56.360Z</time>
      </trkpt>
      <trkpt lat="47.554122" lon="7.753011">
        <ele>273.221957</ele>
        <time>2021-08-16T23:16:06.719Z</time>
      </trkpt>
      <trkpt lat="47.554176" lon="7.753798">
        <ele>273.433445</ele>
        <time>2021-08-16T23:16:15.218Z</time>
      </trkpt>
      <trkpt lat="47.554275" lon="7.754160">
        <ele>273.537869</ele>
        <time>2021-08-16T23:16:19.554Z</time>
      </trkpt>
      <trkpt lat="47.554347" lon="7.754347">
        <ele>273.595426</ele>
        <time>2021-08-16T23:16:21.956Z</time>
      </trkpt>
      <trkpt lat="47.554452" lon="7.754585">
        <ele>273.671444</ele>
        <time>2021-08-16T23:16:25.247Z</time>
      </trkpt>
      <trkpt lat="47.554721" lon="7.755172">
        <ele>273.861135</ele>
        <time>2021-08-16T23:16:33.535Z</time>
      </trkpt>
      <trkpt lat="47.554777" lon="7.755293">
        <ele>273.930799</ele>
        <time>2021-08-16T23:16:35.316Z</time>
      </trkpt>
      <trkpt lat="47.554914" lon="7.755680">
        <ele>274.189390</ele>
        <time>2021-08-16T23:16:40.568Z</time>
      </trkpt>
      <trkpt lat="47.555039" lon="7.756348">
        <ele>274.599576</ele>
        <time>2021-08-16T23:16:49.091Z</time>
      </trkpt>
      <trkpt lat="47.555067" lon="7.756625">
        <ele>274.765313</ele>
        <time>2021-08-16T23:16:52.645Z</time>
      </trkpt>
      <trkpt lat="47.555069" lon="7.757021">
        <ele>274.999643</ele>
        <time>2021-08-16T23:16:57.615Z</time>
      </trkpt>
      <trkpt lat="47.555058" lon="7.757801">
        <ele>275.460188</ele>
        <time>2021-08-16T23:17:07.434Z</time>
      </trkpt>
      <trkpt lat="47.555025" lon="7.760185">
        <ele>276.698234</ele>
        <time>2021-08-16T23:17:36.760Z</time>
      </trkpt>
      <trkpt lat="47.555021" lon="7.760351">
        <ele>276.784477</ele>
        <time>2021-08-16T23:17:38.801Z</time>
      </trkpt>
      <trkpt lat="47.555137" lon="7.761950">
        <ele>277.117356</ele>
        <time>2021-08-16T23:17:56.680Z</time>
      </trkpt>
      <trkpt lat="47.555151" lon="7.762144">
        <ele>277.153731</ele>
        <time>2021-08-16T23:17:58.676Z</time>
      </trkpt>
      <trkpt lat="47.555160" lon="7.762248">
        <ele>277.173279</ele>
        <time>2021-08-16T23:17:59.750Z</time>
      </trkpt>
      <trkpt lat="47.555178" lon="7.762514">
        <ele>277.223120</ele>
        <time>2021-08-16T23:18:02.563Z</time>
      </trkpt>
      <trkpt lat="47.555215" lon="7.763047">
        <ele>277.323014</ele>
        <time>2021-08-16T23:18:07.870Z</time>
      </trkpt>
      <trkpt lat="47.555256" lon="7.763536">
        <ele>277.242237</ele>
        <time>2021-08-16T23:18:12.756Z</time>
      </trkpt>
      <trkpt lat="47.555344" lon="7.764439">
        <ele>277.054041</ele>
        <time>2021-08-16T23:18:21.658Z</time>
      </trkpt>
      <trkpt lat="47.555426" lon="7.764999">
        <ele>276.935842</ele>
        <time>2021-08-16T23:18:26.742Z</time>
      </trkpt>
      <trkpt lat="47.555465" lon="7.765253">
        <ele>276.882110</ele>
        <time>2021-08-16T23:18:29.062Z</time>
      </trkpt>
      <trkpt lat="47.555496" lon="7.765461">
        <ele>276.838172</ele>
        <time>2021-08-16T23:18:30.892Z</time>
      </trkpt>
      <trkpt lat="47.555631" lon="7.766213">
        <ele>276.483485</ele>
        <time>2021-08-16T23:18:37.870Z</time>
      </trkpt>
      <trkpt lat="47.555683" lon="7.766459">
        <ele>276.332457</ele>
        <time>2021-08-16T23:18:40.070Z</time>
      </trkpt>
      <trkpt lat="47.555705" lon="7.766563">
        <ele>276.268604</ele>
        <time>2021-08-16T23:18:41.434Z</time>
      </trkpt>
      <trkpt lat="47.555779" lon="7.766907">
        <ele>276.057076</ele>
        <time>2021-08-16T23:18:45.804Z</time>
      </trkpt>
      <trkpt lat="47.556180" lon="7.768445">
        <ele>275.079218</ele>
        <time>2021-08-16T23:19:05.224Z</time>
      </trkpt>
      <trkpt lat="47.556308" lon="7.768946">
        <ele>274.736798</ele>
        <time>2021-08-16T23:19:11.365Z</time>
      </trkpt>
      <trkpt lat="47.556325" lon="7.769016">
        <ele>274.689245</ele>
        <time>2021-08-16T23:19:12.169Z</time>
      </trkpt>
      <trkpt lat="47.556588" lon="7.770024">
        <ele>273.998456</ele>
        <time>2021-08-16T23:19:24.721Z</time>
      </trkpt>
      <trkpt lat="47.556644" lon="7.770245">
        <ele>273.847564</ele>
        <time>2021-08-16T23:19:27.525Z</time>
      </trkpt>
      <trkpt lat="47.556970" lon="7.771488">
        <ele>273.505401</ele>
        <time>2021-08-16T23:19:44.038Z</time>
      </trkpt>
      <trkpt lat="47.556998" lon="7.771574">
        <ele>273.503911</ele>
        <time>2021-08-16T23:19:45.244Z</time>
      </trkpt>
      <trkpt lat="47.556796" lon="7.771626">
        <ele>273.499172</ele>
        <time>2021-08-16T23:19:48.653Z</time>
      </trkpt>
      <trkpt lat="47.556245" lon="7.771767">
        <ele>273.486248</ele>
        <time>2021-08-16T23:19:57.983Z</time>
      </trkpt>
      <trkpt lat="47.555543" lon="7.772035">
        <ele>273.194241</ele>
        <time>2021-08-16T23:20:09.333Z</time>
      </trkpt>
      <trkpt lat="47.555195" lon="7.772170">
        <ele>272.863498</ele>
        <time>2021-08-16T23:20:14.206Z</time>
      </trkpt>
      <trkpt lat="47.554965" lon="7.772257">
        <ele>272.645248</ele>
        <time>2021-08-16T23:20:17.048Z</time>
      </trkpt>
      <trkpt lat="47.554847" lon="7.772301">
        <ele>272.533373</ele>
        <time>2021-08-16T23:20:18.461Z</time>
      </trkpt>
      <trkpt lat="47.554114" lon="7.772582">
        <ele>271.837244</ele>
        <time>2021-08-16T23:20:27.283Z</time>
      </trkpt>
      <trkpt lat="47.554010" lon="7.772622">
        <ele>271.663587</ele>
        <time>2021-08-16T23:20:28.485Z</time>
      </trkpt>
      <trkpt lat="47.553961" lon="7.772642">
        <ele>271.575414</ele>
        <time>2021-08-16T23:20:29.085Z</time>
      </trkpt>
      <trkpt lat="47.553891" lon="7.772673">
        <ele>271.448667</ele>
        <time>2021-08-16T23:20:29.876Z</time>
      </trkpt>
      <trkpt lat="47.553451" lon="7.772879">
        <ele>270.648137</ele>
        <time>2021-08-16T23:20:34.902Z</time>
      </trkpt>
      <trkpt lat="47.553576" lon="7.773568">
        <ele>269.812785</ele>
        <time>2021-08-16T23:20:40.057Z</time>
      </trkpt>
      <trkpt lat="47.553723" lon="7.774381">
        <ele>268.827319</ele>
        <time>2021-08-16T23:20:46.389Z</time>
      </trkpt>
      <trkpt lat="47.553832" lon="7.775040">
        <ele>268.802429</ele>
        <time>2021-08-16T23:20:52.686Z</time>
      </trkpt>
      <trkpt lat="47.553964" lon="7.775914">
        <ele>268.958905</ele>
        <time>2021-08-16T23:21:02.850Z</time>
      </trkpt>
      <trkpt lat="47.554120" lon="7.776876">
        <ele>269.131761</ele>
        <time>2021-08-16T23:21:14.551Z</time>
      </trkpt>
      <trkpt lat="47.554463" lon="7.778985">
        <ele>270.132309</ele>
        <time>2021-08-16T23:21:42.084Z</time>
      </trkpt>
      <trkpt lat="47.554487" lon="7.779153">
        <ele>270.216732</ele>
        <time>2021-08-16T23:21:43.884Z</time>
      </trkpt>
      <trkpt lat="47.554563" lon="7.779668">
        <ele>270.475900</ele>
        <time>2021-08-16T23:21:49.570Z</time>
      </trkpt>
      <trkpt lat="47.554700" lon="7.780547">
        <ele>270.351991</ele>
        <time>2021-08-16T23:21:59.411Z</time>
      </trkpt>
      <trkpt lat="47.554710" lon="7.780618">
        <ele>270.341775</ele>
        <time>2021-08-16T23:22:00.181Z</time>
      </trkpt>
      <trkpt lat="47.554742" lon="7.780852">
        <ele>270.308147</ele>
        <time>2021-08-16T23:22:02.594Z</time>
      </trkpt>
      <trkpt lat="47.554849" lon="7.781551">
        <ele>270.207191</ele>
        <time>2021-08-16T23:22:09.417Z</time>
      </trkpt>
      <trkpt lat="47.554902" lon="7.781936">
        <ele>270.151847</ele>
        <time>2021-08-16T23:22:12.834Z</time>
      </trkpt>
      <trkpt lat="47.554919" lon="7.782052">
        <ele>270.135128</ele>
        <time>2021-08-16T23:22:13.788Z</time>
      </trkpt>
      <trkpt lat="47.554925" lon="7.782093">
        <ele>270.129219</ele>
        <time>2021-08-16T23:22:14.085Z</time>
      </trkpt>
      <trkpt lat="47.555031" lon="7.782812">
        <ele>270.039117</ele>
        <time>2021-08-16T23:22:19.893Z</time>
      </trkpt>
      <trkpt lat="47.555156" lon="7.783560">
        <ele>269.949587</ele>
        <time>2021-08-16T23:22:27.250Z</time>
      </trkpt>
      <trkpt lat="47.555175" lon="7.783674">
        <ele>269.935944</ele>
        <time>2021-08-16T23:22:28.130Z</time>
      </trkpt>
      <trkpt lat="47.555284" lon="7.784197">
        <ele>269.872348</ele>
        <time>2021-08-16T23:22:34.426Z</time>
      </trkpt>
      <trkpt lat="47.555461" lon="7.784621">
        <ele>269.814424</ele>
        <time>2021-08-16T23:22:40.109Z</time>
      </trkpt>
      <trkpt lat="47.555734" lon="7.784979">
        <ele>269.697156</ele>
        <time>2021-08-16T23:22:46.421Z</time>
      </trkpt>
      <trkpt lat="47.555794" lon="7.785053">
        <ele>269.666135</ele>
        <time>2021-08-16T23:22:48.072Z</time>
      </trkpt>
      <trkpt lat="47.555804" lon="7.785065">
        <ele>269.661021</ele>
        <time>2021-08-16T23:22:48.309Z</time>
      </trkpt>
      <trkpt lat="47.555928" lon="7.785221">
        <ele>269.596382</ele>
        <time>2021-08-16T23:22:51.254Z</time>
      </trkpt>
      <trkpt lat="47.556140" lon="7.785486">
        <ele>269.486165</ele>
        <time>2021-08-16T23:22:55.232Z</time>
      </trkpt>
      <trkpt lat="47.556247" lon="7.785618">
        <ele>269.430839</ele>
        <time>2021-08-16T23:22:57.127Z</time>
      </trkpt>
      <trkpt lat="47.556331" lon="7.785736">
        <ele>269.384843</ele>
        <time>2021-08-16T23:22:58.866Z</time>
      </trkpt>
      <trkpt lat="47.556519" lon="7.786031">
        <ele>269.276032</ele>
        <time>2021-08-16T23:23:02.197Z</time>
      </trkpt>
      <trkpt lat="47.556701" lon="7.786373">
        <ele>269.159231</ele>
        <time>2021-08-16T23:23:05.861Z</time>
      </trkpt>
      <trkpt lat="47.556785" lon="7.786722">
        <ele>269.010885</ele>
        <time>2021-08-16T23:23:08.726Z</time>
      </trkpt>
      <trkpt lat="47.556807" lon="7.786849">
        <ele>268.883740</ele>
        <time>2021-08-16T23:23:09.706Z</time>
      </trkpt>
      <trkpt lat="47.556812" lon="7.787001">
        <ele>268.736169</ele>
        <time>2021-08-16T23:23:10.841Z</time>
      </trkpt>
      <trkpt lat="47.556783" lon="7.787207">
        <ele>268.532108</ele>
        <time>2021-08-16T23:23:12.402Z</time>
      </trkpt>
      <trkpt lat="47.556658" lon="7.787468">
        <ele>268.221757</ele>
        <time>2021-08-16T23:23:14.770Z</time>
      </trkpt>
      <trkpt lat="47.556539" lon="7.787710">
        <ele>267.931397</ele>
        <time>2021-08-16T23:23:16.982Z</time>
      </trkpt>
      <trkpt lat="47.556357" lon="7.788058">
        <ele>267.504464</ele>
        <time>2021-08-16T23:23:20.266Z</time>
      </trkpt>
      <trkpt lat="47.556249" lon="7.788270">
        <ele>267.246887</ele>
        <time>2021-08-16T23:23:22.248Z</time>
      </trkpt>
      <trkpt lat="47.556137" lon="7.788488">
        <ele>266.981200</ele>
        <time>2021-08-16T23:23:24.284Z</time>
      </trkpt>
      <trkpt lat="47.556111" lon="7.788537">
        <ele>266.920756</ele>
        <time>2021-08-16T23:23:24.729Z</time>
      </trkpt>
      <trkpt lat="47.556069" lon="7.788614">
        <ele>266.824747</ele>
        <time>2021-08-16T23:23:25.509Z</time>
      </trkpt>
      <trkpt lat="47.555936" lon="7.788828">
        <ele>266.542635</ele>
        <time>2021-08-16T23:23:27.821Z</time>
      </trkpt>
      <trkpt lat="47.555085" lon="7.789685">
        <ele>268.096269</ele>
        <time>2021-08-16T23:23:52.414Z</time>
      </trkpt>
      <trkpt lat="47.555062" lon="7.789726">
        <ele>268.154197</ele>
        <time>2021-08-16T23:23:53.574Z</time>
      </trkpt>
      <trkpt lat="47.555052" lon="7.789771">
        <ele>268.205674</ele>
        <time>2021-08-16T23:23:54.492Z</time>
      </trkpt>
      <trkpt lat="47.555031" lon="7.789894">
        <ele>268.343528</ele>
        <time>2021-08-16T23:23:57.277Z</time>
      </trkpt>
      <trkpt lat="47.554999" lon="7.790090">
        <ele>268.562631</ele>
        <time>2021-08-16T23:24:01.978Z</time>
      </trkpt>
      <trkpt lat="47.554865" lon="7.790678">
        <ele>269.236955</ele>
        <time>2021-08-16T23:24:16.056Z</time>
      </trkpt>
      <trkpt lat="47.554858" lon="7.790696">
        <ele>269.259528</ele>
        <time>2021-08-16T23:24:17.066Z</time>
      </trkpt>
      <trkpt lat="47.554788" lon="7.790844">
        <ele>269.472109</ele>
        <time>2021-08-16T23:24:22.810Z</time>
      </trkpt>
      <trkpt lat="47.554756" lon="7.790897">
        <ele>269.568348</ele>
        <time>2021-08-16T23:24:25.417Z</time>
      </trkpt>
      <trkpt lat="47.554689" lon="7.790914">
        <ele>269.704653</ele>
        <time>2021-08-16T23:24:28.747Z</time>
      </trkpt>
      <trkpt lat="47.554689" lon="7.790914">
        <ele>269.704653</ele>
        <time>2021-08-16T23:24:28.759Z</time>
      </trkpt>
      <trkpt lat="47.554689" lon="7.790914">
        <ele>269.704653</ele>
        <time>2021-08-16T23:24:28.830Z</time>
      </trkpt>
      <trkpt lat="47.554756" lon="7.790897">
        <ele>269.840959</ele>
        <time>2021-08-16T23:24:31.880Z</time>
      </trkpt>
      <trkpt lat="47.554911" lon="7.791459">
        <ele>270.662566</ele>
        <time>2021-08-16T23:24:44.898Z</time>
      </trkpt>
      <trkpt lat="47.555027" lon="7.791948">
        <ele>271.364014</ele>
        <time>2021-08-16T23:24:54.910Z</time>
      </trkpt>
      <trkpt lat="47.555085" lon="7.792163">
        <ele>271.677355</ele>
        <time>2021-08-16T23:24:59.414Z</time>
      </trkpt>
      <trkpt lat="47.555127" lon="7.792307">
        <ele>271.889648</ele>
        <time>2021-08-16T23:25:02.276Z</time>
      </trkpt>
      <trkpt lat="47.555237" lon="7.792734">
        <ele>272.508167</ele>
        <time>2021-08-16T23:25:10.143Z</time>
      </trkpt>
      <trkpt lat="47.555277" lon="7.793131">
        <ele>273.029185</ele>
        <time>2021-08-16T23:25:16.144Z</time>
      </trkpt>
      <trkpt lat="47.555274" lon="7.793423">
        <ele>273.264514</ele>
        <time>2021-08-16T23:25:20.432Z</time>
      </trkpt>
      <trkpt lat="47.555281" lon="7.793955">
        <ele>273.693295</ele>
        <time>2021-08-16T23:25:28.436Z</time>
      </trkpt>
      <trkpt lat="47.555282" lon="7.794033">
        <ele>273.756161</ele>
        <time>2021-08-16T23:25:29.648Z</time>
      </trkpt>
      <trkpt lat="47.555288" lon="7.794318">
        <ele>273.985933</ele>
        <time>2021-08-16T23:25:34.201Z</time>
      </trkpt>
      <trkpt lat="47.555288" lon="7.794496">
        <ele>274.129371</ele>
        <time>2021-08-16T23:25:36.901Z</time>
      </trkpt>
      <trkpt lat="47.555308" lon="7.794498">
        <ele>274.153306</ele>
        <time>2021-08-16T23:25:37.363Z</time>
      </trkpt>
      <trkpt lat="47.555432" lon="7.795493">
        <ele>274.968658</ele>
        <time>2021-08-16T23:25:54.713Z</time>
      </trkpt>
      <trkpt lat="47.555436" lon="7.795522">
        <ele>274.992510</ele>
        <time>2021-08-16T23:25:55.251Z</time>
      </trkpt>
      <trkpt lat="47.555438" lon="7.795535">
        <ele>275.003254</ele>
        <time>2021-08-16T23:25:55.499Z</time>
      </trkpt>
      <trkpt lat="47.555451" lon="7.795635">
        <ele>275.085318</ele>
        <time>2021-08-16T23:25:57.442Z</time>
      </trkpt>
      <trkpt lat="47.555456" lon="7.795684">
        <ele>275.125252</ele>
        <time>2021-08-16T23:25:58.590Z</time>
      </trkpt>
      <trkpt lat="47.555444" lon="7.795749">
        <ele>275.243182</ele>
        <time>2021-08-16T23:25:59.968Z</time>
      </trkpt>
      <trkpt lat="47.555454" lon="7.795902">
        <ele>275.589733</ele>
        <time>2021-08-16T23:26:02.794Z</time>
      </trkpt>
      <trkpt lat="47.555467" lon="7.795984">
        <ele>275.779634</ele>
        <time>2021-08-16T23:26:04.585Z</time>
      </trkpt>
      <trkpt lat="47.555492" lon="7.796158">
        <ele>276.180706</ele>
        <time>2021-08-16T23:26:07.724Z</time>
      </trkpt>
      <trkpt lat="47.555529" lon="7.796462">
        <ele>276.877127</ele>
        <time>2021-08-16T23:26:13.585Z</time>
      </trkpt>
      <trkpt lat="47.555544" lon="7.796747">
        <ele>277.521606</ele>
        <time>2021-08-16T23:26:19.518Z</time>
      </trkpt>
      <trkpt lat="47.555486" lon="7.796849">
        <ele>277.822308</ele>
        <time>2021-08-16T23:26:23.241Z</time>
      </trkpt>
      <trkpt lat="47.555263" lon="7.796971">
        <ele>278.616416</ele>
        <time>2021-08-16T23:26:31.202Z</time>
      </trkpt>
      <trkpt lat="47.555241" lon="7.796953">
        <ele>278.700368</ele>
        <time>2021-08-16T23:26:32.308Z</time>
      </trkpt>
      <trkpt lat="47.555102" lon="7.797022">
        <ele>279.190076</ele>
        <time>2021-08-16T23:26:37.085Z</time>
      </trkpt>
      <trkpt lat="47.555043" lon="7.797058">
        <ele>279.403228</ele>
        <time>2021-08-16T23:26:38.975Z</time>
      </trkpt>
      <trkpt lat="47.554934" lon="7.797124">
        <ele>279.796583</ele>
        <time>2021-08-16T23:26:42.191Z</time>
      </trkpt>
      <trkpt lat="47.554802" lon="7.797205">
        <ele>280.273860</ele>
        <time>2021-08-16T23:26:47.262Z</time>
      </trkpt>
      <trkpt lat="47.554702" lon="7.797265">
        <ele>280.634268</ele>
        <time>2021-08-16T23:26:50.258Z</time>
      </trkpt>
      <trkpt lat="47.554384" lon="7.797459">
        <ele>281.677440</ele>
        <time>2021-08-16T23:26:59.819Z</time>
      </trkpt>
      <trkpt lat="47.554256" lon="7.797539">
        <ele>282.063738</ele>
        <time>2021-08-16T23:27:02.860Z</time>
      </trkpt>
      <trkpt lat="47.554176" lon="7.797585">
        <ele>282.302357</ele>
        <time>2021-08-16T23:27:05.857Z</time>
      </trkpt>
      <trkpt lat="47.554176" lon="7.797585">
        <ele>282.302357</ele>
        <time>2021-08-16T23:27:05.860Z</time>
      </trkpt>
      <trkpt lat="47.554176" lon="7.797585">
        <ele>282.302357</ele>
        <time>2021-08-16T23:27:05.896Z</time>
      </trkpt>
      <trkpt lat="47.554225" lon="7.797729">
        <ele>282.605005</ele>
        <time>2021-08-16T23:27:09.019Z</time>
      </trkpt>
      <trkpt lat="47.554569" lon="7.798771">
        <ele>284.781917</ele>
        <time>2021-08-16T23:27:32.875Z</time>
      </trkpt>
      <trkpt lat="47.554580" lon="7.798805">
        <ele>284.852676</ele>
        <time>2021-08-16T23:27:33.461Z</time>
      </trkpt>
      <trkpt lat="47.554652" lon="7.799037">
        <ele>285.331889</ele>
        <time>2021-08-16T23:27:39.141Z</time>
      </trkpt>
      <trkpt lat="47.554785" lon="7.799447">
        <ele>286.185641</ele>
        <time>2021-08-16T23:27:48.353Z</time>
      </trkpt>
      <trkpt lat="47.554919" lon="7.799767">
        <ele>286.893634</ele>
        <time>2021-08-16T23:27:55.999Z</time>
      </trkpt>
      <trkpt lat="47.555022" lon="7.799940">
        <ele>287.327343</ele>
        <time>2021-08-16T23:28:00.904Z</time>
      </trkpt>
      <trkpt lat="47.554155" lon="7.800510">
        <ele>289.969558</ele>
        <time>2021-08-16T23:28:30.375Z</time>
      </trkpt>
      <trkpt lat="47.553909" lon="7.800673">
        <ele>290.720225</ele>
        <time>2021-08-16T23:28:39.403Z</time>
      </trkpt>
      <trkpt lat="47.553850" lon="7.800751">
        <ele>290.940488</ele>
        <time>2021-08-16T23:28:41.758Z</time>
      </trkpt>
      <trkpt lat="47.553794" lon="7.800894">
        <ele>291.233637</ele>
        <time>2021-08-16T23:28:45.761Z</time>
      </trkpt>
      <trkpt lat="47.553782" lon="7.800961">
        <ele>291.337398</ele>
        <time>2021-08-16T23:28:47.349Z</time>
      </trkpt>
      <trkpt lat="47.553823" lon="7.801201">
        <ele>291.707976</ele>
        <time>2021-08-16T23:28:52.634Z</time>
      </trkpt>
      <trkpt lat="47.553900" lon="7.801363">
        <ele>292.004570</ele>
        <time>2021-08-16T23:28:57.274Z</time>
      </trkpt>
      <trkpt lat="47.554367" lon="7.802333">
        <ele>293.788098</ele>
        <time>2021-08-16T23:29:21.298Z</time>
      </trkpt>
      <trkpt lat="47.554402" lon="7.802456">
        <ele>293.987907</ele>
        <time>2021-08-16T23:29:23.690Z</time>
      </trkpt>
      <trkpt lat="47.554459" lon="7.802666">
        <ele>294.326714</ele>
        <time>2021-08-16T23:29:27.727Z</time>
      </trkpt>
      <trkpt lat="47.554639" lon="7.803656">
        <ele>295.519714</ele>
        <time>2021-08-16T23:29:45.048Z</time>
      </trkpt>
      <trkpt lat="47.554726" lon="7.804275">
        <ele>296.009098</ele>
        <time>2021-08-16T23:29:55.237Z</time>
      </trkpt>
      <trkpt lat="47.554769" lon="7.804587">
        <ele>296.255569</ele>
        <time>2021-08-16T23:30:00.761Z</time>
      </trkpt>
      <trkpt lat="47.554808" lon="7.804930">
        <ele>296.524791</ele>
        <time>2021-08-16T23:30:06.252Z</time>
      </trkpt>
      <trkpt lat="47.554810" lon="7.805056">
        <ele>296.622341</ele>
        <time>2021-08-16T23:30:08.729Z</time>
      </trkpt>
      <trkpt lat="47.554751" lon="7.805044">
        <ele>296.690640</ele>
        <time>2021-08-16T23:30:10.275Z</time>
      </trkpt>
      <trkpt lat="47.554683" lon="7.805120">
        <ele>296.788324</ele>
        <time>2021-08-16T23:30:12.382Z</time>
      </trkpt>
      <trkpt lat="47.554591" lon="7.805119">
        <ele>296.893837</ele>
        <time>2021-08-16T23:30:14.560Z</time>
      </trkpt>
      <trkpt lat="47.554162" lon="7.805088">
        <ele>297.366330</ele>
        <time>2021-08-16T23:30:25.506Z</time>
      </trkpt>
      <trkpt lat="47.553816" lon="7.805061">
        <ele>297.716673</ele>
        <time>2021-08-16T23:30:34.091Z</time>
      </trkpt>
      <trkpt lat="47.553565" lon="7.805008">
        <ele>297.973037</ele>
        <time>2021-08-16T23:30:40.286Z</time>
      </trkpt>
      <trkpt lat="47.553400" lon="7.804940">
        <ele>298.146211</ele>
        <time>2021-08-16T23:30:44.255Z</time>
      </trkpt>
      <trkpt lat="47.553326" lon="7.804924">
        <ele>298.221829</ele>
        <time>2021-08-16T23:30:45.987Z</time>
      </trkpt>
      <trkpt lat="47.553276" lon="7.804918">
        <ele>298.272552</ele>
        <time>2021-08-16T23:30:47.152Z</time>
      </trkpt>
      <trkpt lat="47.553211" lon="7.804952">
        <ele>298.342252</ele>
        <time>2021-08-16T23:30:48.614Z</time>
      </trkpt>
      <trkpt lat="47.552838" lon="7.804848">
        <ele>298.726032</ele>
        <time>2021-08-16T23:30:57.094Z</time>
      </trkpt>
      <trkpt lat="47.552737" lon="7.804819">
        <ele>298.830059</ele>
        <time>2021-08-16T23:30:59.463Z</time>
      </trkpt>
      <trkpt lat="47.552313" lon="7.804725">
        <ele>299.268206</ele>
        <time>2021-08-16T23:31:10.376Z</time>
      </trkpt>
      <trkpt lat="47.552281" lon="7.804747">
        <ele>299.304603</ele>
        <time>2021-08-16T23:31:11.387Z</time>
      </trkpt>
      <trkpt lat="47.552011" lon="7.804535">
        <ele>299.619870</ele>
        <time>2021-08-16T23:31:19.803Z</time>
      </trkpt>
      <trkpt lat="47.551731" lon="7.804667">
        <ele>299.923026</ele>
        <time>2021-08-16T23:31:27.615Z</time>
      </trkpt>
      <trkpt lat="47.551709" lon="7.805000">
        <ele>300.156017</ele>
        <time>2021-08-16T23:31:32.423Z</time>
      </trkpt>
      <trkpt lat="47.551692" lon="7.805295">
        <ele>300.362186</ele>
        <time>2021-08-16T23:31:37.667Z</time>
      </trkpt>
      <trkpt lat="47.551681" lon="7.805477">
        <ele>300.489428</ele>
        <time>2021-08-16T23:31:40.312Z</time>
      </trkpt>
      <trkpt lat="47.551671" lon="7.806117">
        <ele>300.886877</ele>
        <time>2021-08-16T23:31:50.066Z</time>
      </trkpt>
      <trkpt lat="47.551651" lon="7.806246">
        <ele>300.878200</ele>
        <time>2021-08-16T23:31:52.867Z</time>
      </trkpt>
      <trkpt lat="47.551895" lon="7.806278">
        <ele>300.854409</ele>
        <time>2021-08-16T23:31:56.323Z</time>
      </trkpt>
      <trkpt lat="47.551990" lon="7.806301">
        <ele>300.845060</ele>
        <time>2021-08-16T23:31:58.545Z</time>
      </trkpt>
      <trkpt lat="47.552015" lon="7.806307">
        <ele>300.842600</ele>
        <time>2021-08-16T23:31:59.073Z</time>
      </trkpt>
      <trkpt lat="47.552068" lon="7.806445">
        <ele>300.832192</ele>
        <time>2021-08-16T23:32:00.533Z</time>
      </trkpt>
      <trkpt lat="47.552398" lon="7.808880">
        <ele>300.398814</ele>
        <time>2021-08-16T23:32:22.778Z</time>
      </trkpt>
      <trkpt lat="47.552566" lon="7.810386">
        <ele>299.722156</ele>
        <time>2021-08-16T23:32:35.832Z</time>
      </trkpt>
      <trkpt lat="47.552711" lon="7.812955">
        <ele>298.600828</ele>
        <time>2021-08-16T23:32:58.517Z</time>
      </trkpt>
      <trkpt lat="47.552844" lon="7.816432">
        <ele>297.372996</ele>
        <time>2021-08-16T23:33:29.104Z</time>
      </trkpt>
      <trkpt lat="47.552948" lon="7.819358">
        <ele>297.787413</ele>
        <time>2021-08-16T23:34:00.424Z</time>
      </trkpt>
      <trkpt lat="47.552896" lon="7.820699">
        <ele>298.366903</ele>
        <time>2021-08-16T23:34:16.548Z</time>
      </trkpt>
      <trkpt lat="47.552567" lon="7.824508">
        <ele>300.254366</ele>
        <time>2021-08-16T23:35:03.150Z</time>
      </trkpt>
      <trkpt lat="47.552491" lon="7.827227">
        <ele>301.723331</ele>
        <time>2021-08-16T23:35:34.960Z</time>
      </trkpt>
      <trkpt lat="47.552515" lon="7.828094">
        <ele>302.529080</ele>
        <time>2021-08-16T23:35:46.694Z</time>
      </trkpt>
      <trkpt lat="47.552477" lon="7.828294">
        <ele>302.722013</ele>
        <time>2021-08-16T23:35:49.317Z</time>
      </trkpt>
      <trkpt lat="47.552421" lon="7.828481">
        <ele>302.911982</ele>
        <time>2021-08-16T23:35:52.253Z</time>
      </trkpt>
      <trkpt lat="47.552404" lon="7.828582">
        <ele>303.008640</ele>
        <time>2021-08-16T23:35:53.940Z</time>
      </trkpt>
      <trkpt lat="47.552416" lon="7.828822">
        <ele>303.232108</ele>
        <time>2021-08-16T23:35:57.183Z</time>
      </trkpt>
      <trkpt lat="47.552554" lon="7.829266">
        <ele>303.686012</ele>
        <time>2021-08-16T23:36:04.543Z</time>
      </trkpt>
      <trkpt lat="47.552645" lon="7.830686">
        <ele>306.209844</ele>
        <time>2021-08-16T23:36:27.896Z</time>
      </trkpt>
      <trkpt lat="47.552690" lon="7.832598">
        <ele>309.757962</ele>
        <time>2021-08-16T23:37:03.436Z</time>
      </trkpt>
      <trkpt lat="47.552616" lon="7.832891">
        <ele>310.367043</ele>
        <time>2021-08-16T23:37:08.811Z</time>
      </trkpt>
      <trkpt lat="47.552556" lon="7.832977">
        <ele>310.607858</ele>
        <time>2021-08-16T23:37:11.543Z</time>
      </trkpt>
      <trkpt lat="47.552511" lon="7.833072">
        <ele>310.833824</ele>
        <time>2021-08-16T23:37:13.570Z</time>
      </trkpt>
      <trkpt lat="47.552467" lon="7.833198">
        <ele>311.110029</ele>
        <time>2021-08-16T23:37:15.975Z</time>
      </trkpt>
      <trkpt lat="47.552452" lon="7.833284">
        <ele>311.282965</ele>
        <time>2021-08-16T23:37:17.588Z</time>
      </trkpt>
      <trkpt lat="47.552696" lon="7.833789">
        <ele>312.492141</ele>
        <time>2021-08-16T23:37:28.642Z</time>
      </trkpt>
      <trkpt lat="47.552700" lon="7.833938">
        <ele>312.782462</ele>
        <time>2021-08-16T23:37:31.581Z</time>
      </trkpt>
      <trkpt lat="47.552714" lon="7.835010">
        <ele>314.468990</ele>
        <time>2021-08-16T23:37:50.096Z</time>
      </trkpt>
      <trkpt lat="47.552719" lon="7.836790">
        <ele>316.675288</ele>
        <time>2021-08-16T23:38:15.421Z</time>
      </trkpt>
      <trkpt lat="47.552697" lon="7.838068">
        <ele>317.986455</ele>
        <time>2021-08-16T23:38:32.942Z</time>
      </trkpt>
      <trkpt lat="47.552736" lon="7.838578">
        <ele>318.476490</ele>
        <time>2021-08-16T23:38:39.838Z</time>
      </trkpt>
      <trkpt lat="47.552802" lon="7.839009">
        <ele>318.898443</ele>
        <time>2021-08-16T23:38:45.769Z</time>
      </trkpt>
      <trkpt lat="47.552939" lon="7.839526">
        <ele>319.428727</ele>
        <time>2021-08-16T23:38:53.557Z</time>
      </trkpt>
      <trkpt lat="47.553196" lon="7.841291">
        <ele>321.333639</ele>
        <time>2021-08-16T23:39:20.096Z</time>
      </trkpt>
      <trkpt lat="47.553231" lon="7.841529">
        <ele>321.593561</ele>
        <time>2021-08-16T23:39:23.806Z</time>
      </trkpt>
      <trkpt lat="47.553216" lon="7.841849">
        <ele>321.935847</ele>
        <time>2021-08-16T23:39:28.128Z</time>
      </trkpt>
      <trkpt lat="47.553123" lon="7.842222">
        <ele>322.360158</ele>
        <time>2021-08-16T23:39:33.455Z</time>
      </trkpt>
      <trkpt lat="47.553133" lon="7.842431">
        <ele>322.535532</ele>
        <time>2021-08-16T23:39:36.655Z</time>
      </trkpt>
      <trkpt lat="47.552833" lon="7.842495">
        <ele>322.831196</ele>
        <time>2021-08-16T23:39:44.030Z</time>
      </trkpt>
      <trkpt lat="47.552380" lon="7.842592">
        <ele>323.277681</ele>
        <time>2021-08-16T23:39:55.609Z</time>
      </trkpt>
      <trkpt lat="47.551922" lon="7.842704">
        <ele>323.730498</ele>
        <time>2021-08-16T23:40:06.296Z</time>
      </trkpt>
      <trkpt lat="47.551668" lon="7.842770">
        <ele>323.982053</ele>
        <time>2021-08-16T23:40:12.254Z</time>
      </trkpt>
      <trkpt lat="47.551454" lon="7.842815">
        <ele>324.192898</ele>
        <time>2021-08-16T23:40:16.936Z</time>
      </trkpt>
      <trkpt lat="47.551344" lon="7.844621">
        <ele>325.390315</ele>
        <time>2021-08-16T23:40:39.501Z</time>
      </trkpt>
      <trkpt lat="47.551205" lon="7.846694">
        <ele>327.181300</ele>
        <time>2021-08-16T23:41:07.563Z</time>
      </trkpt>
      <trkpt lat="47.551184" lon="7.847206">
        <ele>327.697269</ele>
        <time>2021-08-16T23:41:14.966Z</time>
      </trkpt>
      <trkpt lat="47.551196" lon="7.847517">
        <ele>328.010614</ele>
        <time>2021-08-16T23:41:19.538Z</time>
      </trkpt>
      <trkpt lat="47.551669" lon="7.848083">
        <ele>328.914060</ele>
        <time>2021-08-16T23:41:32.625Z</time>
      </trkpt>
      <trkpt lat="47.551242" lon="7.848702">
        <ele>329.795296</ele>
        <time>2021-08-16T23:41:45.219Z</time>
      </trkpt>
      <trkpt lat="47.550975" lon="7.849066">
        <ele>330.330527</ele>
        <time>2021-08-16T23:41:52.544Z</time>
      </trkpt>
      <trkpt lat="47.550810" lon="7.849346">
        <ele>330.700609</ele>
        <time>2021-08-16T23:41:58.950Z</time>
      </trkpt>
      <trkpt lat="47.550488" lon="7.850081">
        <ele>331.443500</ele>
        <time>2021-08-16T23:42:14.444Z</time>
      </trkpt>
      <trkpt lat="47.550333" lon="7.850434">
        <ele>331.659236</ele>
        <time>2021-08-16T23:42:21.784Z</time>
      </trkpt>
      <trkpt lat="47.550009" lon="7.851173">
        <ele>332.110674</ele>
        <time>2021-08-16T23:42:36.404Z</time>
      </trkpt>
      <trkpt lat="47.549652" lon="7.851969">
        <ele>332.600273</ele>
        <time>2021-08-16T23:42:50.310Z</time>
      </trkpt>
      <trkpt lat="47.549535" lon="7.852225">
        <ele>332.635077</ele>
        <time>2021-08-16T23:42:54.375Z</time>
      </trkpt>
      <trkpt lat="47.549285" lon="7.852784">
        <ele>332.492205</ele>
        <time>2021-08-16T23:43:03.025Z</time>
      </trkpt>
      <trkpt lat="47.549285" lon="7.852783">
        <ele>332.491992</ele>
        <time>2021-08-16T23:43:03.036Z</time>
      </trkpt>
      <trkpt lat="47.549285" lon="7.852784">
        <ele>332.491779</ele>
        <time>2021-08-16T23:43:03.051Z</time>
      </trkpt>
      <trkpt lat="47.549708" lon="7.853279">
        <ele>332.321626</ele>
        <time>2021-08-16T23:43:13.462Z</time>
      </trkpt>
      <trkpt lat="47.550221" lon="7.853833">
        <ele>332.121238</ele>
        <time>2021-08-16T23:43:25.394Z</time>
      </trkpt>
      <trkpt lat="47.549883" lon="7.854434">
        <ele>331.853189</ele>
        <time>2021-08-16T23:43:32.083Z</time>
      </trkpt>
      <trkpt lat="47.549566" lon="7.855225">
        <ele>331.523877</ele>
        <time>2021-08-16T23:43:43.255Z</time>
      </trkpt>
      <trkpt lat="47.549362" lon="7.855774">
        <ele>331.299533</ele>
        <time>2021-08-16T23:43:51.198Z</time>
      </trkpt>
      <trkpt lat="47.548887" lon="7.857308">
        <ele>331.206670</ele>
        <time>2021-08-16T23:44:13.353Z</time>
      </trkpt>
      <trkpt lat="47.548743" lon="7.857692">
        <ele>331.226406</ele>
        <time>2021-08-16T23:44:19.338Z</time>
      </trkpt>
      <trkpt lat="47.548701" lon="7.857893">
        <ele>331.235860</ele>
        <time>2021-08-16T23:44:22.318Z</time>
      </trkpt>
      <trkpt lat="47.548686" lon="7.857973">
        <ele>331.239590</ele>
        <time>2021-08-16T23:44:23.445Z</time>
      </trkpt>
      <trkpt lat="47.548611" lon="7.858381">
        <ele>331.258588</ele>
        <time>2021-08-16T23:44:29.674Z</time>
      </trkpt>
      <trkpt lat="47.548334" lon="7.859801">
        <ele>332.191123</ele>
        <time>2021-08-16T23:44:52.765Z</time>
      </trkpt>
      <trkpt lat="47.548049" lon="7.860929">
        <ele>333.087929</ele>
        <time>2021-08-16T23:45:13.826Z</time>
      </trkpt>
      <trkpt lat="47.547930" lon="7.861711">
        <ele>333.253531</ele>
        <time>2021-08-16T23:45:28.622Z</time>
      </trkpt>
      <trkpt lat="47.547568" lon="7.863151">
        <ele>333.253531</ele>
        <time>2021-08-16T23:45:57.394Z</time>
      </trkpt>
      <trkpt lat="47.547320" lon="7.863864">
        <ele>333.253531</ele>
        <time>2021-08-16T23:46:11.714Z</time>
      </trkpt>
      <trkpt lat="47.547144" lon="7.864148">
        <ele>333.253531</ele>
        <time>2021-08-16T23:46:18.374Z</time>
      </trkpt>
    </trkseg>
  </trk>
</gpx>